[[[{"header":{"parameterUnit":"kt","parameterCategory":2,"dx":1,"dy":1,"la1":29.285339999999998,"la2":30.599998999999997,"lo1":-89.70041500000002,"lo2":-87.6738589999976,"nx":112,"ny":82,"refTime":"2022-10-14T12:00:00:Z","depth":0,"parameterNumber":1,"parameterNumberName":"U-component_of_WINDS"},"data":[-5.4625,-5.6181,-5.5997,-4.8716,-4.7128,-4.4675,-3.4663,-3.53,-3.6871,-3.2929,-3.5538,-3.8411,-3.8098,-3.6587,-3.5005,-3.3829,-3.2467,-3.0329,0.0,-2.6915,-2.8175,-3.0603,0.0,0.0,0.0,-4.8948,-5.5374,-7.0011,-6.7474,-6.9955,-8.0785,-8.1906,-8.2764,-8.4091,-8.567,-8.7448,-8.9575,-9.1163,-9.2341,-9.3143,-9.2514,-9.2392,-9.264,-9.2392,-9.2227,-9.2278,-9.2962,-9.3369,-9.355,-9.3539,-9.3906,-9.4402,-9.4154,-9.4354,-9.4748,-9.4999,-9.5071,-9.5071,-9.5071,-9.5071,-9.5071,-9.5071,-9.5071,-9.5071,-9.5071,-9.5071,-9.5071,-9.5071,-9.5071,-9.5071,-9.5071,-9.5071,-9.5112,-9.5482,-9.552,-9.5772,-9.6527,-9.7136,-9.7567,-9.7567,-9.7137,-9.6742,-9.6922,-9.5558,-9.5126,-9.7096,-9.6551,-9.6479,-9.8104,-9.9866,-10.1198,-10.1741,-10.2684,-10.1959,-9.8697,-9.6362,-9.5071,-9.5071,-9.5071,-9.5172,-9.5402,-9.5205,-9.5425,-9.6236,-9.5461,-9.5324,-9.5901,-9.5938,-9.5938,-9.5974,-9.7093,-9.7635,-5.0202,-5.1848,-5.165,-4.2638,-4.0964,-3.9194,-3.0477,-3.0988,-3.2371,-2.906,-3.3047,-3.5728,-3.0998,-3.2302,-3.3125,-3.0247,-3.0811,-3.0588,0.0,-2.7638,-2.9231,-3.2713,-4.0943,-4.779,-5.1424,-5.3938,-5.9693,-7.0266,-6.8952,-7.2001,-8.1897,-8.2991,-8.4103,-8.6022,-8.7581,-8.9433,-9.1545,-9.3116,-9.4048,-9.4266,-9.368,-9.3493,-9.3757,-9.3493,-9.3357,-9.3443,-9.4079,-9.4426,-9.4426,-9.4426,-9.4676,-9.5035,-9.457,-9.4676,-9.5071,-9.5071,-9.5071,-9.5071,-9.5071,-9.5071,-9.5071,-9.5071,-9.5071,-9.5071,-9.5071,-9.5071,-9.5071,-9.5071,-9.5071,-9.5071,-9.5071,-9.5071,-9.5071,-9.5071,-9.5071,-9.536,-9.6371,-9.6587,-9.6768,-9.731,-9.6985,-9.6624,-9.6696,-9.5793,-9.5396,-9.6443,-9.5721,-9.5466,-9.6649,-9.8368,-10.02,-10.2006,-10.3097,-10.3061,-10.1423,-9.8549,-9.6543,-9.5901,-9.5461,-9.537,-9.5596,-9.5499,-9.5431,-9.5664,-9.537,-9.5205,-9.5071,-9.5071,-9.5071,-9.5071,-9.5071,-9.5071,-4.735,-4.7068,-4.5948,-3.6604,-3.5351,-3.4583,-2.7752,-2.9445,-3.1744,-2.9264,-3.2132,-3.4206,-3.1373,-3.1976,-3.2028,-2.9265,-3.1309,0.0,0.0,-3.0489,-3.322,-3.7645,-4.4923,-5.2664,-6.0616,-5.4679,-5.683,-7.2621,-6.7158,-6.9235,-8.3258,-8.4383,-8.54,-8.7139,-8.8643,-9.0529,-9.2796,-9.4313,-9.5071,-9.5071,-9.5071,-9.5071,-9.5071,-9.5071,-9.5071,-9.5071,-9.5071,-9.5071,-9.5071,-9.5071,-9.5071,-9.5071,-9.5071,-9.5071,-9.5071,-9.5071,-9.5071,-9.5071,-9.5071,-9.5071,-9.5071,-9.5071,-9.5071,-9.5071,-9.5071,-9.5071,-9.5071,-9.5071,-9.5071,-9.5071,-9.5071,-9.5071,-9.5071,-9.5071,-9.5071,-9.5071,-9.5107,-9.5143,-9.5576,-9.7093,-9.6154,-9.6118,-9.9223,-9.7129,-9.5071,-9.5071,-9.5071,-9.5205,-9.5564,-9.7008,-9.8736,-10.0621,-10.0872,-10.1492,-10.2984,-10.1417,-9.9453,-9.7452,-9.6268,-9.5664,-9.5695,-9.5872,-9.5903,-9.5695,-9.5664,-9.5435,-9.5071,-9.5071,-9.5071,-9.5071,-9.5105,-9.5068,-4.1095,-4.1586,-4.1883,-3.6993,-3.6199,-3.5333,-3.0433,-2.8552,-2.8025,-2.8661,-2.8828,0.0,0.0,0.0,-3.0019,-3.0304,0.0,-3.6831,-3.3991,-4.066,-4.7505,-5.1944,-5.5621,-6.0885,-6.8749,-6.717,-6.975,-7.9655,-7.4201,-7.4553,-8.4012,-8.5005,-8.6553,-8.939,-8.9895,-9.151,-9.4385,-9.4854,-9.5071,-9.5071,-9.5071,-9.5071,-9.5071,-9.5071,-9.5071,-9.5071,-9.5071,-9.5071,-9.5071,-9.5071,-9.5071,-9.5071,-9.5071,-9.5071,-9.5071,-9.5071,-9.5071,-9.5071,-9.5071,-9.5071,-9.5071,-9.5071,-9.5071,-9.5071,-9.5071,-9.5071,-9.5071,-9.5071,-9.5071,-9.5071,-9.5071,-9.5071,-9.5071,-9.5071,-9.5071,-9.536,-9.6515,-9.684,-9.6985,-9.7346,-9.7057,-9.6696,-9.6443,-9.5649,-9.5071,-9.5071,-9.5304,-9.5499,-9.5596,-9.738,-9.8882,-9.941,-10.0479,-10.0882,-10.018,-10.0497,-9.9478,-9.658,-9.6127,-9.6024,-9.6335,-9.6151,-9.6114,-9.6364,-9.5847,-9.5564,-9.5467,-9.5205,-9.5071,-9.5071,-9.5559,-9.5037,-3.9758,-4.0025,-4.0367,-3.6457,-3.7407,-3.7608,-3.1094,-2.9231,-2.8787,-2.8762,0.0,0.0,0.0,0.0,0.0,0.0,-3.6864,-4.0739,-3.8461,-4.6893,-5.5004,-5.9718,-6.5963,-7.0889,-7.3409,-7.3043,-7.5716,-8.3188,-7.783,-7.7409,-8.4673,-8.5386,-8.7019,-9.0269,-9.0377,-9.1893,-9.5035,-9.5071,-9.5071,-9.5071,-9.5071,-9.5071,-9.5071,-9.5071,-9.5071,-9.5071,-9.5071,-9.5071,-9.5071,-9.5071,-9.5071,-9.5071,-9.5071,-9.5071,-9.5071,-9.5071,-9.5071,-9.5071,-9.5071,-9.5071,-9.5071,-9.5071,-9.5071,-9.5071,-9.5071,-9.5071,-9.5071,-9.5071,-9.5071,-9.5071,-9.5071,-9.5071,-9.5071,-9.5071,-9.5071,-9.5324,-9.6226,-9.6479,-9.6479,-9.6407,-9.6407,-9.6118,-9.5215,-9.5071,-9.5071,-9.5071,-9.537,-9.5659,-9.5785,-9.7074,-9.8265,-9.9076,-9.9994,-10.0435,-10.0206,-10.0722,-10.0285,-9.842,-9.7466,-9.716,-9.7584,-9.6831,-9.6501,-9.6594,-9.6247,-9.597,-9.5816,-9.5559,-9.5463,-9.5463,-9.5872,-9.549,-4.0335,-3.9654,-3.9302,-3.5304,-3.7856,-3.9355,-3.1662,0.0,-3.2813,-3.1544,0.0,-2.9433,-3.0994,0.0,0.0,-3.3484,-4.0712,-4.5713,-4.4149,-5.2256,-6.0147,-6.4896,-7.564,-8.1003,-7.6677,-7.5626,-7.7885,-8.4284,-7.9769,-7.9316,-8.525,-8.5539,-8.7019,-9.0269,-9.0377,-9.1893,-9.5035,-9.5071,-9.5071,-9.5071,-9.5071,-9.5071,-9.5071,-9.5071,-9.5071,-9.5071,-9.5071,-9.5071,-9.5071,-9.5071,-9.5071,-9.5071,-9.5071,-9.5071,-9.5071,-9.5071,-9.5071,-9.5071,-9.5071,-9.5071,-9.5071,-9.5071,-9.5071,-9.5071,-9.5071,-9.5071,-9.5071,-9.5071,-9.5071,-9.5071,-9.5071,-9.5071,-9.5071,-9.5071,-9.5071,-9.5071,-9.5071,-9.5071,-9.5071,-9.5071,-9.5071,-9.5105,-9.5135,-9.5172,-9.5172,-9.5172,-9.5499,-9.5816,-9.6055,-9.6415,-9.7312,-9.9067,-9.9241,-9.9794,-10.1194,-10.1162,-10.1053,-10.0973,-9.9431,-9.8566,-9.8705,-9.7624,-9.6888,-9.665,-9.6622,-9.6415,-9.6085,-9.6055,-9.6085,-9.6108,-9.5962,-9.5932,-3.4148,-3.208,-3.1363,-3.4401,-3.3292,-3.2898,0.0,0.0,0.0,-4.5127,-4.5355,-4.4785,-4.626,-4.6702,-4.749,-4.9274,-5.507,-5.8512,-5.6149,-6.6462,-7.5589,-7.9061,-8.297,-8.4985,-8.4067,-8.3824,-8.4036,-8.4677,-8.4048,-8.4179,-8.5466,-8.5539,-8.7019,-9.0269,-9.0377,-9.1893,-9.5035,-9.5071,-9.5071,-9.5071,-9.5071,-9.5071,-9.5071,-9.5071,-9.5071,-9.5071,-9.5071,-9.5071,-9.5071,-9.5071,-9.5071,-9.5071,-9.5071,-9.5071,-9.5071,-9.5071,-9.5071,-9.5071,-9.5071,-9.5071,-9.5071,-9.5071,-9.5071,-9.5071,-9.5071,-9.5071,-9.5071,-9.5071,-9.5071,-9.5071,-9.5071,-9.5071,-9.5071,-9.5071,-9.5071,-9.5071,-9.5071,-9.5071,-9.5071,-9.5071,-9.5071,-9.5238,-9.5748,-9.5841,-9.5841,-9.5841,-9.6144,-9.6451,-9.6509,-9.6752,-9.7052,-9.7436,-9.7473,-9.7584,-9.7915,-9.9113,-9.9307,-9.7972,-9.8774,-9.8709,-9.743,-9.7142,-9.6994,-9.6941,-9.6734,-9.6566,-9.6472,-9.6174,-9.632,-9.676,-9.551,-9.5485,-3.1659,-3.0572,-3.0553,-3.2631,-3.3153,0.0,0.0,-3.645,-3.8459,-4.5488,-4.5438,-4.556,-5.0419,-5.1899,-5.2755,-5.384,-6.0061,-6.5574,-6.8014,-7.5979,-8.2091,-8.3506,-8.5171,-8.6164,-8.6092,-8.5704,-8.5232,-8.4782,-8.5226,-8.5539,-8.5539,-8.5539,-8.7019,-9.0269,-9.0385,-9.1864,-9.5035,-9.5071,-9.5071,-9.5071,-9.5071,-9.5071,-9.5071,-9.5071,-9.5071,-9.5071,-9.5071,-9.5071,-9.5071,-9.5071,-9.5071,-9.5071,-9.5071,-9.5071,-9.5071,-9.5071,-9.5071,-9.5071,-9.5071,-9.5071,-9.5071,-9.5071,-9.5071,-9.5071,-9.5071,-9.5071,-9.5071,-9.5071,-9.5071,-9.5071,-9.5071,-9.5071,-9.5071,-9.5071,-9.5071,-9.5071,-9.5071,-9.5071,-9.5105,-9.5304,-9.5337,-9.5463,-9.5964,-9.6024,-9.6024,-9.6024,-9.6357,-9.6594,-9.6594,-9.6834,-9.702,-9.702,-9.702,-9.702,-9.702,-9.7768,-9.8247,-9.8247,-9.8247,-9.8247,-9.8247,-9.7436,-9.702,-9.702,-9.6861,-9.6807,-9.6807,-9.6605,-9.6284,-9.5804,-9.5031,-9.4585,-2.9419,-2.9861,-3.0979,-3.1592,-3.3784,0.0,-3.6222,-3.7511,-4.057,-4.7522,-4.7429,-4.8171,-5.4791,-5.6946,-5.7767,-5.7936,-6.3849,-7.0785,-7.7626,-8.1798,-8.4271,-8.4705,-8.5595,-8.6094,-8.6023,-8.5326,-8.4908,-8.4908,-8.5288,-8.5539,-8.5539,-8.5827,-8.7344,-9.0269,-9.0677,-9.2192,-9.5035,-9.5071,-9.5071,-9.5071,-9.5071,-9.5071,-9.5071,-9.5071,-9.5071,-9.5071,-9.5071,-9.5071,-9.5071,-9.5071,-9.5071,-9.5071,-9.5071,-9.5071,-9.5071,-9.5071,-9.5071,-9.5071,-9.5071,-9.5071,-9.5071,-9.5071,-9.5071,-9.5071,-9.5071,-9.5071,-9.5071,-9.5071,-9.5071,-9.5071,-9.5071,-9.5071,-9.5071,-9.5071,-9.5071,-9.5071,-9.5071,-9.5071,-9.5205,-9.5722,-9.5852,-9.5909,-9.6174,-9.6233,-9.6233,-9.6233,-9.6501,-9.6706,-9.6706,-9.6861,-9.702,-9.702,-9.702,-9.702,-9.702,-9.702,-9.7584,-9.8947,-9.7731,-9.7584,-9.8983,-9.7694,-9.702,-9.702,-9.702,-9.702,-9.702,-9.702,-9.621,-9.4662,-9.4331,-9.3446,-2.4388,-2.5203,-2.771,-3.3312,-3.2214,0.0,-5.1519,-5.2648,-5.3794,-6.691,-6.9369,-6.9474,-7.0373,-7.0685,-7.1063,-7.1881,-7.3882,-7.6955,-8.1727,-8.2941,-8.4407,-8.726,-8.6431,-8.5638,-8.5571,-8.5489,-8.5447,-8.5447,-8.5508,-8.5539,-8.5539,-8.6947,-8.8572,-9.0341,-9.1749,-9.3302,-9.5035,-9.5071,-9.5071,-9.5071,-9.5071,-9.5071,-9.5071,-9.5071,-9.5071,-9.5071,-9.5071,-9.5071,-9.5071,-9.5071,-9.5071,-9.5071,-9.5071,-9.5071,-9.5071,-9.5071,-9.5071,-9.5071,-9.5071,-9.5071,-9.5071,-9.5071,-9.5071,-9.5071,-9.5071,-9.5071,-9.5071,-9.5071,-9.5071,-9.5071,-9.5071,-9.5071,-9.5071,-9.5071,-9.5071,-9.5071,-9.5071,-9.5071,-9.537,-9.6335,-9.6509,-9.6594,-9.6824,-9.6878,-9.6878,-9.6878,-9.6904,-9.6968,-9.6968,-9.6994,-9.702,-9.702,-9.702,-9.702,-9.702,-9.702,-9.7094,-9.7278,-9.7094,-9.7094,-9.7278,-9.7094,-9.702,-9.702,-9.702,-9.702,-9.702,-9.702,-9.621,-9.4625,-9.3126,-9.2316,-2.2528,-2.4184,-2.6848,-3.0444,0.0,0.0,-4.7068,-5.042,-5.4505,-6.5988,-6.805,-6.8972,-7.2864,-7.3596,-7.3731,-7.4184,-7.6694,-7.9268,-8.1464,-8.4876,-8.7003,-8.6658,-8.7633,-8.7597,-8.5719,-8.5539,-8.5539,-8.5539,-8.5539,-8.5539,-8.5539,-8.7127,-8.8752,-9.0341,-9.1926,-9.3479,-9.5035,-9.5071,-9.5071,-9.5071,-9.5071,-9.5071,-9.5071,-9.5071,-9.5071,-9.5071,-9.5071,-9.5071,-9.5071,-9.5071,-9.5071,-9.5071,-9.5071,-9.5071,-9.5071,-9.5071,-9.5071,-9.5071,-9.5071,-9.5071,-9.5071,-9.5071,-9.5071,-9.5071,-9.5071,-9.5071,-9.5071,-9.5071,-9.5071,-9.5071,-9.5071,-9.5071,-9.5071,-9.5071,-9.5071,-9.5138,-9.5337,-9.5402,-9.5627,-9.6451,-9.6594,-9.6706,-9.6968,-9.702,-9.702,-9.702,-9.702,-9.702,-9.702,-9.702,-9.702,-9.702,-9.702,-9.702,-9.702,-9.702,-9.702,-9.702,-9.702,-9.702,-9.702,-9.702,-9.702,-9.702,-9.702,-9.702,-9.702,-9.702,-9.6689,-9.5989,-9.3347,-9.1137,-2.171,0.0,0.0,0.0,0.0,0.0,-4.8095,-5.2319,-5.7126,-6.55,-6.724,-6.8692,-7.3513,-7.4389,-7.4417,-7.4632,-7.78,-8.0548,-8.1364,-8.6096,-8.8842,-8.7091,-8.8933,-8.9294,-8.6513,-8.6622,-8.6513,-8.5575,-8.5972,-8.6008,-8.5539,-8.6694,-8.8283,-9.0341,-9.2323,-9.3913,-9.5035,-9.5071,-9.5071,-9.5071,-9.5071,-9.5071,-9.5071,-9.5071,-9.5071,-9.5071,-9.5071,-9.5071,-9.5071,-9.5071,-9.5071,-9.5071,-9.5071,-9.5071,-9.5071,-9.5071,-9.5071,-9.5071,-9.5071,-9.5071,-9.5071,-9.5071,-9.5071,-9.5071,-9.5071,-9.5071,-9.5071,-9.5071,-9.5071,-9.5071,-9.5071,-9.5138,-9.5205,-9.5205,-9.5268,-9.5398,-9.5691,-9.5816,-9.6061,-9.6585,-9.6734,-9.6789,-9.6968,-9.702,-9.702,-9.702,-9.702,-9.702,-9.702,-9.702,-9.702,-9.702,-9.702,-9.702,-9.702,-9.702,-9.702,-9.702,-9.702,-9.702,-9.702,-9.702,-9.702,-9.702,-9.702,-9.702,-9.702,-9.6645,-9.6424,-9.6284,-9.3104,-9.0018,0.0,0.0,0.0,-4.2255,-4.4823,-4.8763,-6.3081,-6.5469,-6.6209,-7.158,-7.3856,-7.4931,-7.5139,-7.5211,-7.5265,-7.555,-7.8445,-8.1218,-8.2873,-8.6008,-8.8644,-9.0088,-9.0341,-8.9727,-8.8138,-8.9366,-8.8933,-8.5755,-8.7055,-8.7236,-8.5611,-8.5575,-8.7055,-9.0269,-9.3374,-9.5035,-9.5071,-9.5071,-9.5071,-9.5071,-9.5071,-9.5071,-9.5071,-9.5071,-9.5071,-9.5071,-9.5071,-9.5071,-9.5071,-9.5071,-9.5071,-9.5071,-9.5071,-9.5071,-9.5071,-9.5071,-9.5071,-9.5071,-9.5071,-9.5071,-9.5071,-9.5071,-9.5071,-9.5071,-9.5071,-9.5071,-9.5071,-9.5071,-9.5071,-9.5071,-9.5071,-9.5337,-9.5596,-9.5596,-9.578,-9.5994,-9.6024,-9.6328,-9.6678,-9.6941,-9.6957,-9.6994,-9.702,-9.702,-9.702,-9.702,-9.702,-9.702,-9.702,-9.702,-9.702,-9.702,-9.702,-9.702,-9.702,-9.702,-9.702,-9.702,-9.702,-9.702,-9.702,-9.702,-9.702,-9.702,-9.702,-9.702,-9.702,-9.575,-9.4973,-9.4662,-9.1668,-8.9204,-2.7408,-3.2042,-3.7689,-4.5274,-4.9811,-5.448,-6.2417,-6.6548,-6.9821,-7.3642,-7.4848,-7.5241,-7.5241,-7.5294,-7.5405,-7.5607,-7.8445,-8.0923,-8.1538,-8.6225,-8.9402,-8.8897,-9.0666,-9.1316,-8.9763,-9.0088,-8.9944,-8.8824,-8.8319,-8.7777,-8.7236,-8.6116,-8.7019,-9.0269,-9.1388,-9.2941,-9.5035,-9.5071,-9.5071,-9.5071,-9.5071,-9.5071,-9.5071,-9.5071,-9.5071,-9.5071,-9.5071,-9.5071,-9.5071,-9.5071,-9.5071,-9.5071,-9.5071,-9.5071,-9.5071,-9.5071,-9.5071,-9.5071,-9.5071,-9.5071,-9.5071,-9.5071,-9.5071,-9.5071,-9.5071,-9.5071,-9.5071,-9.5071,-9.5071,-9.5105,-9.537,-9.5532,-9.5659,-9.5841,-9.5964,-9.6085,-9.6357,-9.6641,-9.6888,-9.6994,-9.702,-9.702,-9.702,-9.702,-9.702,-9.702,-9.702,-9.702,-9.702,-9.702,-9.702,-9.702,-9.702,-9.702,-9.702,-9.702,-9.702,-9.702,-9.702,-9.702,-9.702,-9.702,-9.702,-9.702,-9.702,-9.6723,-9.6086,-9.566,-9.4821,-9.3561,-9.1459,-9.0121,-3.2212,-3.6986,-4.1906,-4.981,-5.5104,-5.9521,-6.3701,-6.8147,-7.1987,-7.3992,-7.4848,-7.5241,-7.5241,-7.5347,-7.555,-7.5656,-7.8531,-8.0765,-8.0845,-8.6369,-9.0016,-8.9005,-9.1641,-9.2941,-9.1388,-9.1713,-9.1605,-9.0449,-8.998,-8.9222,-8.8102,-8.7019,-8.7633,-9.0305,-9.0377,-9.1893,-9.5035,-9.5071,-9.5071,-9.5071,-9.5071,-9.5071,-9.5071,-9.5071,-9.5071,-9.5071,-9.5071,-9.5071,-9.5107,-9.5649,-9.5969,-9.6139,-9.6585,-9.6836,-9.6936,-9.6802,-9.6804,-9.6804,-9.6804,-9.6407,-9.601,-9.6587,-9.601,-9.5143,-9.5721,-9.5504,-9.5105,-9.5238,-9.5271,-9.5337,-9.5691,-9.5785,-9.5878,-9.6144,-9.624,-9.6407,-9.6973,-9.7165,-9.719,-9.719,-9.7088,-9.702,-9.702,-9.702,-9.702,-9.702,-9.7113,-9.7139,-9.702,-9.7113,-9.7139,-9.702,-9.702,-9.702,-9.702,-9.702,-9.7036,-9.719,-9.719,-9.7265,-9.7352,-9.7339,-9.7339,-9.7339,-9.7339,-9.6477,-9.4715,-9.4275,-9.3417,-9.2182,-9.0619,-8.9835,-3.5989,-4.1055,-4.5947,-5.6008,-6.0764,-6.3852,-6.7391,-7.0567,-7.2808,-7.2986,-7.4206,-7.5241,-7.5241,-7.5434,-7.5656,-7.5768,-7.8638,-8.0845,-8.0845,-8.6369,-9.0377,-9.0377,-9.3157,-9.4493,-9.3013,-9.4168,-9.3843,-9.0846,-9.193,-9.1388,-8.8355,-8.8102,-8.8716,-9.0196,-9.0341,-9.1857,-9.489,-9.5035,-9.5071,-9.5071,-9.5071,-9.5071,-9.5071,-9.5071,-9.5071,-9.5105,-9.5068,-9.5141,-9.5321,-9.6838,-9.7727,-9.8275,-9.9468,-10.008,-10.0313,-10.0047,-9.9945,-9.9945,-9.998,-9.8897,-9.7779,-9.9438,-9.7884,-9.5608,-9.7051,-9.647,-9.5343,-9.5664,-9.5722,-9.5785,-9.5988,-9.6078,-9.6203,-9.6557,-9.6678,-9.6931,-9.7786,-9.7757,-9.7604,-9.7604,-9.7315,-9.7036,-9.7036,-9.7036,-9.7036,-9.7036,-9.7364,-9.7462,-9.7088,-9.7364,-9.7462,-9.7088,-9.7036,-9.7036,-9.7036,-9.7036,-9.7215,-9.758,-9.7604,-9.7705,-9.7957,-9.7978,-9.7941,-9.7866,-9.787,-9.6304,-9.3041,-9.1807,-9.0947,-9.0451,-8.9244,-8.8533,-4.0113,-4.9039,-5.5761,-6.2207,-6.4409,-6.5833,-6.9148,-7.0567,-7.1816,-7.417,-7.4955,-7.5271,-7.5383,-7.5521,-7.5656,-7.5768,-7.8638,-8.0845,-8.0845,-8.6369,-9.0377,-9.0377,-9.3157,-9.489,-9.4493,-9.4818,-9.471,-9.3915,-9.3157,-9.1857,-8.9908,-8.868,-8.8211,-8.8644,-8.9799,-9.1316,-9.3302,-9.4493,-9.5071,-9.5071,-9.5071,-9.5071,-9.5071,-9.5071,-9.5205,-9.5499,-9.5686,-9.6502,-9.7667,-9.8068,-9.9005,-10.0193,-10.0498,-10.0676,-10.074,-10.068,-10.0448,-10.0248,-10.055,-10.0031,-9.9435,-10.0558,-10.0235,-9.9328,-9.8956,-9.8626,-9.8129,-9.6981,-9.6657,-9.6663,-9.672,-9.6966,-9.7192,-9.7315,-9.7459,-9.7698,-9.7936,-9.7915,-9.7888,-9.7888,-9.7786,-9.772,-9.772,-9.772,-9.772,-9.772,-9.7786,-9.783,-9.772,-9.7786,-9.7808,-9.772,-9.772,-9.772,-9.772,-9.772,-9.7764,-9.7888,-9.7888,-9.7894,-9.7978,-9.7978,-9.7419,-9.6263,-9.6703,-9.5294,-9.1955,-9.1619,-9.0755,-8.9419,-8.9065,-8.8878,-3.9072,-4.9734,-5.9354,-6.4461,-6.5715,-6.6571,-6.9818,-7.0567,-7.1459,-7.4599,-7.5265,-7.5347,-7.5578,-7.5664,-7.574,-7.5879,-7.8117,-8.0086,-8.0772,-8.5755,-8.9619,-9.0305,-9.3157,-9.5071,-9.5071,-9.5071,-9.5071,-9.5071,-9.424,-9.3085,-9.1496,-8.9908,-8.9077,-8.9077,-8.9258,-9.0449,-9.2688,-9.3584,-9.4379,-9.5071,-9.5071,-9.5071,-9.5071,-9.5215,-9.5877,-9.6903,-9.7088,-9.8062,-9.9626,-10.0319,-10.1216,-10.2218,-10.2792,-10.3116,-10.32,-10.3189,-10.3059,-10.2929,-10.3328,-10.2731,-10.2077,-10.3293,-10.2628,-10.1258,-10.0649,-10.0011,-9.9227,-9.7672,-9.7263,-9.7274,-9.7395,-9.7593,-9.7764,-9.7735,-9.7867,-9.806,-9.8333,-9.8388,-9.8351,-9.8256,-9.808,-9.7978,-9.7978,-9.7978,-9.7978,-9.7978,-9.8138,-9.8178,-9.7999,-9.8138,-9.8178,-9.7999,-9.7978,-9.7978,-9.7978,-9.7978,-9.804,-9.8217,-9.8217,-9.7976,-9.7397,-9.8052,-9.7303,-9.5002,-9.4607,-9.3088,-9.047,-9.047,-8.9981,-8.9041,-8.9041,-8.9041,-3.792,-4.8264,-5.9354,-6.4461,-6.5715,-6.6571,-6.9818,-7.0567,-7.1459,-7.4592,-7.5383,-7.5557,-7.6028,-7.612,-7.6248,-7.6593,-7.7884,-7.932,-8.0664,-8.4816,-8.8319,-8.9871,-9.2832,-9.4818,-9.5035,-9.5071,-9.5071,-9.5071,-9.5071,-9.4385,-9.2796,-9.1244,-9.0269,-9.0088,-8.8752,-8.9366,-9.2074,-9.2525,-9.3393,-9.4743,-9.4999,-9.5141,-9.5172,-9.5627,-9.6672,-9.8299,-9.833,-9.9237,-10.0809,-10.2161,-10.3158,-10.4019,-10.5166,-10.5889,-10.6306,-10.6337,-10.6322,-10.6351,-10.6734,-10.5915,-10.4937,-10.6465,-10.5064,-10.2746,-10.225,-10.1202,-9.9775,-9.8188,-9.7771,-9.7814,-9.7999,-9.808,-9.81,-9.806,-9.808,-9.8257,-9.8806,-9.8938,-9.8876,-9.8644,-9.8333,-9.81,-9.81,-9.81,-9.81,-9.81,-9.8408,-9.8481,-9.814,-9.8408,-9.8481,-9.814,-9.81,-9.81,-9.81,-9.81,-9.8256,-9.8591,-9.8609,-9.8,-9.6682,-9.7923,-9.6998,-9.3464,-9.2186,-9.0719,-8.9041,-8.9041,-8.9041,-8.9041,-8.9041,-8.9041,-4.9357,-5.5187,-5.9354,-6.4461,-6.5715,-6.6571,-6.9818,-7.0567,-7.148,-7.4703,-7.5492,-7.5966,-7.7316,-7.7682,-7.8229,-7.9769,-8.0267,-8.0556,-8.0808,-8.3805,-8.6586,-8.8247,-9.1207,-9.3627,-9.4927,-9.5071,-9.5071,-9.5071,-9.5071,-9.4385,-9.2796,-9.1244,-8.9799,-8.8499,-8.8174,-8.8283,-8.886,-9.144,-9.2847,-9.3172,-9.4774,-9.563,-9.5868,-9.6239,-9.6614,-9.694,-9.7156,-9.8222,-9.9776,-10.007,-10.179,-10.4333,-10.475,-10.5836,-10.7137,-10.7459,-10.7385,-10.716,-10.7544,-10.7075,-10.6497,-10.7622,-10.7497,-10.6415,-10.4016,-10.3292,-10.261,-9.954,-9.8712,-9.8692,-9.85,-9.8606,-9.8725,-9.85,-9.8623,-9.8806,-9.8922,-9.8938,-9.8922,-9.8891,-9.8844,-9.8774,-9.8774,-9.8774,-9.8774,-9.8774,-9.8806,-9.886,-9.8774,-9.8806,-9.886,-9.8774,-9.8774,-9.8774,-9.8774,-9.8774,-9.879,-9.8876,-9.8876,-9.8178,-9.666,-9.6885,-9.478,-9.0019,-9.0983,-9.0719,-8.9041,-8.9041,-8.9041,-8.9041,-8.9041,-8.9041,-4.5303,-5.1939,-5.7798,-6.1218,-6.3896,-6.6571,-6.9818,-7.0623,-7.1592,-7.4876,-7.6246,-7.7215,-7.8092,-7.9006,-7.9856,-8.0736,-8.0845,-8.0845,-8.0845,-8.4311,-8.7127,-8.7958,-9.1532,-9.424,-9.4999,-9.5071,-9.5071,-9.5071,-9.5071,-9.471,-9.3988,-9.2435,-9.0882,-8.933,-8.8613,-8.8179,-8.803,-8.9684,-9.136,-9.3054,-9.3975,-9.4987,-9.6041,-9.6576,-9.7283,-9.8167,-9.8267,-9.9757,-10.2078,-10.2078,-10.3478,-10.5606,-10.5963,-10.659,-10.7371,-10.7982,-10.8076,-10.7973,-10.8286,-10.8132,-10.7932,-10.8403,-10.8481,-10.7788,-10.4674,-10.3855,-10.3314,-9.9884,-9.8945,-9.8907,-9.8795,-9.886,-9.8907,-9.8795,-9.886,-9.8938,-9.8938,-9.8938,-9.8938,-9.8938,-9.8938,-9.8938,-9.8938,-9.8938,-9.8938,-9.8938,-9.8938,-9.8938,-9.8938,-9.8938,-9.8938,-9.8938,-9.8938,-9.8938,-9.8938,-9.8938,-9.8938,-9.8938,-9.8938,-9.7848,-9.5381,-9.4442,-9.2411,-8.9079,-8.9831,-8.9831,-8.9041,-8.9041,-8.9041,-8.9041,-8.9041,-8.9041,-4.2349,-4.9722,-5.7586,-5.9674,-6.2469,-6.5715,-6.9675,-7.0643,-7.1568,-7.4438,-7.6187,-7.7516,-7.8767,-7.9473,-8.0267,-8.1639,-8.1314,-8.0845,-8.0845,-8.413,-8.673,-8.7416,-9.1099,-9.3952,-9.4963,-9.5071,-9.5071,-9.5071,-9.5138,-9.5172,-9.5172,-9.3751,-9.2191,-9.0599,-8.9248,-8.8298,-8.7739,-8.8243,-8.9999,-9.2901,-9.3272,-9.4403,-9.6157,-9.6736,-9.7694,-9.8983,-9.8983,-10.0457,-10.2815,-10.322,-10.4308,-10.5849,-10.6575,-10.7174,-10.7619,-10.8303,-10.8557,-10.8576,-10.8756,-10.8878,-10.8862,-10.8868,-10.8848,-10.8223,-10.4886,-10.3905,-10.3277,-9.9878,-9.8938,-9.8938,-9.8938,-9.8938,-9.8938,-9.8938,-9.8938,-9.8938,-9.8938,-9.8938,-9.8938,-9.8938,-9.8938,-9.8938,-9.8938,-9.9239,-9.9351,-9.9013,-9.8938,-9.9088,-9.9427,-9.9163,-9.8938,-9.8938,-9.8938,-9.8938,-9.8938,-9.8938,-9.8938,-9.8938,-9.8637,-9.7148,-9.4216,-9.2787,-9.1133,-8.9079,-8.9041,-8.9041,-8.9041,-8.9041,-8.9041,-8.9041,-8.9041,-8.9041,-5.3195,-5.7432,-6.1267,-6.4324,-6.3254,-6.3065,-6.914,-7.0643,-7.1254,-7.2964,-7.3653,-7.5256,-7.964,-7.8269,-7.8353,-8.4166,-8.2722,-8.0845,-8.0845,-8.1206,-8.2578,-8.543,-8.7488,-9.0377,-9.4638,-9.5071,-9.5071,-9.5071,-9.537,-9.5564,-9.5564,-9.4318,-9.2828,-9.1122,-8.9612,-8.8116,-8.6639,-8.8086,-8.972,-9.1535,-9.3235,-9.4927,-9.6589,-9.6847,-9.7094,-9.7242,-9.7242,-9.7426,-9.7794,-9.9352,-10.1104,-10.3006,-10.4839,-10.6705,-10.8401,-10.8685,-10.879,-10.8807,-10.8862,-10.8878,-10.8862,-10.8862,-10.8862,-10.8277,-10.4968,-10.3991,-10.3277,-9.9878,-9.8938,-9.8938,-9.8938,-9.8938,-9.8938,-9.8938,-9.8938,-9.8938,-9.8938,-9.8938,-9.8938,-9.8938,-9.8938,-9.8938,-9.8938,-10.0231,-10.072,-9.9163,-9.8938,-9.9517,-10.1021,-9.9893,-9.8938,-9.8938,-9.8938,-9.8938,-9.8938,-9.8938,-9.8938,-9.8938,-9.7585,-9.6021,-9.4141,-9.3915,-9.2336,-8.9079,-8.9041,-8.9041,-8.9041,-8.9041,-8.9041,-8.9041,-8.9041,-8.9041,-4.366,-4.8238,-5.2915,-5.5276,-5.9888,-6.4253,-6.5858,-6.7856,-7.01,-7.28,-7.5004,-7.6873,-7.8001,-7.8627,-7.9548,-8.1381,-8.1224,-8.052,-7.9581,-8.1061,-8.3083,-8.5286,-8.7849,-9.0919,-9.471,-9.5071,-9.5071,-9.5071,-9.5205,-9.5402,-9.5596,-9.5172,-9.4197,-9.2734,-9.1333,-8.9725,-8.7916,-8.7745,-8.8496,-9.0213,-9.188,-9.3653,-9.5447,-9.5547,-9.6099,-9.702,-9.702,-9.702,-9.7231,-10.0085,-10.2287,-10.4069,-10.6325,-10.7741,-10.848,-10.8776,-10.8878,-10.8878,-10.8878,-10.8878,-10.8878,-10.8878,-10.8878,-10.8277,-10.4968,-10.3991,-10.3277,-9.9878,-9.8938,-9.8938,-9.8938,-9.8938,-9.8938,-9.8938,-9.8938,-9.8938,-9.8938,-9.8938,-9.8938,-9.8938,-9.8938,-9.8938,-9.8938,-9.9517,-9.9743,-9.9051,-9.8938,-9.9201,-9.9855,-9.9351,-9.8938,-9.8938,-9.8938,-9.8938,-9.8938,-9.8938,-9.8938,-9.8938,-9.8336,-9.6397,-9.2712,-9.1584,-9.0433,-8.9041,-8.9041,-8.9041,-8.9041,-8.9041,-8.9041,-8.9041,-8.9041,-8.9041,-3.8637,-4.2943,-4.8004,-5.0212,-5.6903,-6.2897,-6.2718,-6.4507,-6.7317,-7.1112,-7.3977,-7.5971,-7.6506,-7.7985,-7.9316,-7.9736,-8.0945,-8.1179,-7.9465,-8.1531,-8.3589,-8.4708,-8.7705,-9.0919,-9.406,-9.4782,-9.5071,-9.5071,-9.5172,-9.5402,-9.5754,-9.5847,-9.5331,-9.4043,-9.2624,-9.101,-8.9138,-8.7701,-8.7872,-8.9536,-9.0644,-9.2118,-9.3925,-9.4441,-9.551,-9.702,-9.702,-9.702,-9.7194,-9.9918,-10.2323,-10.4639,-10.7381,-10.8499,-10.8614,-10.8811,-10.8878,-10.8878,-10.8878,-10.8878,-10.8878,-10.8878,-10.8878,-10.8277,-10.4968,-10.3991,-10.3277,-9.9878,-9.8938,-9.8938,-9.8938,-9.8938,-9.8938,-9.8938,-9.8938,-9.8938,-9.8938,-9.8938,-9.8938,-9.8938,-9.8938,-9.8938,-9.8938,-9.9351,-9.9517,-9.9013,-9.9802,-10.0066,-9.9088,-9.9389,-9.9517,-9.9013,-9.8938,-9.8938,-9.8938,-9.8938,-9.875,-9.8261,-9.7773,-9.572,-9.1697,-9.0433,-8.953,-8.9041,-8.9041,-8.9041,-8.9041,-8.9041,-8.9041,-8.9041,-8.9041,-8.9041,-4.3834,-4.634,-5.0073,-5.3214,-5.5262,-5.7273,-6.0352,-6.1066,-6.2482,-6.7301,-6.8954,-7.0911,-7.5717,-7.5764,-7.6475,-8.0712,-8.2828,-8.3233,-8.1139,-8.2217,-8.3192,-8.3228,-8.608,-8.9294,-9.2435,-9.4132,-9.5071,-9.5071,-9.5402,-9.5754,-9.6024,-9.6386,-9.5999,-9.471,-9.3016,-9.1358,-8.9811,-8.8116,-8.8116,-8.9811,-8.9811,-9.0621,-9.2205,-9.3925,-9.551,-9.702,-9.702,-9.702,-9.7047,-9.745,-9.9905,-10.3741,-10.7149,-10.8632,-10.8862,-10.8862,-10.8878,-10.8878,-10.8878,-10.8878,-10.8878,-10.8878,-10.8878,-10.8277,-10.4968,-10.3991,-10.3277,-9.9878,-9.8938,-9.8938,-9.8938,-9.8938,-9.8938,-9.8938,-9.8938,-9.8938,-9.8938,-9.8938,-9.8938,-9.8938,-9.8938,-9.8938,-9.8938,-10.0344,-10.087,-9.9201,-10.181,-10.2713,-9.9351,-10.0382,-10.0795,-9.9126,-9.8938,-9.8938,-9.8938,-9.8938,-9.8261,-9.6735,-9.5043,-9.3351,-9.1622,-9.1547,-9.0719,-8.9079,-8.9041,-8.9041,-8.9041,-8.9041,-8.9041,-8.9041,-8.9041,-8.9041,-4.0383,-4.3365,-4.6917,-5.0057,-5.3685,-5.7346,-6.0575,-6.2976,-6.5357,-6.8412,-6.9306,-7.0822,-7.512,-7.8185,-8.0267,-8.0721,-8.0984,-8.0862,-7.9907,-7.9222,-7.9875,-8.2853,-8.5033,-8.803,-9.2327,-9.4132,-9.5172,-9.5435,-9.5564,-9.5847,-9.6386,-9.6537,-9.6513,-9.6257,-9.4699,-9.3078,-9.1395,-8.9811,-8.8706,-8.8079,-8.8079,-8.8963,-9.0584,-9.2168,-9.3852,-9.5473,-9.6541,-9.702,-9.712,-9.8585,-10.0739,-10.3503,-10.7245,-10.8756,-10.8878,-10.8878,-10.8878,-10.8878,-10.8878,-10.8878,-10.8878,-10.8878,-10.8878,-10.8465,-10.636,-10.4893,-10.354,-10.1284,-9.9855,-9.8938,-9.8938,-9.8938,-9.8938,-9.8938,-9.8938,-9.8938,-9.8938,-9.8938,-9.8938,-9.8938,-9.8938,-9.8938,-9.8938,-9.9389,-9.9555,-9.9013,-9.984,-10.0141,-9.9088,-9.9389,-9.9555,-9.9013,-9.8938,-9.8938,-9.8938,-9.8938,-9.8261,-9.6697,-9.3915,-9.1584,-8.9906,-8.9831,-8.9568,-8.9041,-8.9041,-8.9041,-8.9041,-8.9041,-8.9041,-8.9041,-8.9041,-8.9041,-4.1092,-4.374,-4.6542,-5.0279,-5.2573,-5.4625,-5.7235,-5.8871,-6.042,-6.2445,-6.3475,-6.5597,-7.0839,-7.7375,-8.1455,-7.9805,-8.0391,-8.1115,-8.1312,-8.0424,-8.0499,-8.2587,-8.529,-8.8088,-9.0904,-9.3188,-9.4746,-9.5366,-9.5568,-9.5847,-9.6357,-9.6537,-9.6697,-9.6994,-9.4883,-9.32,-9.2132,-8.9958,-8.8337,-8.7269,-8.7269,-8.819,-8.9848,-9.1395,-9.3078,-9.4773,-9.6475,-9.7215,-9.7314,-9.8827,-10.0869,-10.3432,-10.6002,-10.7788,-10.8878,-10.8878,-10.8878,-10.8878,-10.8878,-10.8878,-10.8878,-10.8878,-10.8878,-10.8578,-10.6999,-10.5344,-10.3653,-10.1976,-10.0231,-9.8938,-9.8938,-9.8938,-9.8938,-9.8938,-9.8938,-9.8938,-9.8938,-9.8938,-9.8938,-9.8938,-9.8938,-9.8938,-9.8938,-9.8938,-9.8938,-9.8938,-9.8449,-9.8261,-9.8863,-9.8412,-9.8261,-9.8863,-9.8938,-9.8712,-9.8111,-9.8073,-9.7111,-9.4855,-9.2712,-9.0795,-8.9116,-8.9041,-8.9041,-8.9041,-8.9041,-8.9041,-8.9041,-8.9041,-8.9041,-8.9041,-8.9041,-8.9031,-4.4463,-4.6353,-4.8083,-5.247,-5.1813,-5.0452,-5.1761,-5.0773,-4.9986,-5.1504,-5.3154,-5.6495,-6.3534,-7.3228,-7.9774,-7.8579,-8.0901,-8.3307,-8.4458,-8.4529,-8.3894,-8.2384,-8.6374,-8.9095,-8.8719,-9.1639,-9.4021,-9.5123,-9.5559,-9.5872,-9.6078,-9.6472,-9.6789,-9.6994,-9.4047,-9.2353,-9.2132,-8.9148,-8.7551,-8.7316,-8.734,-8.8248,-8.9944,-9.1493,-9.3116,-9.4838,-9.6758,-9.7604,-9.765,-9.8423,-10.0595,-10.3479,-10.3968,-10.6096,-10.8878,-10.8878,-10.8878,-10.8878,-10.8878,-10.8878,-10.8878,-10.8878,-10.8878,-10.8578,-10.7111,-10.542,-10.3653,-10.2089,-10.0344,-9.8938,-9.8938,-9.8938,-9.8938,-9.8938,-9.8938,-9.8938,-9.8938,-9.8938,-9.8938,-9.8938,-9.8938,-9.8938,-9.8938,-9.8938,-9.8938,-9.8938,-9.7622,-9.7148,-9.86,-9.7524,-9.7111,-9.8449,-9.8787,-9.8299,-9.6735,-9.6697,-9.5306,-9.1772,-9.1434,-9.0644,-8.9079,-8.9041,-8.9041,-8.9041,-8.9041,-8.9041,-8.9055,-8.9055,-8.9055,-8.9031,-8.9031,-8.9133,-3.9315,-4.2433,-4.5557,-4.6668,-5.106,-5.4876,-5.4173,-5.168,-4.9505,-4.9159,-4.946,-5.1547,-5.7423,-6.467,-7.2577,-8.1043,-8.2014,-8.2064,-8.3275,-8.3381,-8.309,-8.2318,-8.5441,-8.8056,-8.912,-9.2169,-9.4831,-9.6557,-9.6852,-9.7003,-9.7062,-9.724,-9.7277,-9.6984,-9.6284,-9.4662,-9.2132,-9.1358,-8.9882,-8.7738,-8.7918,-8.8894,-9.0587,-9.2165,-9.3801,-9.5496,-9.716,-9.7872,-9.8005,-9.9753,-10.1644,-10.3591,-10.5283,-10.7111,-10.8878,-10.8878,-10.8878,-10.8878,-10.8878,-10.8878,-10.8878,-10.8878,-10.8878,-10.8803,-10.8427,-10.6284,-10.3916,-10.3502,-10.1246,-9.8938,-9.8938,-9.8938,-9.8938,-9.8938,-9.8938,-9.8938,-9.8938,-9.8938,-9.8938,-9.8938,-9.8938,-9.8938,-9.8938,-9.8938,-9.8938,-9.8938,-9.7622,-9.6735,-9.7111,-9.6848,-9.6246,-9.5344,-9.7434,-9.8299,-9.6735,-9.7697,-9.6434,-9.1847,-9.032,-8.9455,-8.9041,-8.9041,-8.9041,-8.9041,-8.9041,-8.9095,-8.9196,-8.9196,-8.9207,-8.9336,-8.9336,-8.9358,-4.027,-4.3908,-4.6145,-4.2486,-4.654,-5.044,-4.6726,-4.5037,-4.3736,-4.1726,-4.1424,-4.4304,-5.3426,-5.5644,-6.0425,-7.3679,-7.5712,-7.717,-8.158,-8.2196,-8.2368,-8.2886,-8.513,-8.7178,-8.8567,-9.1718,-9.4307,-9.5824,-9.6917,-9.7493,-9.7496,-9.7682,-9.7645,-9.7459,-9.6731,-9.5068,-9.2424,-9.2551,-9.1062,-8.8056,-8.8175,-8.8754,-8.9686,-9.2015,-9.3617,-9.4606,-9.7132,-9.8237,-9.8331,-9.96,-10.1522,-10.3808,-10.492,-10.6811,-10.8878,-10.8878,-10.8878,-10.8878,-10.8878,-10.8878,-10.8878,-10.8878,-10.839,-10.7788,-10.7788,-10.5457,-10.2825,-10.2825,-10.0983,-9.8938,-9.8938,-9.8938,-9.8938,-9.8938,-9.8938,-9.8938,-9.8938,-9.8938,-9.8938,-9.8938,-9.8938,-9.8938,-9.8938,-9.8938,-9.8675,-9.796,-9.6509,-9.5457,-9.5457,-9.4765,-9.4239,-9.4103,-9.5667,-9.6682,-9.6622,-9.666,-9.5569,-9.2862,-9.1847,-9.0686,-8.9171,-8.9133,-8.9121,-8.9183,-8.9183,-8.9256,-8.9325,-8.9325,-8.932,-8.942,-8.942,-8.944,-4.262,-4.6486,-4.7829,-4.1074,-4.2268,-4.3564,-3.7642,-3.6876,-3.6443,-3.3195,-3.2734,-3.6436,-4.8126,-4.6664,-4.7984,-6.0969,-6.5767,-7.0913,-7.9638,-8.1321,-8.2255,-8.3938,-8.5321,-8.6605,-8.787,-9.1017,-9.3461,-9.4661,-9.6605,-9.7727,-9.7705,-9.7936,-9.8019,-9.7978,-9.6694,-9.4989,-9.2899,-9.3133,-9.157,-8.8288,-8.8342,-8.8509,-8.8845,-9.1906,-9.3399,-9.381,-9.7171,-9.8609,-9.8626,-9.886,-10.0795,-10.3615,-10.3878,-10.5833,-10.854,-10.8766,-10.8878,-10.8878,-10.8878,-10.8878,-10.8841,-10.8578,-10.76,-10.6472,-10.6209,-10.3953,-10.1412,-10.1134,-10.0043,-9.8938,-9.8938,-9.8938,-9.8938,-9.8938,-9.8938,-9.8938,-9.8938,-9.8938,-9.8938,-9.8938,-9.8938,-9.8938,-9.8938,-9.8938,-9.8412,-9.6848,-9.5156,-9.399,-9.3727,-9.266,-9.2336,-9.3229,-9.4057,-9.4997,-9.6125,-9.5185,-9.4282,-9.3756,-9.3746,-9.2384,-8.9381,-8.9268,-8.9314,-8.942,-8.942,-8.943,-8.944,-8.944,-8.945,-8.947,-8.947,-8.9545,-3.8769,-4.3339,-4.7626,-4.6315,-4.5542,-4.4137,-4.0505,-3.6741,-3.3087,-2.9948,-2.9428,-3.0622,-3.4213,-3.8752,-4.3231,-4.7101,-5.6158,-6.659,-7.7559,-8.1582,-8.3975,-8.5583,-8.5957,-8.6763,-8.8393,-9.1494,-9.4109,-9.5828,-9.7565,-9.8463,-9.8256,-9.8389,-9.8332,-9.7978,-9.7717,-9.6309,-9.3583,-9.3799,-9.2127,-8.8583,-8.8804,-8.9681,-9.1108,-9.3061,-9.4713,-9.6178,-9.8087,-9.8891,-9.8891,-9.8922,-10.0081,-10.2014,-10.3427,-10.5194,-10.7036,-10.839,-10.8878,-10.8878,-10.8878,-10.8878,-10.8653,-10.7299,-10.6735,-10.6247,-10.4818,-10.3013,-10.1171,-9.9743,-9.9126,-9.8938,-9.8938,-9.8938,-9.8938,-9.8938,-9.8938,-9.8938,-9.8938,-9.8938,-9.8938,-9.8938,-9.8938,-9.8938,-9.8938,-9.8938,-9.8412,-9.6848,-9.5156,-9.3539,-9.2111,-9.3065,-9.2857,-9.0251,-9.383,-9.5902,-9.4733,-9.5699,-9.5185,-9.2285,-9.2206,-9.1406,-8.9465,-8.9389,-8.94,-8.942,-8.942,-8.946,-8.9581,-8.9581,-8.9623,-8.9731,-8.9731,-8.9738,-4.0303,-4.402,-4.7173,-4.5375,-4.3736,-4.1732,-3.8535,-3.5456,-3.2377,-2.9326,-2.8749,-2.9916,-3.3651,-3.5362,-3.8891,-4.7017,-5.3541,-6.1019,-7.0753,-7.655,-8.0723,-8.319,-8.4274,-8.5471,-8.7116,-9.0308,-9.2996,-9.4804,-9.6554,-9.7824,-9.8637,-9.8708,-9.8675,-9.8516,-9.8516,-9.7444,-9.5289,-9.4458,-9.2782,-9.02,-8.94,-8.9455,-9.0245,-9.1923,-9.3652,-9.5344,-9.6998,-9.8148,-9.8938,-9.8938,-9.9931,-10.1638,-10.3314,-10.5006,-10.6735,-10.8277,-10.8878,-10.8878,-10.8878,-10.8878,-10.8728,-10.8014,-10.6585,-10.5006,-10.4217,-10.2149,-9.9931,-9.9163,-9.8938,-9.8938,-9.8938,-9.8938,-9.8938,-9.8938,-9.9013,-9.9033,-9.9033,-9.9103,-9.9156,-9.9156,-9.9156,-9.9156,-9.9156,-9.9156,-9.8327,-9.584,-9.4784,-9.3352,-9.0726,-9.1139,-9.106,-8.9487,-9.1417,-9.2829,-9.2888,-9.375,-9.358,-9.1977,-9.1908,-9.1185,-8.9496,-8.947,-8.9498,-8.9498,-8.959,-8.9632,-8.9709,-8.9709,-8.9731,-8.9804,-8.9804,-8.9804,-4.5519,0.0,-4.9531,-4.7059,-4.4629,-4.1926,0.0,-3.5653,-3.2999,-2.9534,-2.8881,-3.0145,-3.4231,-3.326,-3.5263,-4.5896,-5.0026,-5.4935,-6.3524,-7.0118,-7.5862,-8.067,-8.2405,-8.3991,-8.5952,-8.9199,-9.1752,-9.3215,-9.523,-9.6982,-9.8336,-9.875,-9.8938,-9.8938,-9.8938,-9.8186,-9.6622,-9.493,-9.3238,-9.1547,-8.9831,-8.9041,-8.9079,-9.0757,-9.2487,-9.4178,-9.587,-9.7524,-9.8938,-9.8938,-9.9705,-10.1058,-10.3164,-10.478,-10.6172,-10.8127,-10.8878,-10.8878,-10.8878,-10.8878,-10.8803,-10.8427,-10.6059,-10.3314,-10.2938,-10.1021,-9.8938,-9.8938,-9.8968,-9.8998,-9.8998,-9.9027,-9.9056,-9.9056,-9.9103,-9.9182,-9.9182,-9.927,-9.9329,-9.9329,-9.9329,-9.9329,-9.9329,-9.9329,-9.8208,-9.496,-9.447,-9.3261,-8.9836,-8.9782,-8.9885,-8.9527,-8.9837,-9.0594,-9.1727,-9.1681,-9.1707,-9.1943,-9.1661,-9.084,-8.9564,-8.9598,-8.9632,-8.9632,-8.9731,-8.9804,-8.9804,-8.9804,-8.9804,-8.9804,-8.9804,-8.9804,0.0,-5.7107,-5.7501,-5.728,-5.3671,-4.8923,-4.4216,-3.9501,0.0,-2.9941,-2.9135,-2.9428,-2.9783,-3.1057,-3.2821,-3.5227,-4.0911,-4.8456,-5.8241,-6.3972,-7.0665,-8.0109,-8.1342,-8.2698,-8.5958,-8.9252,-9.1319,-9.1679,-9.466,-9.6494,-9.6758,-9.8148,-9.8938,-9.8938,-9.8938,-9.8186,-9.6622,-9.493,-9.3238,-9.1547,-8.9831,-8.9041,-8.9079,-9.0757,-9.2487,-9.4178,-9.587,-9.7524,-9.8938,-9.8938,-9.9013,-9.9427,-10.2713,-10.4066,-10.4555,-10.7675,-10.8878,-10.8878,-10.8878,-10.8878,-10.8615,-10.7149,-10.4404,-10.1359,-9.978,-9.9126,-9.8938,-9.8938,-9.9004,-9.9116,-9.9116,-9.9221,-9.9306,-9.9306,-9.9317,-9.9317,-9.9317,-9.9329,-9.9329,-9.9329,-9.9329,-9.9329,-9.9329,-9.9329,-9.8208,-9.496,-9.447,-9.3261,-8.9836,-9.0887,-9.1347,-8.9776,-9.1123,-9.2101,-9.2106,-9.0783,-9.0595,-9.2057,-9.0769,-8.9897,-8.9783,-8.979,-8.979,-8.979,-8.9797,-8.9804,-8.9804,-8.9804,-8.9804,-8.9804,-8.9804,-8.9804,-5.9121,-6.0357,-6.0765,-5.8802,-5.4577,-4.9911,-4.6059,-4.0598,-3.5274,-3.1438,-2.9941,-2.9706,-3.084,-3.0741,-3.3382,-4.2166,-4.4875,-4.9699,-6.0607,-6.5543,-6.9805,-7.4539,-7.9646,-8.3322,-8.4626,-8.7744,-9.0221,-9.1468,-9.2723,-9.3879,-9.4968,-9.6585,-9.7487,-9.7487,-9.7487,-9.766,-9.8073,-9.5419,-9.3765,-9.3088,-9.0357,-8.9041,-8.9041,-8.9681,-9.1471,-9.4103,-9.478,-9.6509,0.0,-9.8938,-9.8938,-9.9163,-10.151,-10.3051,-10.4254,-10.6547,-10.8014,-10.8878,-10.8878,-10.8878,-10.8615,-10.7036,-10.5683,-10.4104,-10.1359,-10.057,-10.0431,-9.9471,-9.9221,-9.9258,-9.9258,-9.9294,-9.9329,-9.9329,-9.9396,-9.9448,-9.9448,-9.9536,-9.9582,-9.9582,-9.9582,-9.9582,-9.9582,-9.9582,-9.8485,-9.5193,-9.4702,-9.3491,-9.0094,-9.0261,-9.0443,-8.9797,-9.0334,-9.0737,-9.0685,-9.0117,-9.0055,-9.0632,-9.0124,-8.9804,-8.9804,-8.9804,-8.9804,-8.9804,-8.9804,-8.9804,-8.9804,-8.9804,-8.9804,-8.9804,-8.9804,-8.9804,-6.3257,-6.3987,-6.4399,-6.2219,-5.8374,-5.3797,-4.8948,-4.3176,-3.7546,-3.2791,-3.0527,-2.9808,-3.1052,-3.0771,-3.3943,-4.5045,-4.6857,-5.1046,-6.3038,-6.6739,-6.9394,-7.2572,-7.7978,-8.1652,-8.2192,-8.5819,-8.8834,-9.0611,-9.125,-9.2068,-9.3238,-9.4893,-9.5569,-9.5043,-9.6058,-9.7111,-9.8186,-9.5983,-9.4592,-9.4028,-9.1171,-8.9568,-8.9041,-8.9041,-9.087,-9.4066,-9.4066,-9.5945,-9.8938,-9.8938,-9.8938,-9.9126,-10.0795,-10.2164,-10.3465,-10.572,-10.7187,-10.8202,-10.869,-10.8878,-10.8615,-10.7036,-10.651,-10.5887,-10.2549,-10.1626,-10.1383,-9.977,-9.9363,-9.9396,-9.9396,-9.9417,-9.9448,-9.9448,-9.9536,-9.9591,-9.9591,-9.968,-9.972,-9.972,-9.972,-9.972,-9.972,-9.972,-9.8773,-9.6008,-9.5175,-9.3812,-9.0978,-9.0145,-8.9804,-8.9804,-8.9804,-9.0031,-9.0562,-9.0107,-9.0031,-9.0562,-9.0107,-8.9804,-8.9804,-8.9804,-8.9804,-8.9804,-8.9804,-8.9804,-8.9804,-8.9804,-8.9804,-8.9804,-8.9804,-8.9804,-6.7959,-6.8708,-6.9006,-6.9006,-6.6465,-6.1804,-5.3578,-4.7895,-4.1996,-3.3769,-3.0734,-2.9569,-2.9569,-3.0958,-3.4248,-4.0791,-4.4688,-5.1457,-6.462,-6.649,-6.8958,-7.5577,-7.6363,-7.7065,-7.8784,-8.3485,-8.7179,-8.8877,-9.0583,-9.1547,-9.1547,-9.3126,-9.3276,-9.1622,-9.4817,-9.6585,-9.6622,-9.6622,-9.5757,-9.4066,-9.2374,-9.0644,-8.9041,-8.9041,-9.087,-9.4066,-9.4066,-9.5945,-9.8938,-9.8938,-9.8938,-9.9126,-10.0795,-10.145,-10.1901,-10.5232,-10.6472,-10.6735,-10.8277,-10.8841,-10.8615,-10.7036,-10.651,-10.5903,-10.2681,-10.1811,-10.153,-9.9831,-9.9465,-9.9545,-9.9545,-9.9617,-9.972,-9.972,-9.972,-9.972,-9.972,-9.972,-9.972,-9.972,-9.972,-9.972,-9.972,-9.972,-9.9152,-9.741,-9.5857,-9.4228,-9.2524,-9.0827,-8.9804,-8.9804,-8.9804,-9.0486,-9.2145,-9.0789,-9.0524,-9.2183,-9.0751,-8.9804,-8.9804,-8.9804,-8.9804,-8.9804,-8.9804,-8.9804,-8.9804,-8.9804,-8.9804,-8.9804,-8.9804,-8.9804,-6.8696,-6.8901,-6.9006,-6.9006,-6.6465,-6.2103,-5.5074,-4.8727,-4.2295,-3.519,-3.1481,-3.0242,-3.2528,-3.3395,-3.6604,-4.5531,-4.883,-5.3653,-6.3337,-6.6739,-6.9842,-7.4105,-7.5675,-7.7529,-8.0429,-8.3148,-8.5935,-8.8802,-8.9492,-8.9756,-8.9756,-9.0245,-9.0832,-9.1547,-9.369,-9.5419,-9.6585,-9.6622,-9.5757,-9.4066,-9.2374,-9.0644,-8.9041,-8.9041,-9.087,-9.4066,-9.4066,-9.5945,-9.8938,-9.8938,-9.8938,-9.9013,-9.9464,-10.0419,-10.16,-10.26,-10.448,-10.6601,-10.7179,-10.8075,-10.8768,-10.7277,-10.6776,-10.6652,-10.5769,-10.4692,-10.3438,-10.1852,-10.0572,-9.9643,-9.9643,-9.9697,-9.972,-9.972,-9.972,-9.972,-9.972,-9.972,-9.972,-9.972,-9.972,-9.972,-9.972,-9.972,-9.8773,-9.5971,-9.5137,-9.3812,-9.094,-9.0107,-8.9804,-8.9804,-8.9804,-8.9993,-9.0524,-9.0107,-9.0031,-9.0524,-9.0069,-8.9804,-8.9804,-8.9804,-8.9804,-8.9804,-8.9804,-8.9804,-8.9804,-8.9804,-8.9799,-8.9822,-8.9822,-8.9813,-6.9009,-6.8996,-6.9006,-6.9006,-6.7474,-6.4084,-5.6805,-5.055,-4.4194,-3.6903,-3.2298,-3.0771,-3.4666,-3.5975,-4.0081,-5.1288,-5.454,-5.8775,-6.7636,-7.0665,-7.2908,-7.5488,-7.6699,-7.8127,-8.0242,-8.1957,-8.4105,-8.6807,-8.8276,-8.9041,-8.9041,-8.9041,-8.9492,-9.0545,-9.2186,-9.3539,-9.4592,-9.5945,-9.5419,-9.305,-9.2712,-9.1321,-8.9041,-8.9041,-9.087,-9.4066,-9.4066,-9.5945,-9.8938,-9.8938,-9.8938,-9.8938,-9.8938,-9.9555,-10.0547,-10.1285,-10.3272,-10.562,-10.5742,-10.6838,-10.8059,-10.7169,-10.651,-10.5954,-10.5371,-10.4482,-10.3318,-10.1712,-10.0515,-9.972,-9.972,-9.972,-9.972,-9.972,-9.972,-9.972,-9.972,-9.972,-9.972,-9.972,-9.972,-9.972,-9.972,-9.972,-9.9076,-9.7107,-9.5705,-9.4115,-9.207,-9.0637,-8.9804,-8.9804,-8.9804,-8.9804,-8.9804,-8.9804,-8.9804,-8.9804,-8.9804,-8.9804,-8.9804,-9.0448,-9.0486,-8.9842,-9.1131,-9.1149,-8.9822,-9.1154,-9.1494,-9.0841,-9.1489,-9.1466,-6.8998,-6.8997,-6.9006,-6.9006,-6.9006,-6.6876,-5.8663,-5.3092,-4.7288,-3.8907,-3.36,-3.1668,-3.5757,-3.8735,-4.4559,-5.6671,-6.082,-6.5767,-7.5091,-7.6512,-7.7148,-7.8569,-7.8734,-7.8876,-7.9136,-8.0668,-8.2327,-8.386,-8.7121,-8.8966,-8.8816,-8.8966,-8.9041,-8.9041,-9.0696,-9.1547,-9.1547,-9.478,-9.4855,-9.181,-9.3201,-9.2223,-8.9267,-8.9116,-9.087,-9.4066,-9.4066,-9.5945,-9.8938,-9.8938,-9.8938,-9.8938,-9.8938,-9.8938,-9.9156,-10.0821,-10.251,-10.397,-10.4099,-10.528,-10.6678,-10.6727,-10.5748,-10.4295,-10.2901,-10.2371,-10.1917,-10.0364,-9.9834,-9.972,-9.972,-9.972,-9.972,-9.972,-9.972,-9.972,-9.972,-9.972,-9.9758,-9.9909,-9.9947,-9.9947,-9.9947,-10.0099,-10.0023,-9.9569,-9.6993,-9.4948,-9.4645,-9.1805,-8.9804,-8.9804,-8.9804,-8.9804,-8.9804,-8.9811,-8.9817,-8.9817,-8.9786,-8.9792,-8.9792,-9.127,-9.1384,-8.983,-9.2985,-9.313,-9.0057,-9.3295,-9.3993,-9.2361,-9.3919,-9.373,-6.9024,-6.8997,-6.9006,-6.9006,-6.9006,-6.7175,-6.0147,-5.5747,-5.0438,-4.0896,-3.8092,-3.6447,-3.3619,-4.1876,-5.0438,-5.4588,-6.315,-7.0927,-7.5727,-7.7447,-7.8397,-7.883,-7.8868,-7.945,-8.0925,-8.2505,-8.3634,-8.4077,-8.7148,-8.8464,-8.7261,-8.8351,-8.9041,-8.9041,-9.0696,-9.1547,-9.1547,-9.3577,-9.4254,-9.3539,-9.2562,-9.1697,-9.0983,-8.9643,-9.087,-9.4066,-9.4066,-9.5945,-9.8938,-9.8938,-9.8938,-9.8938,-9.8938,-9.8938,-9.9006,-9.9503,-10.0763,-10.2236,-10.2467,-10.3665,-10.5122,-10.5201,-10.4118,-10.2977,-10.3924,-10.3318,-10.2182,-10.1803,-10.0743,-9.972,-9.972,-9.972,-9.972,-9.972,-9.972,-9.972,-9.972,-9.972,-10.0099,-10.1462,-10.1689,-10.1689,-10.1689,-10.2826,-10.2333,-9.8357,-9.7145,-9.5781,-9.3206,-9.1054,-8.9804,-8.9804,-8.9804,-8.9804,-8.9804,-8.9796,-8.9794,-8.9794,-8.9806,-8.9791,-8.9791,-9.017,-9.017,-8.9791,-9.1812,-9.2498,-9.1777,-9.3837,-9.3999,-9.2332,-9.2712,-9.2023,-6.911,-6.9048,-6.9022,-6.902,-6.9006,-6.7661,-6.2577,-5.8887,-5.4214,-4.583,-4.2877,-4.124,-3.949,-4.7306,-5.5373,-5.946,-6.7786,-7.4628,-7.7148,-7.8232,-7.907,-7.9908,-8.0065,-8.0798,-8.2496,-8.2791,-8.3197,-8.4013,-8.5706,-8.6358,-8.5531,-8.7035,-8.8238,-8.9004,-8.9906,-9.0357,-9.0357,-9.2035,-9.2862,-9.2862,-9.2787,-9.275,-9.2712,-9.102,-9.2073,-9.5231,-9.4442,-9.5945,-9.8938,-9.8938,-9.8938,-9.8938,-9.8938,-9.8938,-9.8968,-9.9156,-10.0289,-10.1697,-10.1134,-10.2031,-10.3344,-10.2612,-10.1772,-10.1197,-10.2106,-10.1727,-10.1046,-10.1046,-10.0402,-9.972,-9.972,-9.972,-9.972,-9.972,-9.972,-9.972,-9.972,-9.972,-9.9985,-10.0856,-10.1046,-10.1046,-10.1046,-10.2447,-10.2674,-10.0023,-9.8925,-9.7485,-9.4986,-9.2536,-9.0993,-9.0993,-9.031,-8.9813,-8.9813,-8.9806,-8.9823,-8.9823,-8.9805,-8.9813,-8.9813,-9.0572,-9.1028,-9.1028,-9.3468,-9.3964,-9.2332,-9.4837,-9.4829,-9.2462,-9.3183,-9.2718,-6.9121,-6.911,-6.8998,-6.8996,-6.9006,-6.8184,-6.5094,-6.2103,-5.8128,-5.1774,-4.8306,-4.6595,-4.7156,-5.3337,-6.0107,-6.5593,-7.2562,-7.7724,-7.898,-7.9444,-8.0005,-8.1165,-8.163,-8.2513,-8.4124,-8.2928,-8.262,-8.3911,-8.3851,-8.3727,-8.3727,-8.5593,-8.7298,-8.8577,-8.8891,-8.9041,-8.9041,-9.0433,-9.1246,-9.1584,-9.2975,-9.3802,-9.4028,-9.2637,-9.3502,-9.6096,-9.4667,-9.5795,-9.8524,-9.8524,-9.869,-9.8983,-9.8983,-9.896,-9.9019,-9.9282,-10.0254,-10.13,-10.0113,-10.0621,-10.1589,-10.0205,-9.9767,-9.9739,-9.9739,-9.9739,-9.9739,-9.9739,-9.9726,-9.9712,-9.9712,-9.9712,-9.9712,-9.9712,-9.9726,-9.9739,-9.9739,-9.9726,-9.978,-10.0099,-10.0174,-10.0174,-10.0174,-10.1553,-10.2591,-10.2288,-10.0824,-9.9247,-9.7851,-9.5046,-9.3003,-9.2396,-9.1104,-9.0117,-8.9813,-8.9818,-8.9857,-8.9857,-8.986,-8.9861,-8.9861,-9.1189,-9.2063,-9.2368,-9.5368,-9.5703,-9.3198,-9.6318,-9.6143,-9.2956,-9.4249,-9.3866,-6.8795,-6.911,-6.8998,-6.8996,-6.9006,-6.8483,-6.659,-6.4683,-6.1841,-5.6655,-5.5234,-5.3701,-4.9605,-5.7895,-6.5579,-6.6353,-7.4512,-8.0799,-8.0909,-8.2168,-8.2693,-8.1568,-8.274,-8.4334,-8.6117,-8.4828,-8.3902,-8.4127,-8.2787,-8.196,-8.196,-8.5005,-8.6796,-8.6997,-8.8313,-8.9041,-8.9041,-8.9229,-9.0094,-9.1547,-9.1772,-9.2674,-9.4066,-9.384,-9.399,-9.4404,-9.4178,-9.5156,-9.6923,-9.6923,-9.7786,-9.9103,-9.9103,-9.9182,-9.9306,-9.9438,-9.9647,-9.9832,-9.9756,-9.9891,-10.002,-9.9929,-9.9899,-9.9897,-9.9897,-9.9897,-9.9897,-9.9897,-9.9789,-9.9702,-9.9702,-9.9702,-9.9702,-9.9702,-9.9789,-9.9897,-9.9897,-9.9785,-10.0135,-10.1629,-10.1917,-10.1917,-10.1917,-10.3321,-10.3949,-10.2475,-10.0893,-9.9783,-9.9596,-9.7897,-9.5585,-9.2662,-9.213,-9.1407,-8.9927,-8.9902,-8.9977,-8.9977,-8.9961,-8.9983,-8.9983,-9.0211,-9.1008,-9.2485,-9.4263,-9.5701,-9.6723,-9.8654,-9.7854,-9.4553,-9.478,-9.3168,-6.734,-6.8443,-6.9109,-6.9036,-6.901,-6.881,-6.8061,-6.7337,-6.5617,-6.1542,-6.0719,-5.9486,-5.5474,-6.1229,-6.6528,-6.649,-7.2491,-7.7497,-7.8389,-7.9997,-8.1493,-8.2735,-8.4382,-8.6089,-8.7845,-8.5693,-8.4178,-8.4178,-8.1772,-8.0719,-8.1584,-8.305,-8.4742,-8.6646,-8.7373,-8.8125,-8.9041,-8.9041,-8.9906,-9.1547,-9.1547,-9.2449,-9.4066,-9.4066,-9.4592,-9.5457,-9.4479,-9.5043,-9.6524,-9.5662,-9.6278,-9.773,-9.7874,-9.8503,-9.9352,-9.9576,-9.9631,-9.9674,-9.9796,-9.9823,-9.9841,-9.9886,-9.9921,-9.991,-9.991,-9.991,-9.991,-9.991,-9.9861,-9.9847,-9.9847,-9.9847,-9.9847,-9.9847,-9.9861,-9.991,-9.991,-9.9861,-10.0065,-10.0797,-10.094,-10.094,-10.094,-10.2293,-10.3104,-10.2349,-10.1645,-10.1248,-10.1325,-9.9006,-9.6804,-9.5324,-9.4299,-9.3427,-9.2704,-9.1897,-9.1433,-9.1433,-9.0544,-9.0,-9.0,-9.091,-9.2162,-9.3794,-9.4515,-9.5691,-9.7395,-9.6294,-9.4959,-9.3416,-9.2468,-9.123,-6.5587,-6.6976,-6.8128,-6.8886,-6.9048,-6.9024,-6.9022,-6.9009,-6.8285,-6.5767,-6.4907,-6.401,-6.1979,-6.467,-6.7426,-6.8236,-7.1857,-7.5005,-7.6252,-7.8283,-8.0536,-8.3101,-8.5259,-8.7192,-8.8883,-8.6069,-8.4178,-8.4178,-8.1132,-7.9829,-8.0982,-8.1433,-8.2824,-8.5343,-8.5819,-8.6836,-8.8456,-8.8506,-8.936,-9.1079,-9.1431,-9.2259,-9.3566,-9.3968,-9.4885,-9.5978,-9.4734,-9.5161,-9.6581,-9.4982,-9.5284,-9.6716,-9.6493,-9.7408,-9.8871,-9.9039,-9.9392,-9.9712,-9.939,-9.8975,-9.8777,-9.965,-9.962,-9.9355,-9.9773,-9.9925,-9.9925,-9.9925,-9.9923,-9.992,-9.992,-9.992,-9.992,-9.992,-9.9923,-9.9925,-9.9925,-9.9923,-9.992,-9.992,-9.9915,-9.991,-9.991,-10.0902,-10.1816,-10.2234,-10.1935,-10.1671,-10.1776,-9.9599,-9.7888,-9.7433,-9.626,-9.5312,-9.4894,-9.3794,-9.3145,-9.3145,-9.1555,-9.0645,-9.0645,-9.1441,-9.2618,-9.4249,-9.4238,-9.5069,-9.6738,-9.4259,-9.2795,-9.226,-9.1009,-9.0184,-6.3844,-6.4428,-6.5351,-6.842,-6.9196,-6.9172,-6.9036,-6.9024,-6.8961,-6.8795,-6.7487,-6.6776,-6.8221,-6.8824,-7.0022,-7.3018,-7.5146,-7.6486,-7.6558,-7.9438,-8.158,-8.173,-8.4689,-8.7285,-8.8877,-8.6058,-8.4178,-8.4178,-8.1132,-7.934,-7.9415,-8.0832,-8.1734,-8.1884,-8.3463,-8.5168,-8.6973,-8.7011,-8.7911,-8.9738,-9.1076,-9.1832,-9.2109,-9.3729,-9.4486,-9.4585,-9.4509,-9.5402,-9.6839,-9.5134,-9.5531,-9.6995,-9.5406,-9.5888,-9.7473,-9.7515,-9.8517,-9.9695,-9.807,-9.6457,-9.5657,-9.8882,-9.8806,-9.7823,-9.9417,-9.991,-9.991,-9.991,-9.9906,-9.9923,-9.9923,-9.9923,-9.9923,-9.9923,-9.9906,-9.991,-9.991,-9.9908,-9.9923,-9.9923,-9.9923,-9.991,-9.991,-9.9963,-10.0569,-10.22,-10.1078,-10.0024,-10.0054,-9.9903,-9.9182,-9.7546,-9.7319,-9.6598,-9.5008,-9.478,-9.4742,-9.4742,-9.3263,-9.2386,-9.2386,-9.0948,-9.091,-9.2614,-9.2539,-9.3311,-9.4984,-9.4699,-9.3719,-9.2152,-9.2077,-9.117,-6.4458,-6.489,-6.5109,-6.8391,-6.9217,-6.9194,-6.9135,-6.9123,-6.911,-6.9123,-6.8562,-6.8274,-6.8911,-6.9048,-6.9435,-7.0546,-7.1347,-7.2233,-7.3296,-7.5447,-7.7299,-7.8389,-8.2398,-8.5306,-8.587,-8.2975,-8.1922,-8.4027,-8.1132,-7.9302,-7.9302,-7.9829,-8.0641,-8.1728,-8.2369,-8.3528,-8.5378,-8.6446,-8.7355,-8.801,-8.961,-9.042,-9.0512,-9.2116,-9.283,-9.2855,-9.2855,-9.3189,-9.3726,-9.3293,-9.3378,-9.389,-9.4528,-9.5141,-9.5668,-9.5746,-9.6148,-9.6551,-9.5964,-9.535,-9.5046,-9.626,-9.626,-9.5881,-9.6488,-9.6677,-9.6905,-9.8002,-9.8285,-9.8525,-9.9628,-9.9932,-9.9932,-9.9932,-9.9917,-9.9903,-9.9903,-9.992,-9.9932,-9.9932,-9.9904,-9.9912,-9.9912,-9.9904,-10.0122,-10.0726,-10.0296,-9.9903,-9.9903,-9.9903,-9.9675,-9.9068,-9.903,-9.8764,-9.8157,-9.7133,-9.6484,-9.6484,-9.4932,-9.4022,-9.4022,-9.4487,-9.4511,-9.4056,-9.3922,-9.4118,-9.4731,-9.2583,-9.1745,-9.2107,-9.101,-9.0136,-6.0983,-6.2237,-6.372,-6.5447,-6.7583,-6.9262,-6.9205,-6.9194,-6.9182,-6.9196,-6.9123,-6.9061,-6.9061,-6.9061,-6.9061,-6.9073,-6.9182,-6.9679,-7.0776,-7.2388,-7.4027,-7.5719,-7.9328,-8.2336,-8.4027,-8.0719,-7.9829,-8.3087,-8.0832,-7.9528,-8.0054,-8.0092,-8.0386,-8.1047,-8.1056,-8.1935,-8.3753,-8.4896,-8.6032,-8.7169,-8.8325,-8.9168,-8.9709,-9.0782,-9.1593,-9.2121,-9.2121,-9.2455,-9.2944,-9.2584,-9.2279,-9.221,-9.2933,-9.3531,-9.3964,-9.4044,-9.3718,-9.3301,-9.387,-9.368,-9.3414,-9.4515,-9.4515,-9.4173,-9.4704,-9.4856,-9.5084,-9.6222,-9.6522,-9.6791,-9.793,-9.8233,-9.8233,-9.8233,-9.8233,-9.8233,-9.8233,-9.8233,-9.8233,-9.8233,-9.8233,-9.8385,-9.8954,-9.9068,-9.9258,-9.9827,-9.9903,-9.9523,-9.8347,-9.8233,-9.8423,-9.8992,-9.9068,-9.9296,-9.9865,-9.8343,-9.7622,-9.8191,-9.5562,-9.4268,-9.4837,-9.4827,-9.4307,-9.3207,-9.3023,-9.2987,-9.2949,-9.0761,-9.022,-9.1189,-9.0083,-8.9479,-5.3748,-5.658,-6.0895,-5.973,-6.4355,-6.9129,-6.9074,-6.9026,-6.9041,-6.917,-6.9196,-6.9196,-6.9196,-6.9205,-6.9202,-6.9202,-6.9295,-6.9402,-6.9402,-7.0681,-7.226,-7.3914,-7.5655,-7.8588,-8.3426,-7.949,-7.7986,-8.1245,-8.0092,-7.9904,-8.1446,-8.1596,-8.1038,-7.9602,-7.9649,-8.0497,-8.219,-8.2268,-8.3935,-8.7157,-8.7316,-8.8188,-8.9665,-8.9826,-9.0845,-9.2434,-9.2432,-9.3381,-9.4784,-9.3181,-9.2498,-9.2277,-9.0696,-9.1034,-9.2447,-9.2431,-9.1403,-9.0227,-9.1897,-9.1366,-9.0531,-9.368,-9.368,-9.2728,-9.4249,-9.4704,-9.4704,-9.478,-9.478,-9.4818,-9.4856,-9.4856,-9.4856,-9.4856,-9.4856,-9.4856,-9.4856,-9.4856,-9.4856,-9.4856,-9.4856,-9.5387,-9.7015,-9.7319,-9.7888,-9.9523,-9.9747,-9.8571,-9.5274,-9.4856,-9.5498,-9.7129,-9.7319,-9.7964,-9.9633,-9.8267,-9.8002,-9.9671,-9.5118,-9.3154,-9.4789,-9.1731,-8.9987,-8.9949,-8.9837,-8.9712,-8.9598,-8.9432,-8.9307,-8.9269,-8.9269,-8.9269,-6.1593,-6.0993,-6.0324,-6.2406,-6.3413,-6.4239,-6.542,-6.4744,-6.4905,-6.857,-6.9251,-6.9179,-6.9179,-6.9205,-6.9194,-6.9202,-6.9224,-6.9284,-6.9365,-6.9778,-7.0217,-7.0692,-7.3211,-7.5493,-7.6872,-7.4732,-7.4612,-7.7885,-7.7723,-7.7728,-7.8225,-8.0508,-8.1683,-8.1472,-8.2656,-8.3008,-8.2381,-8.3597,-8.4052,-8.3786,-8.5043,-8.5878,-8.6333,-8.7585,-8.9099,-9.0686,-9.0716,-9.0946,-9.1443,-9.223,-9.1807,-9.0785,-9.1524,-9.1369,-9.0689,-9.0686,-9.0417,-9.0075,-9.0531,-9.0379,-9.0151,-9.1062,-9.1062,-9.0758,-9.1214,-9.1328,-9.1593,-9.2807,-9.3183,-9.3452,-9.4553,-9.4856,-9.4856,-9.4856,-9.4856,-9.4856,-9.4856,-9.4856,-9.4856,-9.4856,-9.4856,-9.5008,-9.5463,-9.5577,-9.5729,-9.6184,-9.617,-9.5829,-9.4956,-9.4848,-9.5037,-9.5492,-9.5558,-9.5755,-9.6218,-9.5827,-9.5755,-9.6218,-9.4946,-9.4356,-9.4686,-9.491,-9.4483,-9.3348,-9.3174,-9.1916,-8.946,-8.8297,-8.7107,-8.5899,-8.5899,-8.5899,-5.734,-5.5792,-5.4465,-5.7372,-5.7355,-5.8322,-6.4895,-6.3478,-6.2408,-6.8199,-6.9343,-6.9284,-6.9284,-6.9288,-6.9277,-6.9273,-6.9284,-6.9333,-6.9365,-6.9402,-6.9379,-6.9383,-7.105,-7.2266,-7.2275,-7.1477,-7.2301,-7.5544,-7.5857,-7.6188,-7.6941,-7.9445,-8.0651,-8.021,-8.2493,-8.3277,-8.2423,-8.3373,-8.3752,-8.3486,-8.3752,-8.4283,-8.4966,-8.5987,-8.6933,-8.7913,-8.8657,-8.934,-9.0071,-9.1084,-9.0894,-9.0107,-9.1072,-9.0876,-9.0009,-9.0003,-9.0,-9.0,-9.0,-9.0,-9.0,-9.0,-9.0,-9.0,-9.0,-9.0,-9.0227,-9.1176,-9.1479,-9.1669,-9.258,-9.2807,-9.2807,-9.2807,-9.2807,-9.2807,-9.2807,-9.2807,-9.2807,-9.2807,-9.2807,-9.3031,-9.3695,-9.3804,-9.4027,-9.4686,-9.4093,-9.3909,-9.4699,-9.4175,-9.372,-9.372,-9.3717,-9.3993,-9.4718,-9.4139,-9.4329,-9.5735,-9.4497,-9.4311,-9.5592,-9.5839,-9.5177,-9.3552,-9.3444,-9.2091,-8.942,-8.8504,-8.756,-8.6616,-8.6616,-8.5861,-4.6016,-4.5281,-4.5995,-4.7783,-4.811,-5.117,0.0,-6.1439,-5.8989,-6.5746,-6.7335,-6.7598,-6.8162,-6.8425,-6.8726,-6.929,-6.9402,-6.9402,-6.9402,-6.9402,-6.9375,-6.9407,-6.9428,-6.9436,-6.9562,-6.9621,-7.0827,-7.369,-7.4181,-7.4989,-7.6389,-7.8219,-7.8761,-7.7715,-8.0642,-8.2294,-8.2423,-8.2423,-8.3069,-8.4398,-8.2879,-8.2955,-8.4398,-8.4581,-8.465,-8.4761,-8.6445,-8.815,-8.9717,-8.993,-9.0018,-8.9997,-9.0012,-8.9896,-8.9717,-8.9703,-8.9848,-9.0,-9.0,-9.0,-9.0,-9.0,-9.0,-9.0,-9.0,-9.0,-9.0,-9.0,-9.0,-9.0,-9.0,-9.0,-9.0,-9.0,-9.0,-9.0038,-9.0224,-9.0262,-9.0303,-9.0482,-9.0516,-9.0959,-9.2352,-9.2423,-9.2848,-9.4396,-9.3358,-9.2942,-9.4464,-9.3335,-9.2427,-9.2434,-9.2434,-9.3047,-9.4539,-9.3289,-9.3691,-9.6713,-9.4067,-9.3636,-9.6321,-9.5175,-9.3677,-9.1967,-9.1929,-9.1109,-8.942,-8.9231,-8.908,-8.8892,-8.8892,-8.7107,0.0,0.0,0.0,0.0,0.0,0.0,0.0,-4.5223,-4.5209,-5.1863,-5.4342,-5.652,-6.0502,-6.2371,-6.4625,-6.8726,-6.9402,-6.9402,-6.9402,-6.9402,-6.94,-6.9399,-6.9488,-6.9583,-6.9573,-6.9681,-6.9951,-7.0492,-7.1823,-7.2771,-7.3215,-7.6117,-7.8322,-7.9536,-8.1397,-8.2385,-8.2423,-8.2423,-8.1968,-8.1019,-8.0677,-8.0639,-8.094,-8.2268,-8.2906,-8.3007,-8.471,-8.641,-8.8068,-8.9434,-9.0006,-9.0009,-9.0003,-8.9168,-8.7954,-8.7951,-8.8823,-9.0,-9.0,-9.0,-9.0,-9.0,-9.0,-9.0,-9.0,-9.0,-9.0,-9.0,-9.0,-9.0,-9.0,-9.0,-9.0,-9.0,-9.0,-9.0334,-9.1619,-9.1874,-9.2257,-9.3524,-9.377,-9.384,-9.4167,-9.3068,-9.2715,-9.426,-9.423,-9.4185,-9.46,-9.4382,-9.418,-9.4168,-9.4159,-9.4302,-9.463,-9.4373,-9.4456,-9.5109,-9.4515,-9.3798,-9.2953,-9.3914,-9.3677,-9.1967,-9.1929,-9.1109,-8.942,-8.8164,-8.6843,-8.5521,-8.5521,-8.3709,0.0,0.0,0.0,0.0,0.0,0.0,0.0,0.0,0.0,0.0,0.0,-5.1396,-5.3954,0.0,-6.1394,-6.4026,-6.7222,-6.9402,-6.9402,-6.9402,-6.941,-6.9404,-6.9589,-6.9681,-6.9681,-6.9822,-6.9831,-6.9689,-7.0552,-7.1064,-7.1064,-7.3518,-7.5356,-7.6273,-7.8703,-8.0411,-8.1246,-8.1246,-8.1246,-8.1246,-8.0449,-8.0031,-7.9992,-8.0788,-8.1162,-8.1265,-8.2931,-8.4171,-8.5067,-8.6774,-8.7457,-8.7457,-8.7457,-8.6964,-8.6205,-8.6205,-8.6737,-8.7457,-8.7457,-8.7457,-8.7457,-8.7457,-8.7457,-8.7609,-8.8482,-8.8748,-8.8899,-8.9772,-9.0,-9.0,-9.0,-9.0,-9.0,-9.0,-9.0,-9.0224,-9.0993,-9.1161,-9.165,-9.3189,-9.3512,-9.3757,-9.4508,-9.389,-9.3835,-9.5473,-9.5716,-9.6077,-9.6999,-9.6367,-9.4875,-9.2313,-9.1331,-9.0868,-9.0876,-9.0884,-9.1916,-9.4402,-9.4553,-9.4522,-9.447,-9.447,-9.3299,-9.0732,-8.9939,-8.8277,-8.572,-8.4086,-8.2878,-8.2047,-8.2047,-8.1103,0.0,0.0,0.0,0.0,0.0,0.0,0.0,0.0,0.0,0.0,0.0,0.0,0.0,0.0,0.0,-5.928,-6.5041,-6.9402,-6.9402,-6.9407,-6.9393,-6.9422,-6.9646,-6.9817,-6.9826,-6.9928,-6.9931,-6.9831,-6.9929,-6.993,-6.9829,-7.1219,-7.2173,-7.2476,-7.5134,-7.7412,-7.9082,-7.912,-7.9728,-8.0981,-8.0032,0.0,-7.9613,-7.9801,-7.991,-7.9976,-8.1335,-8.2119,-8.2525,-8.3891,-8.465,-8.4881,-8.4235,-8.397,-8.4008,-8.4346,-8.4688,-8.4956,-8.4956,-8.4956,-8.4956,-8.4956,-8.4956,-8.5181,-8.6585,-8.7002,0.0,-8.8634,-8.9279,-8.9506,-8.9506,-8.9734,-9.0,-9.0,-9.0,-9.0075,-9.0406,-9.0436,-9.087,-9.2475,-9.2754,-9.3168,-9.4393,-9.4268,-9.4319,-9.5387,-9.6104,-9.6886,-9.7943,-9.7452,-9.5575,-9.1751,-9.0241,-8.9486,-8.9486,-8.8277,-8.9637,-9.4658,-9.345,-9.2884,-9.3574,-9.228,-9.0014,-8.6626,-8.5295,-8.3633,-8.1566,-8.0159,-7.9518,-7.9404,-7.5213,-7.4118,0.0,0.0,0.0,0.0,0.0,0.0,0.0,0.0,0.0,0.0,0.0,0.0,0.0,0.0,0.0,0.0,-6.4994,-6.9402,-6.9402,-6.9411,-6.943,-6.954,-6.9689,-6.9831,-6.9931,-6.9971,-6.9971,-6.997,-6.9971,-6.9971,-6.997,-7.016,0.0,0.0,0.0,-7.3881,-7.559,-7.559,-7.5703,-7.5893,-7.7222,-7.7866,-7.7896,-7.9262,-7.9899,-7.9916,-8.0103,-8.1048,-8.2449,-8.2639,-8.3587,-8.4653,-8.1655,-8.0441,-8.0669,-8.2146,-8.3663,-8.4956,-8.4956,0.0,0.0,-8.4956,-8.4956,-8.4994,-8.5181,-8.5219,-8.5257,-8.5488,-8.6585,-8.7761,-8.7761,-8.8861,-9.0,-9.0,-9.0,-9.0406,-9.1761,-9.1977,-9.2403,-9.4067,-9.4317,-9.4285,-9.4453,-9.3234,-9.1789,-9.0478,-9.2846,-9.4281,-9.2997,-9.5263,-9.735,-9.8283,-9.8208,0.0,-9.8132,-9.262,-9.1308,-9.6406,-8.975,-8.4426,-8.1594,-8.1292,-7.9669,-7.6392,-7.6128,-7.7299,-7.9782,-7.9593,-7.9518,-7.9027,-5.9801,-5.4818,0.0,0.0,0.0,0.0,0.0,0.0,0.0,0.0,0.0,0.0,0.0,0.0,0.0,0.0,0.0,0.0,-5.8612,-6.365,-6.365,-6.7042,-6.9516,-6.9605,-6.9771,-6.9929,-6.9971,-6.9971,-6.9971,-6.9971,-6.9971,-6.9971,-6.9971,-6.9971,-7.0312,-7.0996,-7.1034,-7.1831,-7.3539,-7.3539,-7.4071,-7.502,-7.5741,-7.6083,-7.6119,-7.6762,-7.706,-7.7084,-7.7077,-7.798,-7.949,-7.949,-8.0476,-8.1693,0.0,0.0,0.0,0.0,-8.0552,-8.1997,-8.1997,-8.1997,-8.1997,-8.1997,-8.1997,-8.2187,-8.317,-8.3474,-8.3663,-8.4688,-8.5447,-8.5978,-8.5978,-8.6533,-8.7048,-8.7048,-8.6988,-8.711,-8.7802,-8.7885,-8.8337,-8.9956,-9.0206,0.0,-8.8892,-8.8919,-8.8882,-8.8164,-9.0052,-9.126,-9.0543,-9.1713,-9.1762,-8.9599,-8.9372,-8.9372,-8.9372,-8.6739,0.0,0.0,0.0,-8.7749,-8.5332,-8.6201,0.0,0.0,0.0,-6.9482,-6.7964,-6.3131,0.0,0.0,-5.3949,-5.1861,0.0,0.0,0.0,0.0,0.0,0.0,0.0,0.0,0.0,0.0,0.0,0.0,0.0,0.0,0.0,0.0,-5.2476,-5.8612,-5.8161,-6.3155,-6.6856,-6.6879,-6.8728,-6.9439,-6.8072,-6.9173,-6.9971,-6.9971,-6.9971,-6.9971,-6.9971,-6.9971,-6.9971,-6.9971,-6.9971,-7.0578,-7.1793,-7.1793,-7.2438,-7.3653,-7.4109,-7.4336,-7.4336,-7.4827,-7.505,-7.5042,-7.5038,-7.5678,-7.6731,-7.6731,-7.7449,-7.8322,-7.5936,-7.5744,-7.672,-7.672,-7.7517,-7.862,-7.9075,-7.9493,-7.991,-7.991,-7.991,-8.0138,-8.1349,-8.1728,-8.1956,-8.3208,-8.3891,-8.4232,-8.4232,-8.4594,-8.4954,-8.4954,-8.4879,-8.4797,-8.4797,-8.4767,-8.506,-8.6173,-8.5648,-8.4745,-8.3983,-8.4879,-8.5521,-8.5068,-8.6767,-8.79,-8.7457,-8.8212,-8.757,-8.4398,-8.4058,-8.4058,-8.4058,-8.2397,-8.3454,-8.8476,-8.7787,-8.7258,-8.7381,-8.6805,-8.4426,-8.0093,-7.1928,-6.4868,0.0,0.0,0.0,0.0,0.0,0.0,0.0,0.0,0.0,0.0,0.0,0.0,0.0,0.0,0.0,0.0,0.0,0.0,0.0,0.0,0.0,0.0,0.0,0.0,-5.4824,-5.7698,-5.9979,-5.9977,-6.5884,-6.811,-6.3289,-6.7161,-6.9971,-6.9971,-6.9971,-6.9971,-6.9971,-6.9971,-6.9971,-6.9971,-6.9971,-7.0009,-7.0047,-7.0047,-7.0085,-7.016,-7.1792,-7.2586,-7.2654,-7.4287,-7.5042,-7.5034,-7.5042,-7.5045,-7.5121,-7.5121,-7.5116,-7.5184,-7.5058,-7.5053,-7.5091,-7.5091,-7.5129,-7.5395,-7.6909,-7.8503,-7.991,-7.991,-7.991,-7.991,-7.9948,-7.9986,-7.9986,-8.0024,-8.1235,-8.2487,-8.2487,-8.3739,-8.4953,-8.4953,-8.4966,-8.4931,-8.4931,-8.4722,-8.4576,-8.4644,-8.2006,-8.0244,-8.183,-8.2132,-8.1641,-7.9971,-8.2576,0.0,-8.2472,-8.5106,-8.7673,-8.9043,-8.9194,-8.9194,-8.9194,-8.3293,-8.1745,-8.6843,-7.964,-7.7299,-8.2057,-7.6119,-7.3401,-7.4844,-7.1324,-6.5464,-5.7241,0.0,0.0,0.0,0.0,0.0,0.0,0.0,0.0,0.0,0.0,0.0,0.0,0.0,0.0,0.0,0.0,0.0,0.0,0.0,0.0,0.0,0.0,0.0,0.0,-5.3782,-5.8498,-5.9561,-6.1895,-6.1884,-5.7936,-6.2112,-6.5073,-6.5073,-6.8148,-6.9971,-6.9971,-6.9971,-6.9971,-6.9971,-6.9971,-6.9971,-6.9971,-6.9971,-6.9971,-6.9971,-7.0578,-7.0843,-7.0842,-7.141,-7.1671,-7.1703,-7.17,-7.2302,-7.3356,-7.3356,-7.2719,-7.1702,-7.1692,-7.2367,-7.3343,-7.3343,-7.4067,-7.5091,-7.5622,-7.6191,-7.6647,-7.6647,-7.6647,-7.6874,-7.7896,-7.8237,-7.8465,-7.9568,-8.0289,-8.0742,-8.0742,-8.1085,-8.1452,-8.1452,-8.1415,-8.1331,-8.1331,-8.1275,-8.1233,-8.1233,-7.9422,-7.6724,-7.2805,-7.6686,-7.8272,-7.2155,-7.695,-8.099,-8.0424,-8.133,-8.2274,-8.2803,-8.284,-8.284,-8.284,-8.0801,-8.0235,-8.1934,-8.0471,-8.0282,-8.1943,-8.201,-8.1254,-7.9564,-7.6308,-6.7775,-5.3924,0.0,0.0,0.0,0.0,0.0,0.0,0.0,0.0,0.0,0.0,0.0,0.0,0.0,0.0,0.0,0.0,0.0,0.0,0.0,0.0,0.0,0.0,0.0,0.0,0.0,0.0,-5.7743,-5.863,0.0,-5.2772,-5.5809,-5.8087,-5.8087,-6.1618,-6.4769,-6.7199,-6.7351,-6.8148,-6.9933,-6.9971,-6.9971,-6.9971,-6.9971,-6.9971,-6.9971,-6.997,-6.997,-6.997,-6.9969,-6.9967,-6.9964,-6.9962,-7.0604,-7.1622,-7.1605,-7.0242,-6.8167,-6.8161,-6.7775,-6.7386,-6.9131,-7.0118,-7.0879,-7.3308,-7.4142,-7.4218,-7.4825,-7.3384,-7.1597,-7.2622,-7.1668,-7.083,-7.376,-7.5009,-7.5879,-7.7706,-7.8089,-7.8187,-7.8735,-7.8763,-7.8848,-7.9457,-7.9091,-7.8498,-7.7894,-7.7441,-7.4827,-6.7449,-7.1089,-7.325,-6.7865,-7.1618,-7.6157,-7.9102,-7.9518,-7.9518,-7.9518,-7.9518,-7.9518,-7.9518,-7.9518,-7.9518,-7.9518,-8.0537,-8.115,-8.115,-8.2689,-8.167,-7.7667,-7.3761,-6.5041,0.0,0.0,0.0,0.0,0.0,0.0,0.0,0.0,0.0,0.0,0.0,0.0,0.0,0.0,0.0,0.0,0.0,0.0,0.0,0.0,0.0,0.0,0.0,0.0,0.0,0.0,0.0,-5.4226,-5.5596,0.0,0.0,0.0,0.0,-4.9317,-5.1064,-5.4936,-6.1466,-6.1846,-6.42,-6.9325,-6.9477,-6.9629,-6.9971,-6.9971,-6.9971,-6.9971,-6.997,-6.9969,-6.9968,-6.9968,-6.9968,-6.9968,-6.997,-6.9971,-6.997,-6.9605,-6.7576,-6.4654,-6.4313,-6.1277,-5.7751,-6.2529,-6.3288,-6.2873,-6.9662,-7.2015,-7.2243,-7.3687,-6.9814,-6.4462,-6.4044,-6.0658,0.0,0.0,-6.5589,-6.8121,-7.3188,-7.4598,-7.5079,-7.6822,-7.7149,-7.7464,-7.9099,-7.8181,-7.6421,-7.442,-7.5251,-7.3488,-6.4676,0.0,-6.6098,-6.5854,-6.646,-6.9852,-7.797,-7.9291,-7.9518,-7.9518,-7.9518,-7.9518,-7.9518,-7.9518,-7.9518,-7.9518,-7.9442,-7.9404,-7.9404,-7.763,-7.4298,-6.9315,-6.3999,0.0,0.0,0.0,0.0,0.0,0.0,0.0,0.0,0.0,0.0,0.0,0.0,0.0,0.0,0.0,0.0,0.0,0.0,0.0,0.0,0.0,0.0,0.0,0.0,0.0,0.0,-4.1027,-4.3737,-4.8681,-4.5356,-4.0965,0.0,0.0,0.0,0.0,0.0,0.0,-5.1178,-5.133,-5.4784,-6.234,-6.2605,-6.4997,-6.9933,-6.9971,-6.9971,-6.9971,-6.9971,-6.997,-6.9968,-6.9968,-6.9965,-6.9994,-6.9995,-6.9992,-6.9605,-6.4643,-6.2102,-6.0812,-5.5749,-5.301,-5.2215,-5.4753,-5.5398,-5.5967,-6.2683,-6.4995,-6.4656,-6.2683,-6.0824,-5.8242,-5.1943,0.0,0.0,0.0,0.0,-6.1234,-6.6207,-6.8428,-7.0413,-7.4496,-7.5373,-7.5399,-7.5831,-7.5574,-7.3288,-6.6573,-6.4641,-5.9902,-4.6456,-4.9635,0.0,-4.9089,-5.8054,-6.6867,-7.1542,-7.6459,-7.9518,-7.9518,-7.9518,-7.9518,-7.9518,-7.9518,-7.9518,-7.9518,-7.8423,-7.7781,-7.7781,-7.2532,-6.7888,-6.4181,0.0,0.0,0.0,0.0,0.0,0.0,0.0,0.0,0.0,0.0,0.0,0.0,0.0,0.0,0.0,0.0,0.0,0.0,0.0,0.0,0.0,0.0,0.0,0.0,0.0,0.0,0.0,-3.7235,-4.0209,-4.4674,-3.9361,-3.4549,0.0,0.0,0.0,0.0,0.0,0.0,0.0,0.0,0.0,-5.4291,-5.4519,-5.6683,-6.1163,-6.4162,-6.5643,-6.5681,-6.8566,-6.997,-6.997,-6.997,-6.9969,-6.9964,-6.9964,-6.8284,-6.5261,-6.1523,-5.6974,-5.2003,0.0,0.0,0.0,0.0,-4.6557,-4.6783,-5.2664,-5.4751,-5.4412,-5.259,0.0,0.0,0.0,0.0,0.0,0.0,0.0,-5.5284,-6.0283,-6.5033,-6.9343,-7.2808,-7.3584,-7.3737,-7.4501,-6.8281,-6.1162,-5.6438,-5.4244,-4.9246,-3.7022,-3.941,0.0,0.0,0.0,-6.0279,-6.6557,-7.3875,-7.846,-7.846,-7.9102,-7.9216,-7.8536,-7.846,-7.8158,-7.7403,-7.6535,-7.476,-7.1853,-6.6642,-5.9884,0.0,0.0,0.0,0.0,0.0,0.0,0.0,0.0,0.0,0.0,0.0,0.0,0.0,0.0,0.0,0.0,0.0,0.0,0.0,0.0,0.0,0.0,0.0,0.0,0.0,0.0,0.0,0.0,0.0,-3.9175,-4.0846,0.0,0.0,0.0,0.0,0.0,0.0,0.0,0.0,0.0,0.0,0.0,0.0,0.0,-4.6926,-4.9279,-5.5164,-5.8201,-5.8467,-6.4238,-6.7123,-6.7351,-6.7351,-6.7806,-6.8566,-6.7503,0.0,-5.9728,-5.7753,0.0,0.0,0.0,0.0,0.0,0.0,0.0,0.0,0.0,0.0,0.0,0.0,0.0,0.0,0.0,0.0,0.0,0.0,0.0,0.0,0.0,0.0,-6.7479,-6.8835,-6.9824,-7.0584,-7.0963,-5.8204,-4.6419,-4.5426,-4.3891,-4.0019,0.0,0.0,0.0,0.0,0.0,0.0,-6.2021,-7.1207,-7.6837,-7.6837,-7.8045,-7.8309,-7.695,-7.6837,-7.6233,-7.4731,-7.3401,-6.9965,-6.3961,-6.0014,0.0,0.0,0.0,0.0,0.0,0.0,0.0,0.0,0.0,0.0,0.0,0.0,0.0,0.0,0.0,0.0,0.0,0.0,0.0,0.0,0.0,0.0,0.0,0.0,0.0,0.0,0.0,0.0,0.0,0.0,0.0,0.0,0.0,0.0,0.0,0.0,0.0,0.0,0.0,0.0,0.0,0.0,0.0,0.0,0.0,0.0,0.0,0.0,0.0,0.0,-5.0798,-5.2088,-5.3452,-5.3448,-5.6444,-6.126,-5.4365,-5.467,-5.9072,-4.6544,0.0,0.0,0.0,0.0,0.0,0.0,0.0,0.0,0.0,0.0,0.0,0.0,0.0,0.0,0.0,0.0,0.0,0.0,0.0,0.0,0.0,0.0,-5.33,-5.3603,-5.785,-6.0036,-5.3446,0.0,0.0,0.0,0.0,0.0,0.0,0.0,0.0,0.0,0.0,0.0,-5.5597,-6.7328,-7.5109,-7.5109,-7.5335,-7.5373,-7.5109,-7.5109,-7.4957,-7.4655,-6.6883,-6.1131,0.0,0.0,0.0,0.0,0.0,0.0,0.0,0.0,0.0,0.0,0.0,0.0,0.0,0.0,0.0,0.0,0.0,0.0,0.0,0.0,0.0,0.0,0.0,0.0,0.0,0.0,0.0,0.0,0.0,0.0,0.0,0.0,0.0,0.0,0.0,0.0,0.0,0.0,0.0,0.0,0.0,0.0,0.0,0.0,0.0,0.0,0.0,0.0,0.0,0.0,0.0,0.0,0.0,0.0,0.0,0.0,0.0,0.0,-4.7642,-4.3276,0.0,0.0,0.0,0.0,0.0,0.0,0.0,0.0,0.0,0.0,0.0,0.0,0.0,0.0,0.0,0.0,0.0,0.0,0.0,0.0,0.0,0.0,0.0,0.0,0.0,0.0,0.0,0.0,0.0,0.0,0.0,0.0,0.0,0.0,0.0,0.0,0.0,0.0,0.0,0.0,-5.1364,-6.4474,-7.3325,-7.3325,-7.4127,-7.4278,-7.3401,-7.3325,-7.1089,-6.5856,-6.0188,0.0,0.0,0.0,0.0,0.0,0.0,0.0,0.0,0.0,0.0,0.0,0.0,0.0,0.0,0.0,0.0,0.0,0.0,0.0,0.0,0.0,0.0,0.0,0.0,0.0,0.0,0.0,0.0,0.0,0.0,0.0,0.0,0.0,0.0,0.0,0.0,0.0,0.0,0.0,0.0,0.0,0.0,0.0,0.0,0.0,0.0,0.0,0.0,0.0,0.0,0.0,0.0,0.0,0.0,0.0,0.0,0.0,0.0,0.0,-4.0465,-3.3014,0.0,0.0,0.0,0.0,0.0,0.0,0.0,0.0,0.0,0.0,0.0,0.0,0.0,0.0,0.0,0.0,0.0,0.0,0.0,0.0,0.0,0.0,0.0,0.0,0.0,0.0,0.0,0.0,0.0,0.0,0.0,0.0,0.0,0.0,0.0,0.0,0.0,0.0,0.0,0.0,-4.8852,-6.2348,-7.1464,-7.1464,-7.2643,-7.2907,-7.1578,-7.1464,-6.7345,-5.7662,-5.3825,0.0,0.0,0.0,0.0,0.0,0.0,0.0,0.0,0.0,0.0,0.0,0.0,0.0,0.0,0.0,0.0,0.0,0.0,0.0,0.0,0.0,0.0,0.0,0.0,0.0,0.0,0.0,0.0,0.0,0.0,0.0,0.0,0.0,0.0,0.0,0.0,0.0,0.0,0.0,0.0,0.0,0.0,0.0,0.0,0.0,0.0,0.0,0.0,0.0,0.0,0.0,0.0,0.0,0.0,0.0,0.0,0.0,0.0,0.0,0.0,0.0,0.0,0.0,0.0,0.0,0.0,0.0,0.0,0.0,0.0,0.0,0.0,0.0,0.0,0.0,0.0,0.0,0.0,0.0,0.0,0.0,0.0,0.0,0.0,0.0,0.0,0.0,0.0,0.0,0.0,0.0,0.0,0.0,0.0,0.0,0.0,0.0,0.0,0.0,0.0,0.0,-4.8586,-6.0972,-6.928,-6.928,-6.9431,-6.9468,-6.9318,-6.928,-6.5737,-5.7336,0.0,0.0,0.0,0.0,0.0,0.0,0.0,0.0,0.0,0.0,0.0,0.0,0.0,0.0,0.0,0.0,0.0,0.0,0.0,0.0,0.0,0.0,0.0,0.0,0.0,0.0,0.0,0.0,0.0,0.0,0.0,0.0,0.0,0.0,0.0,0.0,0.0,0.0,0.0,0.0,0.0,0.0,0.0,0.0,0.0,0.0,0.0,0.0,0.0,0.0,0.0,0.0,0.0,0.0,0.0,0.0,0.0,0.0,0.0,0.0,0.0,0.0,0.0,0.0,0.0,0.0,0.0,0.0,0.0,0.0,0.0,0.0,0.0,0.0,0.0,0.0,0.0,0.0,0.0,0.0,0.0,0.0,0.0,0.0,0.0,0.0,0.0,0.0,0.0,0.0,0.0,0.0,0.0,0.0,0.0,0.0,0.0,0.0,0.0,0.0,0.0,0.0,-4.8558,-6.0779,-6.9009,-6.9009,-6.9009,-6.9009,-6.9009,-6.9009,-6.3747,-5.1467,0.0,0.0,0.0,0.0,0.0,0.0,0.0,0.0,0.0,0.0,0.0,0.0,0.0,0.0,0.0,0.0,0.0,0.0,0.0,0.0,0.0,0.0,0.0,0.0,0.0,0.0,0.0,0.0,0.0,0.0,0.0,0.0,0.0,0.0,0.0,0.0,0.0,0.0,0.0,0.0,0.0,0.0,0.0,0.0,0.0,0.0,0.0,0.0,0.0,0.0,0.0,0.0,0.0,0.0,0.0,0.0,0.0,0.0,0.0,0.0,0.0,0.0,0.0,0.0,0.0,0.0,0.0,0.0,0.0,0.0,0.0,0.0,0.0,0.0,0.0,0.0,0.0,0.0,0.0,0.0,0.0,0.0,0.0,0.0,0.0,0.0,0.0,0.0,0.0,0.0,0.0,0.0,0.0,0.0,0.0,0.0,0.0,0.0,0.0,0.0,0.0,0.0,-4.8464,-6.067,-6.8822,-6.8822,-6.8822,-6.8822,-6.8822,-6.8822,-6.2477,-4.754,0.0,0.0,0.0,0.0,0.0,0.0,0.0,0.0,0.0,0.0,0.0,0.0,0.0,0.0,0.0,0.0,0.0,0.0,0.0,0.0,0.0,0.0,0.0,0.0,0.0,0.0,0.0,0.0,0.0,0.0,0.0,0.0,0.0,0.0,0.0,0.0,0.0,0.0,0.0,0.0,0.0,0.0,0.0,0.0,0.0,0.0,0.0,0.0,0.0,0.0,0.0,0.0,0.0,0.0,0.0,0.0,0.0,0.0,0.0,0.0,0.0,0.0,0.0,0.0,0.0,0.0,0.0,0.0,0.0,0.0,0.0,0.0,0.0,0.0,0.0,0.0,0.0,0.0,0.0,0.0,0.0,0.0,0.0,0.0,0.0,0.0,0.0,0.0,0.0,0.0,0.0,0.0,0.0,0.0,0.0,0.0,0.0,0.0,0.0,0.0,0.0,0.0,-4.8336,-6.036,-6.8404,-6.8404,-6.8404,-6.8404,-6.8404,-6.8404,-6.2129,0.0,0.0,0.0,0.0,0.0,0.0,0.0,0.0,0.0,0.0,0.0,0.0,0.0,0.0,0.0,0.0,0.0,0.0,0.0,0.0,0.0,0.0,0.0,0.0,0.0,0.0,0.0,0.0,0.0,0.0,0.0,0.0,0.0,0.0,0.0,0.0,0.0,0.0,0.0,0.0,0.0,0.0,0.0,0.0,0.0,0.0,0.0,0.0,0.0,0.0,0.0,0.0,0.0,0.0,0.0,0.0,0.0,0.0,0.0,0.0,0.0,0.0,0.0,0.0,0.0,0.0,0.0,0.0,0.0,0.0,0.0,0.0,0.0,0.0,0.0,0.0,0.0,0.0,0.0,0.0,0.0,0.0,0.0,0.0,0.0,0.0,0.0,0.0,0.0,0.0,0.0,0.0,0.0,0.0,0.0,0.0,0.0,0.0,0.0,0.0,0.0,0.0,0.0,-4.7779,-5.6497,-6.3503,-6.7959,-6.8442,-6.7996,-6.6919,-6.781,-6.21,-4.7244,0.0,0.0,0.0,0.0,0.0,0.0,0.0,0.0,0.0,0.0,0.0,0.0,0.0,0.0,0.0,0.0,0.0,0.0,0.0,0.0,0.0,0.0,0.0,0.0,0.0,0.0,0.0,0.0,0.0,0.0,0.0,0.0,0.0,0.0,0.0,0.0,0.0,0.0,0.0,0.0,0.0,0.0,0.0,0.0,0.0,0.0,0.0,0.0,0.0,0.0,0.0,0.0,0.0,0.0,0.0,0.0,0.0,0.0,0.0,0.0,0.0,0.0,0.0,0.0,0.0,0.0,0.0,0.0,0.0,0.0,0.0,0.0,0.0,0.0,0.0,0.0,0.0,0.0,0.0,0.0,0.0,0.0,0.0,0.0,0.0,0.0,0.0,0.0,0.0,0.0,0.0,0.0,0.0,0.0,0.0,0.0,0.0,0.0,0.0,0.0,0.0,0.0,0.0,-5.641,-6.3911,-6.7996,-6.7885,-6.737,-6.6915,-6.6676,-6.0973,-4.7966,0.0,0.0,0.0,0.0,0.0,0.0,0.0,0.0,0.0,0.0,0.0,0.0,0.0,0.0,0.0,0.0,0.0,0.0,0.0,0.0,0.0,0.0,0.0,0.0,0.0,0.0,0.0,0.0,0.0,0.0,0.0,0.0,0.0,0.0,0.0,0.0,0.0,0.0,0.0,0.0,0.0,0.0,0.0,0.0,0.0,0.0,0.0,0.0,0.0,0.0,0.0,0.0,0.0,0.0,0.0,0.0,0.0,0.0,0.0,0.0,0.0,0.0,0.0,0.0,0.0,0.0,0.0,0.0,0.0,0.0,0.0,0.0,0.0,0.0,0.0,0.0,0.0,0.0,0.0,0.0,0.0,0.0,0.0,0.0,0.0,0.0,0.0,0.0,0.0,0.0,0.0,0.0,0.0,0.0,0.0,0.0,0.0,0.0,0.0,0.0,0.0,0.0,0.0,-5.9255,-6.7869,-6.8187,-6.6941,-6.6507,-6.7622,-6.5017,-5.901,-4.8902,-4.3931,0.0,0.0,0.0,0.0,0.0,0.0,0.0,0.0,0.0,0.0,0.0,0.0,0.0,0.0,0.0,0.0,0.0,0.0,0.0,0.0,0.0,0.0,0.0,0.0,0.0,0.0,0.0,0.0,0.0,0.0,0.0,0.0,0.0,0.0,0.0,0.0,0.0,0.0,0.0,0.0,0.0,0.0,0.0,0.0,0.0,0.0,0.0,0.0,0.0,0.0,0.0,0.0,0.0,0.0,0.0,0.0,0.0,0.0,0.0,0.0,0.0,0.0,0.0,0.0,0.0,0.0,0.0,0.0,0.0,0.0,0.0,0.0,0.0,0.0,0.0,0.0,0.0,0.0,0.0,0.0,0.0,0.0,0.0,0.0,0.0,0.0,0.0,0.0,0.0,0.0,0.0,0.0,0.0,0.0,0.0,0.0,0.0,0.0,0.0,0.0,0.0,0.0,-5.8703,-6.2337,-6.5803,-6.5958,-6.488,-6.2631,-6.2836,-5.7845,-4.5493,-4.2548,0.0,0.0,0.0,0.0,0.0,0.0,0.0,0.0,0.0,0.0,0.0,0.0,0.0,0.0,0.0,0.0,0.0,0.0,0.0,0.0,0.0,0.0,0.0,0.0,0.0,0.0,0.0,0.0,0.0,0.0,0.0,0.0,0.0,0.0,0.0,0.0,0.0,0.0,0.0,0.0,0.0,0.0,0.0,0.0,0.0,0.0,0.0,0.0,0.0,0.0,0.0,0.0,0.0,0.0,0.0,0.0,0.0,0.0,0.0,0.0,0.0,0.0,0.0,0.0,0.0,0.0,0.0,0.0,0.0,0.0,0.0,0.0,0.0,0.0,0.0,0.0,0.0,0.0,0.0,0.0,0.0,0.0,0.0,0.0,0.0,0.0,0.0,0.0,0.0,0.0,0.0,0.0,0.0,0.0,0.0,0.0,0.0,0.0,0.0,0.0,0.0,0.0,-4.9508,-5.5501,-6.4774,-6.5135,-6.395,-6.2036,-6.1319,-5.629,-4.537,-4.172,0.0,0.0,0.0,0.0,0.0,0.0,0.0,0.0,0.0,0.0,0.0,0.0,0.0,0.0,0.0,0.0,0.0,0.0,0.0,0.0,0.0,0.0,0.0,0.0,0.0,0.0,0.0,0.0,0.0,0.0,0.0,0.0,0.0,0.0,0.0,0.0,0.0,0.0,0.0,0.0,0.0,0.0,0.0,0.0,0.0,0.0,0.0,0.0,0.0,0.0,0.0,0.0,0.0,0.0,0.0,0.0,0.0,0.0,0.0,0.0,0.0,0.0,0.0,0.0,0.0,0.0,0.0,0.0,0.0,0.0,0.0,0.0,0.0,0.0,0.0,0.0,0.0,0.0,0.0,0.0,0.0,0.0,0.0,0.0,0.0,0.0,0.0,0.0,0.0,0.0,0.0,0.0,0.0,0.0,0.0,0.0,0.0,0.0,0.0,0.0,0.0,0.0,0.0,-5.0632,-6.3554,-6.4043,-6.3194,-6.259,-5.9968,-5.4755,-4.6216,0.0,0.0,0.0,0.0,0.0,0.0,0.0,0.0,0.0,0.0,0.0,0.0,0.0,0.0,0.0,0.0,0.0,0.0,0.0,0.0,0.0,0.0,0.0,0.0,0.0,0.0,0.0,0.0,0.0,0.0,0.0,0.0,0.0,0.0,0.0,0.0,0.0,0.0,0.0,0.0,0.0,0.0,0.0,0.0,0.0,0.0,0.0,0.0,0.0,0.0,0.0,0.0,0.0,0.0,0.0,0.0,0.0,0.0,0.0,0.0,0.0,0.0,0.0,0.0,0.0,0.0,0.0,0.0,0.0,0.0,0.0,0.0,0.0,0.0,0.0,0.0,0.0,0.0,0.0,0.0,0.0,0.0,0.0,0.0,0.0,0.0,0.0,0.0,0.0,0.0,0.0,0.0,0.0,0.0,0.0,0.0,0.0,0.0,0.0,0.0,0.0,0.0,0.0,0.0,-5.5263,-5.9119,-6.1539,-6.1717,-5.8846,-5.8133,-5.3837,-4.4373,0.0,0.0,0.0,0.0,0.0,0.0,0.0,0.0,0.0,0.0,0.0,0.0,0.0,0.0]}],[{"header":{"parameterUnit":"kt","parameterCategory":2,"dx":1,"dy":1,"la1":29.285339999999998,"la2":30.599998999999997,"lo1":-89.70041500000002,"lo2":-87.6738589999976,"nx":112,"ny":82,"refTime":"2022-10-14T12:00:00:Z","depth":0,"parameterNumber":2,"parameterNumberName":"V-component_of_WINDS"},"data":[3.5643,3.5964,3.5332,3.022,2.8598,2.6711,2.052,2.1158,2.2154,1.882,2.0829,2.2909,2.1941,2.0911,1.9855,1.8848,1.7858,1.6467,0.0,1.4236,1.4941,1.6358,0.0,0.0,0.0,2.4605,2.7458,3.4431,3.1913,3.2435,3.7778,3.6789,3.5879,3.5478,3.6034,3.611,3.551,3.614,3.6258,3.5871,3.7261,3.7563,3.6843,3.7563,3.7262,3.6001,3.4526,3.3408,3.2555,3.1411,3.222,3.4126,3.1846,3.0885,3.09,3.0867,3.089,3.089,3.089,3.089,3.089,3.089,3.089,3.089,3.089,3.089,3.089,3.089,3.089,3.089,3.089,3.089,3.1133,3.1948,3.2192,3.2394,3.3355,3.3684,3.3833,3.3833,3.3566,3.3547,3.3491,3.302,3.2407,3.1783,3.1371,3.1348,3.1876,3.1727,3.1544,3.1713,3.2007,3.1781,3.0764,3.0846,3.089,3.089,3.089,3.0579,2.9852,3.0475,3.066,3.0112,3.0672,3.0973,3.116,3.1172,3.1172,3.1184,3.1547,3.1723,3.3386,3.3993,3.3462,2.7822,2.6286,2.461,1.8494,1.8897,1.9691,1.6483,1.9224,2.1256,1.8214,1.8462,1.8551,1.6852,1.6772,1.6306,0.0,1.4657,1.5542,1.7485,2.0749,2.3438,2.5081,2.6162,2.8472,3.2486,3.0789,3.1307,3.5397,3.427,3.3447,3.3128,3.3729,3.3772,3.3207,3.3776,3.3767,3.315,3.4444,3.484,3.4125,3.484,3.4441,3.2975,3.1593,3.0909,3.0909,3.0909,3.0876,3.0879,3.0956,3.0876,3.089,3.089,3.089,3.089,3.089,3.089,3.089,3.089,3.089,3.089,3.089,3.089,3.089,3.089,3.089,3.089,3.089,3.089,3.089,3.089,3.089,3.0984,3.1313,3.1383,3.1442,3.1618,3.1512,3.1395,3.1418,3.1125,3.0996,3.1336,3.1102,3.0904,3.0821,3.0544,3.0395,3.0458,3.0784,3.0773,3.0284,3.06,3.0904,3.116,3.0672,2.9956,2.9226,2.9539,2.9632,2.9133,2.9956,3.0475,3.089,3.089,3.089,3.089,3.089,3.089,3.0603,3.013,2.9202,2.2376,2.1293,2.0728,1.5942,1.6574,1.7596,1.556,1.704,1.8235,1.6769,1.7092,1.7074,1.5479,1.6647,0.0,0.0,1.6169,1.7663,2.0016,2.2889,2.5828,2.8831,2.5934,2.5899,3.0826,2.7048,2.675,3.196,3.1235,3.0662,3.0644,3.1173,3.0951,3.0151,3.0644,3.089,3.089,3.089,3.089,3.089,3.089,3.089,3.089,3.089,3.089,3.089,3.089,3.089,3.089,3.089,3.089,3.089,3.089,3.089,3.089,3.089,3.089,3.089,3.089,3.089,3.089,3.089,3.089,3.089,3.089,3.089,3.089,3.089,3.089,3.089,3.089,3.089,3.089,3.0902,3.0914,3.1055,3.1547,3.1242,3.1231,3.224,3.1559,3.089,3.089,3.089,3.0475,2.9331,2.9542,2.9599,2.8972,2.8925,2.9102,2.9409,3.0041,3.0762,3.1547,3.0007,2.9133,2.9029,2.8171,2.8067,2.9029,2.9133,2.9747,3.089,3.089,3.089,3.089,3.0787,3.0775,2.6433,2.5797,2.5166,2.2173,2.1429,2.0503,1.7218,1.6072,1.5614,1.5239,1.5248,0.0,0.0,0.0,1.592,1.6113,0.0,1.9687,1.8073,2.0885,2.401,2.6253,2.7128,2.8796,3.1785,2.9468,2.9428,3.3198,2.8112,2.6492,3.0371,2.9269,2.896,2.9693,2.986,3.0175,3.0668,3.082,3.089,3.089,3.089,3.089,3.089,3.089,3.089,3.089,3.089,3.089,3.089,3.089,3.089,3.089,3.089,3.089,3.089,3.089,3.089,3.089,3.089,3.089,3.089,3.089,3.089,3.089,3.089,3.089,3.089,3.089,3.089,3.089,3.089,3.089,3.089,3.089,3.089,3.0984,3.136,3.1465,3.1512,3.163,3.1536,3.1418,3.1336,3.1078,3.089,3.089,3.0164,2.9539,2.9226,2.8153,2.7306,2.7102,2.7512,2.7622,2.7312,2.858,2.9231,2.8723,2.8246,2.7648,2.6829,2.7344,2.7334,2.6724,2.8391,2.9331,2.9643,3.0475,3.089,3.089,2.9215,2.8716,2.5634,2.5071,2.4737,2.196,2.2145,2.1877,1.7592,1.6412,1.6039,1.5293,0.0,0.0,0.0,0.0,0.0,0.0,1.9704,2.1718,2.0504,2.3958,2.7349,2.9207,3.1022,3.2493,3.3648,3.1287,3.0495,3.235,2.804,2.6371,2.8949,2.8259,2.8274,2.933,2.9365,2.9858,3.0879,3.089,3.089,3.089,3.089,3.089,3.089,3.089,3.089,3.089,3.089,3.089,3.089,3.089,3.089,3.089,3.089,3.089,3.089,3.089,3.089,3.089,3.089,3.089,3.089,3.089,3.089,3.089,3.089,3.089,3.089,3.089,3.089,3.089,3.089,3.089,3.089,3.089,3.089,3.0973,3.1266,3.1348,3.1348,3.1325,3.1325,3.1231,3.0937,3.089,3.089,3.089,2.9956,2.9018,2.86,2.7149,2.61,2.5853,2.6093,2.6208,2.6032,2.7342,2.7929,2.741,2.7718,2.7402,2.6148,2.6172,2.6083,2.5882,2.7144,2.7973,2.8496,2.9215,2.9528,2.9528,2.8171,2.772,2.6069,2.5445,2.5219,2.1371,2.2355,2.2951,1.7822,0.0,1.8095,1.6772,0.0,1.5567,1.635,0.0,0.0,1.757,2.1363,2.3924,2.2983,2.6054,2.8931,3.0348,3.3875,3.5642,3.444,3.2102,3.0484,2.995,2.7564,2.6539,2.7699,2.7793,2.8274,2.933,2.9365,2.9858,3.0879,3.089,3.089,3.089,3.089,3.089,3.089,3.089,3.089,3.089,3.089,3.089,3.089,3.089,3.089,3.089,3.089,3.089,3.089,3.089,3.089,3.089,3.089,3.089,3.089,3.089,3.089,3.089,3.089,3.089,3.089,3.089,3.089,3.089,3.089,3.089,3.089,3.089,3.089,3.089,3.089,3.089,3.089,3.089,3.089,3.0787,3.0568,3.0579,3.0579,3.0579,2.9539,2.8496,2.7543,2.6399,2.5393,2.4815,2.4744,2.4881,2.523,2.628,2.6841,2.6702,2.7458,2.7451,2.6217,2.4793,2.4606,2.5671,2.5777,2.6399,2.7438,2.7543,2.7438,2.7218,2.7177,2.7282,2.165,1.9658,1.8567,1.9069,1.817,1.7862,0.0,0.0,0.0,2.4058,2.4116,2.3813,2.4597,2.4897,2.4787,2.4033,2.6785,2.8302,2.6108,2.8812,3.1407,3.2647,3.3417,3.3798,3.3539,3.3019,3.1943,3.009,2.8428,2.7555,2.777,2.7793,2.8274,2.933,2.9365,2.9858,3.0879,3.089,3.089,3.089,3.089,3.089,3.089,3.089,3.089,3.089,3.089,3.089,3.089,3.089,3.089,3.089,3.089,3.089,3.089,3.089,3.089,3.089,3.089,3.089,3.089,3.089,3.089,3.089,3.089,3.089,3.089,3.089,3.089,3.089,3.089,3.089,3.089,3.089,3.089,3.089,3.089,3.089,3.089,3.089,3.089,3.0371,2.8589,2.8276,2.8276,2.8276,2.7229,2.6409,2.6198,2.5134,2.4423,2.4294,2.4303,2.433,2.4413,2.4942,2.5105,2.4654,2.52,2.5298,2.4631,2.422,2.4183,2.4395,2.5355,2.5988,2.6188,2.7124,2.6599,2.4799,2.4478,2.5028,1.9401,1.8189,1.7773,1.7717,1.7628,0.0,0.0,1.9432,2.0181,2.2866,2.3465,2.397,2.5482,2.6088,2.6159,2.5752,2.7689,2.8853,2.7566,2.9833,3.1924,3.2789,3.3014,3.3183,3.3263,3.2257,3.1127,3.0023,2.8619,2.7793,2.7793,2.7793,2.8274,2.933,2.9586,3.007,3.0879,3.089,3.089,3.089,3.089,3.089,3.089,3.089,3.089,3.089,3.089,3.089,3.089,3.089,3.089,3.089,3.089,3.089,3.089,3.089,3.089,3.089,3.089,3.089,3.089,3.089,3.089,3.089,3.089,3.089,3.089,3.089,3.089,3.089,3.089,3.089,3.089,3.089,3.089,3.089,3.089,3.089,3.0787,3.0164,3.006,2.9528,2.7857,2.7648,2.7648,2.7648,2.6609,2.5882,2.5882,2.4818,2.4078,2.4078,2.4078,2.4078,2.4078,2.4376,2.4496,2.4496,2.4496,2.4496,2.4496,2.4294,2.4078,2.4078,2.4712,2.4923,2.4923,2.5547,2.5125,2.3776,2.3584,2.3802,1.7677,1.7677,1.8248,1.7243,1.8058,0.0,1.8806,1.9371,2.0393,2.1971,2.2877,2.3952,2.5695,2.6554,2.686,2.6403,2.768,2.8509,2.8158,2.957,3.088,3.1459,3.179,3.2082,3.2163,3.053,2.9547,2.9547,2.8433,2.7793,2.7793,2.7887,2.838,2.933,2.9791,3.0289,3.0879,3.089,3.089,3.089,3.089,3.089,3.089,3.089,3.089,3.089,3.089,3.089,3.089,3.089,3.089,3.089,3.089,3.089,3.089,3.089,3.089,3.089,3.089,3.089,3.089,3.089,3.089,3.089,3.089,3.089,3.089,3.089,3.089,3.089,3.089,3.089,3.089,3.089,3.089,3.089,3.089,3.089,3.0475,2.8809,2.8507,2.8182,2.7124,2.6914,2.6914,2.6914,2.6083,2.5461,2.5461,2.4712,2.4078,2.4078,2.4078,2.4078,2.4078,2.4078,2.433,2.467,2.4367,2.433,2.4679,2.4358,2.4078,2.4078,2.4078,2.4078,2.4078,2.4078,2.3876,2.3492,2.341,2.3191,1.5277,1.5256,1.6241,1.8134,1.7129,0.0,2.5058,2.5253,2.5228,3.0053,3.1158,3.1296,3.1516,3.1656,3.1084,2.9042,2.9663,2.9733,2.7942,2.7551,2.7833,2.888,2.8605,2.8343,2.8424,2.819,2.8073,2.8073,2.7886,2.7793,2.7793,2.8251,2.8779,2.9354,2.9811,3.0316,3.0879,3.089,3.089,3.089,3.089,3.089,3.089,3.089,3.089,3.089,3.089,3.089,3.089,3.089,3.089,3.089,3.089,3.089,3.089,3.089,3.089,3.089,3.089,3.089,3.089,3.089,3.089,3.089,3.089,3.089,3.089,3.089,3.089,3.089,3.089,3.089,3.089,3.089,3.089,3.089,3.089,3.089,2.9956,2.6829,2.6198,2.5882,2.4703,2.4491,2.4491,2.4491,2.4386,2.4289,2.4289,2.4183,2.4078,2.4078,2.4078,2.4078,2.4078,2.4078,2.4096,2.4142,2.4096,2.4096,2.4142,2.4096,2.4078,2.4078,2.4078,2.4078,2.4078,2.4078,2.3876,2.3483,2.3219,2.3017,1.3369,1.3998,1.5228,1.6573,0.0,0.0,2.2136,2.2845,2.3558,2.7502,2.9061,2.999,3.0835,3.0956,3.0635,2.9315,2.9248,2.8753,2.706,2.7988,2.8689,2.8157,2.8474,2.8462,2.7852,2.7793,2.7793,2.7793,2.7793,2.7793,2.7793,2.8309,2.8837,2.9354,2.9758,3.0261,3.0879,3.089,3.089,3.089,3.089,3.089,3.089,3.089,3.089,3.089,3.089,3.089,3.089,3.089,3.089,3.089,3.089,3.089,3.089,3.089,3.089,3.089,3.089,3.089,3.089,3.089,3.089,3.089,3.089,3.089,3.089,3.089,3.089,3.089,3.089,3.089,3.089,3.089,3.089,3.0683,3.006,2.9852,2.9122,2.6409,2.5882,2.5461,2.4289,2.4078,2.4078,2.4078,2.4078,2.4078,2.4078,2.4078,2.4078,2.4078,2.4078,2.4078,2.4078,2.4078,2.4078,2.4078,2.4078,2.4078,2.4078,2.4078,2.4078,2.4078,2.4078,2.4078,2.4078,2.4078,2.3995,2.3821,2.3274,2.2723,1.2283,0.0,0.0,0.0,0.0,0.0,2.1162,2.2006,2.2791,2.5143,2.6741,2.8015,2.905,2.9209,2.9033,2.8369,2.8125,2.7637,2.6633,2.8286,2.9296,2.8298,2.8896,2.9013,2.811,2.8145,2.811,2.7805,2.7934,2.7946,2.7793,2.8169,2.8685,2.9354,2.9886,3.0401,3.0879,3.089,3.089,3.089,3.089,3.089,3.089,3.089,3.089,3.089,3.089,3.089,3.089,3.089,3.089,3.089,3.089,3.089,3.089,3.089,3.089,3.089,3.089,3.089,3.089,3.089,3.089,3.089,3.089,3.089,3.089,3.089,3.089,3.089,3.089,3.0683,3.0475,3.0475,3.0152,2.9736,2.8914,2.8496,2.7658,2.5767,2.5355,2.5144,2.4289,2.4078,2.4078,2.4078,2.4078,2.4078,2.4078,2.4078,2.4078,2.4078,2.4078,2.4078,2.4078,2.4078,2.4078,2.4078,2.4078,2.4078,2.4078,2.4078,2.4078,2.4078,2.4078,2.4078,2.4078,2.3537,2.3483,2.3895,2.2675,2.2027,0.0,0.0,0.0,2.0495,2.102,2.1902,2.5887,2.5954,2.5415,2.623,2.6973,2.7458,2.7441,2.7467,2.7208,2.6291,2.6628,2.7077,2.7027,2.7946,2.8802,2.9271,2.9354,2.9154,2.8638,2.9037,2.8896,2.7864,2.8286,2.8345,2.7817,2.7805,2.8286,2.933,3.0339,3.0879,3.089,3.089,3.089,3.089,3.089,3.089,3.089,3.089,3.089,3.089,3.089,3.089,3.089,3.089,3.089,3.089,3.089,3.089,3.089,3.089,3.089,3.089,3.089,3.089,3.089,3.089,3.089,3.089,3.089,3.089,3.089,3.089,3.089,3.089,3.089,3.006,2.9226,2.9226,2.8485,2.7753,2.7648,2.6714,2.5566,2.4395,2.4174,2.4183,2.4078,2.4078,2.4078,2.4078,2.4078,2.4078,2.4078,2.4078,2.4078,2.4078,2.4078,2.4078,2.4078,2.4078,2.4078,2.4078,2.4078,2.4078,2.4078,2.4078,2.4078,2.4078,2.4078,2.4078,2.4078,2.2216,2.2035,2.3492,2.1163,2.0697,1.3777,1.5714,1.8078,2.0217,2.1015,2.1942,2.4587,2.5379,2.5845,2.6894,2.7243,2.7385,2.7385,2.7126,2.6702,2.6126,2.6628,2.688,2.6592,2.8016,2.9048,2.8884,2.9459,2.967,2.9166,2.9271,2.9224,2.8861,2.8697,2.8521,2.8345,2.7981,2.8274,2.933,2.9694,3.0198,3.0879,3.089,3.089,3.089,3.089,3.089,3.089,3.089,3.089,3.089,3.089,3.089,3.089,3.089,3.089,3.089,3.089,3.089,3.089,3.089,3.089,3.089,3.089,3.089,3.089,3.089,3.089,3.089,3.089,3.089,3.089,3.089,3.089,3.0787,2.9956,2.9435,2.9018,2.8276,2.7857,2.7438,2.6609,2.5556,2.4606,2.4183,2.4078,2.4078,2.4078,2.4078,2.4078,2.4078,2.4078,2.4078,2.4078,2.4078,2.4078,2.4078,2.4078,2.4078,2.4078,2.4078,2.4078,2.4078,2.4078,2.4078,2.4078,2.4078,2.4078,2.4078,2.4078,2.2887,2.0533,1.9789,1.9723,1.9994,1.8919,1.8643,1.5537,1.7345,1.9098,2.0823,2.1915,2.2922,2.4214,2.5225,2.6112,2.6931,2.7243,2.7385,2.7385,2.6867,2.6291,2.5866,2.6372,2.6632,2.6268,2.8063,2.9248,2.8919,2.9776,3.0198,2.9694,2.9799,2.9764,2.9389,2.9236,2.899,2.8626,2.8274,2.8474,2.9342,2.9365,2.9858,3.0879,3.089,3.089,3.089,3.089,3.089,3.089,3.089,3.089,3.089,3.089,3.089,3.0902,3.1078,3.0951,3.0543,3.1266,3.1231,3.0796,3.1336,3.1454,3.1454,3.1454,3.1325,3.1195,3.1383,3.1195,3.0914,3.1102,3.1031,3.0787,3.0371,3.0268,3.006,2.8914,2.86,2.8287,2.7229,2.7029,2.6284,2.3953,2.3327,2.3221,2.3221,2.3645,2.4078,2.4078,2.4078,2.4078,2.4078,2.3539,2.3433,2.4078,2.3539,2.3433,2.4078,2.4078,2.4078,2.4078,2.4078,2.3857,2.3221,2.3221,2.2903,2.2364,2.2249,2.2249,2.2249,2.2249,2.1057,1.8518,1.7792,1.763,1.8023,1.7102,1.6954,1.7407,1.9308,2.0758,2.2416,2.3706,2.467,2.4862,2.5684,2.641,2.6475,2.7009,2.7385,2.7385,2.662,2.5866,2.5536,2.5931,2.6268,2.6268,2.8063,2.9365,2.9365,3.0269,3.0703,3.0222,3.0597,3.0492,2.9518,2.987,2.9694,2.8708,2.8626,2.8826,2.9307,2.9354,2.9846,3.0832,3.0879,3.089,3.089,3.089,3.089,3.089,3.089,3.089,3.0787,3.0775,3.0798,3.0857,3.1348,3.0813,2.9811,3.1601,3.1555,3.0549,3.1785,3.2354,3.2354,3.2244,3.2014,3.177,3.207,3.1569,3.0834,3.1183,3.088,3.0291,2.9133,2.8809,2.86,2.7637,2.7323,2.7019,2.5872,2.5566,2.428,2.0006,2.0334,2.1415,2.1415,2.2691,2.3857,2.3857,2.3857,2.3857,2.3857,2.2478,2.2053,2.3645,2.2478,2.2053,2.3645,2.3857,2.3857,2.3857,2.3857,2.3115,2.1521,2.1415,2.0768,1.9152,1.9045,1.9038,1.9023,1.8803,1.8502,1.798,1.6085,1.5934,1.7377,1.5535,1.5412,1.7807,2.0501,2.2317,2.3336,2.3842,2.4369,2.5253,2.5684,2.6139,2.6996,2.7282,2.7303,2.688,2.6373,2.5866,2.5536,2.5931,2.6268,2.6268,2.8063,2.9365,2.9365,3.0269,3.0832,3.0703,3.0808,3.0773,3.0515,3.0269,2.9846,2.9213,2.8814,2.8661,2.8802,2.9178,2.967,3.0316,3.0703,3.089,3.089,3.089,3.089,3.089,3.089,3.0475,2.9539,2.8798,2.8585,2.893,2.9049,2.9092,2.9085,2.9531,2.9464,2.9244,2.9584,3.0232,3.0888,3.0023,3.0821,3.183,2.9191,2.8387,2.8247,2.6747,2.5621,2.4808,2.4855,2.4436,2.4101,2.4339,2.3503,2.255,2.2691,2.1718,2.0432,1.9259,1.9365,1.9693,1.9693,2.0006,2.0326,2.0326,2.0326,2.0326,2.0326,2.0006,1.9793,2.0326,2.0006,1.9899,2.0326,2.0326,2.0326,2.0326,2.0326,2.0113,1.9693,1.9693,1.9472,1.9045,1.9045,1.8936,1.8712,1.6291,1.4774,1.4256,1.3692,1.3563,1.3763,1.3311,1.3283,1.7345,2.041,2.2933,2.3701,2.3918,2.423,2.5412,2.5684,2.6009,2.7152,2.7208,2.6867,2.6208,2.5961,2.5618,2.5205,2.557,2.6022,2.6245,2.7864,2.9119,2.9342,3.0269,3.089,3.089,3.089,3.089,3.089,3.0621,3.0245,2.9729,2.9213,2.8943,2.8943,2.9002,2.9389,3.0116,3.0182,3.0438,3.089,3.089,3.089,3.089,3.0937,3.0115,2.8704,2.8069,2.8119,2.845,2.8648,2.8546,2.8348,2.9112,2.9082,2.8499,2.8254,2.8581,2.8908,2.7445,2.7767,2.8428,2.6834,2.6064,2.5599,2.4745,2.3665,2.268,2.2325,2.1897,2.1676,2.1481,2.0744,2.0113,2.044,1.98,1.8617,1.7118,1.6796,1.701,1.7768,1.851,1.9045,1.9045,1.9045,1.9045,1.9045,1.841,1.8196,1.8938,1.841,1.8196,1.8938,1.9045,1.9045,1.9045,1.9045,1.8724,1.7982,1.7982,1.7607,1.6736,1.6738,1.661,1.6324,1.4245,1.3083,1.2614,1.2614,1.2546,1.2415,1.2415,1.2415,1.7132,1.9992,2.2933,2.3701,2.3918,2.423,2.5412,2.5684,2.6009,2.7057,2.688,2.6386,2.5716,2.5562,2.542,2.4979,2.5306,2.5677,2.6209,2.7559,2.8697,2.9201,3.0163,3.0808,3.0879,3.089,3.089,3.089,3.089,3.0668,3.0151,2.9647,2.933,2.9271,2.8837,2.9037,2.9917,2.9506,2.9783,3.067,3.0867,3.0798,3.0579,3.0151,2.921,2.7839,2.7732,2.7871,2.8312,2.8692,2.8366,2.7507,2.8795,2.8744,2.7616,2.6883,2.6632,2.6516,2.4764,2.4088,2.4106,2.4579,2.3894,2.2778,2.3254,2.2552,2.1435,2.0311,1.9892,1.9678,1.8938,1.851,1.8403,1.8617,1.851,1.7547,1.4657,1.4015,1.4446,1.5955,1.7339,1.8403,1.8403,1.8403,1.8403,1.8403,1.7131,1.6701,1.8189,1.7131,1.6701,1.8189,1.8403,1.8403,1.8403,1.8403,1.7768,1.6277,1.617,1.5412,1.3695,1.3871,1.3632,1.3136,1.2956,1.275,1.2415,1.2415,1.2415,1.2415,1.2415,1.2415,2.013,2.1808,2.2933,2.3701,2.3918,2.423,2.5412,2.5684,2.584,2.6637,2.6455,2.625,2.6528,2.6275,2.608,2.6015,2.608,2.6174,2.6256,2.723,2.8133,2.8673,2.9635,3.0421,3.0843,3.089,3.089,3.089,3.089,3.0668,3.0151,2.9647,2.9178,2.8755,2.865,2.8685,2.8873,2.916,2.9497,2.9601,3.0451,3.0267,2.8853,2.6464,2.5662,2.6202,2.5239,2.5059,2.5572,2.5647,2.597,2.6134,2.4907,2.4434,2.4365,2.2719,2.2703,2.3389,2.2125,2.2882,2.4098,2.1163,2.0409,2.0204,1.8341,1.6938,1.5908,1.5877,1.5524,1.5411,1.6594,1.5949,1.5195,1.6594,1.5841,1.4657,1.4123,1.4015,1.4123,1.4339,1.4662,1.4872,1.4872,1.4872,1.4872,1.4872,1.4657,1.4554,1.4872,1.4657,1.4554,1.4872,1.4872,1.4872,1.4872,1.4872,1.4764,1.4446,1.4446,1.4235,1.3585,1.3616,1.332,1.2551,1.2787,1.275,1.2415,1.2415,1.2415,1.2415,1.2415,1.2415,1.8707,2.0525,2.2114,2.2509,2.3256,2.423,2.5412,2.553,2.5528,2.6148,2.6253,2.6117,2.6129,2.6148,2.6236,2.6233,2.6268,2.6268,2.6268,2.7394,2.8309,2.8579,2.9741,3.0621,3.0867,3.089,3.089,3.089,3.089,3.0773,3.0538,3.0034,2.953,2.9025,2.8152,2.8014,2.8603,2.7526,2.7496,2.8449,3.0082,2.9267,2.6184,2.4752,2.4594,2.5274,2.4728,2.4872,2.5451,2.5451,2.58,2.6208,2.422,2.3508,2.3312,2.0501,1.9787,2.0134,1.8607,1.8824,1.9517,1.814,1.7667,1.7434,1.6228,1.529,1.452,1.4371,1.4236,1.4231,1.4986,1.4554,1.4231,1.4986,1.4554,1.4015,1.4015,1.4015,1.4015,1.4015,1.4015,1.4015,1.4015,1.4015,1.4015,1.4015,1.4015,1.4015,1.4015,1.4015,1.4015,1.4015,1.4015,1.4015,1.4015,1.4015,1.4015,1.4015,1.4015,1.386,1.3405,1.3273,1.2988,1.242,1.2525,1.2525,1.2415,1.2415,1.2415,1.2415,1.2415,1.2415,1.7704,1.9523,2.1602,2.1867,2.2737,2.3918,2.536,2.5363,2.5256,2.5904,2.5955,2.5936,2.5783,2.5822,2.608,2.6526,2.6421,2.6268,2.6268,2.7336,2.818,2.8403,2.96,3.0527,3.0855,3.089,3.089,3.089,3.0683,3.0579,3.0579,2.9785,2.9178,2.8674,2.7392,2.6995,2.7769,2.572,2.5382,2.6968,2.8516,2.7516,2.4086,2.4119,2.4358,2.4679,2.4679,2.5047,2.5635,2.5736,2.5765,2.5534,2.3749,2.2781,2.214,1.8731,1.7437,1.7318,1.589,1.5302,1.5421,1.5906,1.5782,1.533,1.5325,1.495,1.4515,1.4148,1.4015,1.4015,1.4015,1.4015,1.4015,1.4015,1.4015,1.4015,1.4015,1.4015,1.4015,1.4015,1.4015,1.4015,1.4015,1.4057,1.4073,1.4026,1.4015,1.4036,1.4084,1.4047,1.4015,1.4015,1.4015,1.4015,1.4015,1.4015,1.4015,1.4015,1.3972,1.3653,1.3241,1.304,1.2808,1.242,1.2415,1.2415,1.2415,1.2415,1.2415,1.2415,1.2415,1.2415,2.0753,2.1473,2.2375,2.3412,2.3022,2.2876,2.5165,2.5363,2.5232,2.5748,2.5271,2.5272,2.6647,2.5715,2.5458,2.7347,2.6878,2.6268,2.6268,2.6385,2.6831,2.7758,2.8427,2.9365,3.075,3.089,3.089,3.089,2.9956,2.9331,2.9331,2.7938,2.6947,2.656,2.5907,2.5475,2.5253,2.4325,2.425,2.4955,2.4329,2.3998,2.4082,2.4147,2.4096,2.4132,2.4132,2.4178,2.427,2.4771,2.4156,2.2836,2.133,1.9897,1.8383,1.6364,1.5653,1.5534,1.5421,1.5302,1.5421,1.5421,1.5421,1.5217,1.4752,1.4615,1.4515,1.4148,1.4015,1.4015,1.4015,1.4015,1.4015,1.4015,1.4015,1.4015,1.4015,1.4015,1.4015,1.4015,1.4015,1.4015,1.4015,1.4087,1.4155,1.4047,1.4015,1.3986,1.4198,1.4039,1.4015,1.4015,1.4015,1.4015,1.4015,1.4015,1.4015,1.4015,1.3823,1.3495,1.3231,1.3199,1.2977,1.242,1.2415,1.2415,1.2415,1.2415,1.2415,1.2415,1.2415,1.2415,1.8308,1.8941,1.9784,2.0187,2.1724,2.3386,2.397,2.4363,2.4738,2.5067,2.5187,2.4977,2.4313,2.498,2.5464,2.5075,2.5707,2.6162,2.5857,2.6338,2.6995,2.7711,2.8544,2.9541,3.0773,3.089,3.089,3.089,3.0475,2.9852,2.9226,2.853,2.7679,2.6591,2.5544,2.5094,2.521,2.3409,2.3093,2.4173,2.3655,2.3459,2.3798,2.3712,2.3849,2.4078,2.4078,2.4078,2.4017,2.3682,2.3263,2.2596,2.0066,1.8634,1.791,1.6014,1.5302,1.5302,1.5302,1.5302,1.5302,1.5302,1.5302,1.5217,1.4752,1.4615,1.4515,1.4148,1.4015,1.4015,1.4015,1.4015,1.4015,1.4015,1.4015,1.4015,1.4015,1.4015,1.4015,1.4015,1.4015,1.4015,1.4015,1.3986,1.4018,1.4031,1.4015,1.4052,1.4034,1.4073,1.4015,1.4015,1.4015,1.4015,1.4015,1.4015,1.4015,1.4015,1.393,1.3548,1.303,1.2871,1.2609,1.2415,1.2415,1.2415,1.2415,1.2415,1.2415,1.2415,1.2415,1.2415,1.7202,1.7459,1.8067,1.8338,2.0711,2.2893,2.2828,2.324,2.3838,2.4486,2.4305,2.368,2.2571,2.3193,2.3777,2.343,2.4554,2.5596,2.5724,2.6491,2.716,2.7523,2.8497,2.9541,3.0562,3.0797,3.089,3.089,3.0579,2.9852,2.8705,2.8391,2.7448,2.586,2.471,2.428,2.4511,2.2681,2.2317,2.3468,2.3126,2.3181,2.3309,2.3437,2.3703,2.4078,2.4078,2.4078,2.4008,2.2724,2.1866,2.117,1.8934,1.7792,1.7081,1.5777,1.5302,1.5302,1.5302,1.5302,1.5302,1.5302,1.5302,1.5217,1.4752,1.4615,1.4515,1.4148,1.4015,1.4015,1.4015,1.4015,1.4015,1.4015,1.4015,1.4015,1.4015,1.4015,1.4015,1.4015,1.4015,1.4015,1.4015,1.4073,1.3986,1.4026,1.4137,1.4175,1.4036,1.4079,1.3986,1.4026,1.4015,1.4015,1.4015,1.4015,1.3988,1.3919,1.385,1.3453,1.2887,1.2609,1.2483,1.2415,1.2415,1.2415,1.2415,1.2415,1.2415,1.2415,1.2415,1.2415,1.906,1.8371,1.8163,1.9303,2.0114,2.0916,2.1892,2.2151,2.2588,2.3998,2.2321,2.1005,2.2159,2.0301,1.9689,2.3335,2.3946,2.4457,2.5973,2.6714,2.7031,2.7042,2.7969,2.9013,3.0034,3.0585,3.089,3.089,2.9852,2.8705,2.7648,2.6504,2.5163,2.3614,2.3191,2.2778,2.2392,2.197,2.197,2.2392,2.2392,2.2594,2.2989,2.3309,2.3703,2.4078,2.4078,2.4078,2.3972,2.2274,1.9872,1.7244,1.7811,1.6963,1.5421,1.5421,1.5302,1.5302,1.5302,1.5302,1.5302,1.5302,1.5302,1.5217,1.4752,1.4615,1.4515,1.4148,1.4015,1.4015,1.4015,1.4015,1.4015,1.4015,1.4015,1.4015,1.4015,1.4015,1.4015,1.4015,1.4015,1.4015,1.4015,1.4102,1.4176,1.4052,1.4309,1.4435,1.4073,1.4108,1.4166,1.4042,1.4015,1.4015,1.4015,1.4015,1.3919,1.3595,1.3357,1.312,1.2877,1.2866,1.275,1.242,1.2415,1.2415,1.2415,1.2415,1.2415,1.2415,1.2415,1.2415,1.709,1.6701,1.673,1.8096,1.9341,2.0378,2.1154,2.1992,2.2425,2.1899,2.0941,1.9807,1.8382,1.8951,1.9548,1.9286,2.0286,2.1667,2.3385,2.3561,2.442,2.6721,2.7629,2.8603,2.9999,3.0585,3.0579,2.9747,2.9331,2.8391,2.6504,2.6093,2.5297,2.4,2.3501,2.3099,2.2787,2.2392,2.2117,2.1961,2.1961,2.2181,2.2585,2.298,2.3291,2.3693,2.3959,2.4078,2.399,2.2421,2.0725,1.8833,1.6986,1.589,1.5302,1.5302,1.5302,1.5302,1.5302,1.5302,1.5302,1.5302,1.5302,1.5244,1.4948,1.4742,1.4552,1.4235,1.4034,1.4015,1.4015,1.4015,1.4015,1.4015,1.4015,1.4015,1.4015,1.4015,1.4015,1.4015,1.4015,1.4015,1.4015,1.4079,1.3991,1.4026,1.4143,1.4185,1.4036,1.4079,1.3991,1.4026,1.4015,1.4015,1.4015,1.4015,1.3919,1.359,1.3199,1.2871,1.2535,1.2525,1.2488,1.2415,1.2415,1.2415,1.2415,1.2415,1.2415,1.2415,1.2415,1.2415,1.6968,1.6571,1.6424,1.7928,1.8617,1.9076,1.9777,2.0271,2.0436,1.9614,1.9104,1.8192,1.6192,1.7065,1.7779,1.7145,1.8191,1.9755,2.1598,2.1832,2.2419,2.4365,2.5264,2.6511,2.8335,2.9047,2.9533,2.984,2.9446,2.8391,2.6609,2.6093,2.5345,2.4183,2.3547,2.3237,2.2971,2.2429,2.2025,2.1759,2.1759,2.1988,2.2402,2.2787,2.3099,2.352,2.3273,2.3115,2.3027,2.0781,1.9493,1.8587,1.6079,1.5149,1.5302,1.5302,1.5302,1.5302,1.5302,1.5302,1.5302,1.5302,1.5302,1.526,1.5038,1.4805,1.4567,1.4218,1.4087,1.4015,1.4015,1.4015,1.4015,1.4015,1.4015,1.4015,1.4015,1.4015,1.4015,1.4015,1.4015,1.4015,1.4015,1.4015,1.4015,1.4015,1.3946,1.3919,1.4004,1.394,1.3919,1.4004,1.4015,1.3983,1.3898,1.3892,1.3648,1.3331,1.303,1.276,1.2425,1.2415,1.2415,1.2415,1.2415,1.2415,1.2415,1.2415,1.2415,1.2415,1.2415,1.2215,1.7851,1.7388,1.685,1.8452,1.803,1.7434,1.7949,1.7669,1.7273,1.7171,1.6887,1.6333,1.5253,1.4649,1.4785,1.6523,1.7288,1.8373,2.0471,2.0978,2.1014,2.0636,2.1736,2.3353,2.544,2.6277,2.7739,3.0106,2.9215,2.8171,2.7323,2.6188,2.5144,2.4183,2.3449,2.3026,2.2971,2.2227,2.1727,2.1568,2.1473,2.1594,2.2009,2.2388,2.2785,2.3097,2.1894,2.1415,2.1202,1.7909,1.6721,1.6969,1.5306,1.4911,1.5302,1.5302,1.5302,1.5302,1.5302,1.5302,1.5302,1.5302,1.5302,1.526,1.5054,1.4816,1.4567,1.4234,1.4102,1.4015,1.4015,1.4015,1.4015,1.4015,1.4015,1.4015,1.4015,1.4015,1.4015,1.4015,1.4015,1.4015,1.4015,1.4015,1.4015,1.4015,1.3829,1.3653,1.3967,1.3706,1.3648,1.3946,1.3994,1.3924,1.3595,1.359,1.3394,1.2898,1.285,1.2739,1.242,1.2415,1.2415,1.2415,1.2415,1.2415,1.2318,1.2318,1.2318,1.2215,1.2215,1.1735,1.4748,1.5287,1.6021,1.6526,1.7768,1.8695,1.7929,1.748,1.6564,1.4503,1.4007,1.3571,1.2337,1.2717,1.3615,1.502,1.52,1.5952,1.7986,1.839,1.8992,2.0429,2.1402,2.2363,2.3256,2.4051,2.4525,2.4522,2.3811,2.3512,2.3751,2.3009,2.3018,2.4068,2.3895,2.3492,2.2971,2.2778,2.1786,1.9954,1.8788,1.8389,1.8636,1.9066,1.9404,1.9646,1.9657,1.9579,1.9495,1.7589,1.6895,1.6987,1.55,1.5054,1.5302,1.5302,1.5302,1.5302,1.5302,1.5302,1.5302,1.5302,1.5302,1.5291,1.5238,1.4937,1.4604,1.4546,1.4229,1.4015,1.4015,1.4015,1.4015,1.4015,1.4015,1.4015,1.4015,1.4015,1.4015,1.4015,1.4015,1.4015,1.4015,1.4015,1.4015,1.4015,1.3829,1.3595,1.3648,1.3611,1.3527,1.34,1.3802,1.3924,1.3595,1.3839,1.3553,1.2908,1.2593,1.2473,1.2415,1.2415,1.2415,1.2415,1.2415,1.2026,1.1248,1.1248,1.0854,1.008,1.008,0.9885,1.4459,1.5333,1.5833,1.4681,1.5968,1.7,1.5295,1.496,1.4422,1.2459,1.1732,1.1406,1.1417,1.1194,1.1472,1.3075,1.335,1.4042,1.5858,1.607,1.6571,1.7807,1.8386,1.9327,2.0753,2.128,2.1881,2.2564,2.1708,2.1391,2.1726,2.0874,2.0866,2.1718,2.1666,2.1621,2.1763,2.1048,1.9875,1.8316,1.7539,1.7152,1.7332,1.7886,1.8197,1.8283,1.8002,1.7875,1.7781,1.6221,1.5739,1.5862,1.5096,1.5011,1.5302,1.5302,1.5302,1.5302,1.5302,1.5302,1.5302,1.5302,1.5233,1.5149,1.5149,1.4821,1.4451,1.4451,1.4192,1.4015,1.4015,1.4015,1.4015,1.4015,1.4015,1.4015,1.4015,1.4015,1.4015,1.4015,1.4015,1.4015,1.4015,1.4015,1.3978,1.3876,1.3563,1.3416,1.3416,1.3424,1.3349,1.3225,1.3552,1.3695,1.3579,1.3585,1.3431,1.3051,1.2908,1.2443,1.174,1.1735,1.1535,1.1049,1.1049,1.0762,1.0177,1.0177,0.9881,0.93,0.93,0.9105,1.4988,1.5893,1.5829,1.3644,1.4143,1.4576,1.2413,1.2071,1.1929,1.0866,0.993,0.9678,1.0945,0.9812,0.9219,1.0819,1.1596,1.2584,1.4042,1.4339,1.4504,1.4801,1.5044,1.6051,1.8277,1.8621,1.9546,2.1528,2.0644,2.0105,2.0212,1.9259,1.8831,1.9045,1.8686,1.8895,1.964,1.8103,1.7178,1.6762,1.6473,1.6404,1.6466,1.7034,1.7311,1.7387,1.6479,1.617,1.6062,1.4554,1.4166,1.4562,1.4599,1.4874,1.5254,1.5286,1.5302,1.5302,1.5302,1.5302,1.5297,1.526,1.5122,1.4964,1.4927,1.461,1.414,1.4213,1.406,1.4015,1.4015,1.4015,1.4015,1.4015,1.4015,1.4015,1.4015,1.4015,1.4015,1.4015,1.4015,1.4015,1.4015,1.4015,1.394,1.3611,1.3373,1.3209,1.3172,1.3126,1.2977,1.2895,1.301,1.314,1.3296,1.3166,1.3041,1.2968,1.2758,1.206,1.0678,1.0664,1.0275,0.93,0.93,0.9202,0.9105,0.9105,0.9007,0.8812,0.8812,0.8425,1.3113,1.4291,1.5475,1.5328,1.5128,1.4661,1.3308,1.2115,1.0951,0.9803,0.8927,0.8348,0.8253,0.8325,0.8403,0.8358,0.9902,1.1742,1.3589,1.4385,1.4807,1.5091,1.5157,1.5396,1.5984,1.6545,1.7018,1.7113,1.6655,1.6809,1.7768,1.7238,1.756,1.9045,1.8994,1.8067,1.6291,1.4751,1.4386,1.5122,1.3767,1.3303,1.3515,1.3804,1.4049,1.4267,1.4331,1.4339,1.4339,1.4123,1.4065,1.4224,1.4536,1.4784,1.5043,1.5233,1.5302,1.5302,1.5302,1.5302,1.527,1.508,1.5001,1.4932,1.4731,1.4478,1.4219,1.4018,1.4042,1.4015,1.4015,1.4015,1.4015,1.4015,1.4015,1.4015,1.4015,1.4015,1.4015,1.4015,1.4015,1.4015,1.4015,1.4015,1.394,1.3611,1.3373,1.3146,1.2945,1.2976,1.2534,1.1381,1.1521,1.1775,1.1947,1.2174,1.2004,1.1638,1.0709,1.0011,0.9601,0.9592,0.9495,0.93,0.93,0.891,0.8034,0.8034,0.7546,0.6668,0.6668,0.657,1.3436,1.4409,1.5271,1.4907,1.4422,1.3711,1.2614,1.1649,1.0559,0.9001,0.8414,0.8051,0.7653,0.7476,0.7648,0.8396,0.9441,1.0759,1.2396,1.3412,1.4234,1.4669,1.486,1.5071,1.5361,1.5619,1.5667,1.544,1.5077,1.5057,1.5512,1.5303,1.5518,1.6265,1.6265,1.5761,1.456,1.3696,1.3349,1.3682,1.2863,1.2473,1.2583,1.2919,1.3162,1.34,1.3632,1.3903,1.4015,1.4015,1.4044,1.4171,1.452,1.4758,1.5001,1.5217,1.5302,1.5302,1.5302,1.5302,1.5281,1.518,1.498,1.4758,1.4647,1.4356,1.4044,1.4047,1.4015,1.4015,1.4015,1.4015,1.4015,1.4015,1.3475,1.3038,1.3038,1.2498,1.2065,1.2065,1.2065,1.2065,1.2065,1.2065,1.1964,1.1662,1.1533,1.1359,1.0939,1.0686,1.0375,1.0097,0.9911,1.0269,1.1405,1.0578,1.0042,1.0378,0.9964,0.9584,0.9308,0.8812,0.8519,0.8519,0.7937,0.7448,0.6962,0.6962,0.6668,0.6181,0.6181,0.6181,1.4461,0.0,1.4848,1.4107,1.3485,1.2718,0.0,1.09,0.9971,0.8295,0.7806,0.7621,0.7315,0.6767,0.6815,0.8196,0.8821,0.9625,1.1201,1.2285,1.3377,1.4315,1.453,1.4716,1.4962,1.5127,1.5046,1.4555,1.4445,1.4278,1.393,1.3988,1.4015,1.4015,1.4015,1.3908,1.3579,1.3342,1.3104,1.2866,1.2525,1.2415,1.242,1.2755,1.2998,1.3236,1.3474,1.3706,1.4015,1.4015,1.4013,1.4203,1.4499,1.4726,1.4921,1.5196,1.5302,1.5302,1.5302,1.5302,1.5291,1.5238,1.4906,1.452,1.4467,1.4198,1.4015,1.4015,1.3799,1.3583,1.3583,1.3367,1.3151,1.3151,1.2498,1.1849,1.1849,1.1091,1.0549,1.0549,1.0549,1.0549,1.0549,1.0549,1.0322,0.9981,0.9929,0.9802,0.9343,0.8744,0.8457,0.862,0.8156,0.8623,1.0552,0.8828,0.8124,0.9258,0.9028,0.8847,0.8624,0.7839,0.7448,0.7448,0.6668,0.6181,0.6181,0.6181,0.6181,0.6181,0.6181,0.6181,0.0,1.4969,1.3871,1.3818,1.3071,1.2028,1.082,0.9803,0.0,0.75,0.6793,0.6356,0.6331,0.5967,0.5824,0.6172,0.7168,0.8544,1.0335,1.128,1.246,1.4215,1.4434,1.4396,1.4481,1.5036,1.4872,1.3804,1.4147,1.4206,1.3706,1.3903,1.4015,1.4015,1.4015,1.3908,1.3579,1.3342,1.3104,1.2866,1.2525,1.2415,1.242,1.2755,1.2998,1.3236,1.3474,1.3706,1.4015,1.4015,1.4026,1.4084,1.4435,1.4626,1.4694,1.5133,1.5302,1.5302,1.5302,1.5302,1.5265,1.5059,1.4673,1.4245,1.4023,1.4042,1.4015,1.4015,1.3254,1.2389,1.2389,1.1524,1.0766,1.0766,1.0658,1.0658,1.0658,1.0549,1.0549,1.0549,1.0549,1.0549,1.0549,1.0549,1.0322,0.9981,0.9929,0.9802,0.9343,0.8751,0.7891,0.6573,0.6372,0.7046,0.8767,0.7344,0.6832,0.8054,0.7044,0.6483,0.6475,0.6377,0.6377,0.6377,0.6279,0.6181,0.6181,0.6181,0.6181,0.6181,0.6181,0.6181,1.5221,1.4979,1.4588,1.3981,1.304,1.1983,1.0952,0.9793,0.855,0.7114,0.6501,0.6145,0.589,0.5594,0.5924,0.7483,0.7862,0.8707,1.0687,1.1557,1.2308,1.3227,1.3775,1.413,1.4161,1.4388,1.429,1.367,1.3754,1.3716,1.3347,1.3574,1.3701,1.3701,1.3701,1.3834,1.3892,1.341,1.3178,1.3083,1.2598,1.2415,1.2415,1.2504,1.2855,1.3225,1.332,1.3563,0.0,1.4015,1.4015,1.4047,1.4266,1.4483,1.4652,1.4974,1.518,1.5302,1.5302,1.5302,1.5265,1.5043,1.4853,1.4631,1.4245,1.3575,1.2888,1.1993,1.1524,1.1199,1.1199,1.0874,1.0549,1.0549,0.9899,0.9357,0.9357,0.8818,0.8275,0.8275,0.8275,0.8275,0.8275,0.8275,0.8183,0.791,0.7869,0.7768,0.7387,0.7203,0.682,0.6279,0.6218,0.6444,0.7137,0.6598,0.6396,0.6835,0.65,0.6181,0.6181,0.6181,0.6181,0.6181,0.6181,0.6181,0.6181,0.6181,0.6181,0.6181,0.6181,0.6181,1.4604,1.4479,1.4203,1.3509,1.2608,1.168,1.0572,0.9424,0.8152,0.6597,0.6107,0.5828,0.558,0.5426,0.6023,0.7993,0.8209,0.8943,1.1115,1.1768,1.2236,1.2796,1.3399,1.3756,1.3754,1.3688,1.3574,1.3239,1.3332,1.3247,1.3104,1.3336,1.3431,1.3357,1.35,1.3648,1.3908,1.349,1.3294,1.3215,1.2813,1.2488,1.2415,1.2415,1.2771,1.322,1.322,1.3484,1.4015,1.4015,1.4015,1.4042,1.4166,1.4245,1.4541,1.4858,1.5064,1.5207,1.5275,1.5302,1.5265,1.5043,1.4969,1.4764,1.3956,1.2816,1.1663,1.0706,1.0224,0.9899,0.9899,0.9682,0.9357,0.9357,0.8818,0.8166,0.8166,0.7517,0.6973,0.6973,0.6973,0.6973,0.6973,0.6973,0.6907,0.6714,0.6655,0.656,0.6262,0.6205,0.6181,0.6181,0.6181,0.6197,0.6233,0.6202,0.6197,0.6233,0.6202,0.6181,0.6181,0.6181,0.6181,0.6181,0.6181,0.6181,0.6181,0.6181,0.6181,0.6181,0.6181,0.6181,1.4445,1.3433,1.2245,1.2245,1.1794,1.0898,0.9447,0.8445,0.7358,0.5916,0.5419,0.5247,0.5247,0.5459,0.6039,0.7193,0.7829,0.9015,1.1322,1.1649,1.2082,1.3241,1.3379,1.3329,1.3184,1.3129,1.2835,1.2491,1.263,1.2866,1.2866,1.3088,1.3109,1.2877,1.3326,1.3574,1.3579,1.3579,1.3458,1.322,1.2982,1.2739,1.2415,1.2415,1.2771,1.322,1.322,1.3484,1.4015,1.4015,1.4015,1.4042,1.4166,1.4145,1.4208,1.4789,1.4964,1.5001,1.5217,1.5297,1.5265,1.5043,1.4969,1.4648,1.2949,1.16,1.0671,1.0493,0.9577,0.8709,0.8709,0.784,0.6973,0.6973,0.6973,0.6973,0.6973,0.6973,0.6973,0.6973,0.6973,0.6973,0.6973,0.6973,0.6933,0.6812,0.6703,0.6589,0.647,0.6252,0.6181,0.6181,0.6181,0.6228,0.6443,0.6249,0.6231,0.6446,0.6246,0.6181,0.6181,0.6181,0.6181,0.6181,0.6181,0.6181,0.6181,0.6181,0.6181,0.6181,0.6181,0.6181,1.2887,1.2615,1.2245,1.2245,1.1794,1.095,0.9711,0.8537,0.741,0.6165,0.5551,0.5366,0.5736,0.5851,0.6454,0.808,0.861,0.946,1.1168,1.1768,1.2315,1.3067,1.3344,1.3322,1.3009,1.3076,1.2939,1.248,1.2478,1.2515,1.2515,1.2583,1.2766,1.2866,1.3167,1.341,1.3574,1.3579,1.3458,1.322,1.2982,1.2739,1.2415,1.2415,1.2771,1.322,1.322,1.3484,1.4015,1.4015,1.4015,1.4026,1.4089,1.4113,1.4166,1.4419,1.4684,1.4863,1.3991,1.3869,1.3837,1.2578,1.2284,1.2034,1.065,0.9965,0.9505,0.8463,0.7805,0.7514,0.7514,0.7299,0.6973,0.6973,0.6973,0.6973,0.6973,0.6973,0.6973,0.6973,0.6973,0.6973,0.6973,0.6973,0.6907,0.6711,0.6653,0.656,0.6259,0.6202,0.6181,0.6181,0.6181,0.6194,0.6231,0.6202,0.6197,0.6231,0.62,0.6181,0.6181,0.6181,0.6181,0.6181,0.6181,0.6181,0.6181,0.6181,0.5689,0.4609,0.4609,0.4019,1.2013,1.2088,1.2245,1.2245,1.1973,1.13,0.9952,0.8913,0.7793,0.6507,0.5731,0.5426,0.6074,0.6303,0.7067,0.9101,0.9678,1.0364,1.1926,1.246,1.2856,1.3311,1.3438,1.3425,1.2978,1.3072,1.2851,1.249,1.2406,1.2415,1.2415,1.2415,1.2478,1.2625,1.2956,1.3146,1.3294,1.3484,1.341,1.3077,1.303,1.2834,1.2415,1.2415,1.2771,1.322,1.322,1.3484,1.4015,1.4015,1.4015,1.4015,1.4015,1.3991,1.4019,1.3672,1.3711,1.3905,1.2632,1.2409,1.2431,1.15,1.049,0.9503,0.8756,0.8452,0.8245,0.7335,0.7029,0.6973,0.6973,0.6973,0.6973,0.6973,0.6973,0.6973,0.6973,0.6973,0.6973,0.6973,0.6973,0.6973,0.6973,0.6973,0.6928,0.679,0.6692,0.6581,0.6438,0.6239,0.6181,0.6181,0.6181,0.6181,0.6181,0.6181,0.6181,0.6181,0.6181,0.6181,0.6181,0.6226,0.6228,0.6184,0.5674,0.5375,0.5297,0.4578,0.3795,0.2974,0.2895,0.2395,1.1624,1.1856,1.2245,1.2245,1.2245,1.1867,1.0344,0.9362,0.8391,0.6948,0.6,0.5584,0.6225,0.683,0.7907,1.0056,1.0793,1.1596,1.3156,1.3405,1.3517,1.3765,1.3706,1.3553,1.3154,1.2957,1.2671,1.2439,1.2438,1.2404,1.2383,1.2404,1.2415,1.2415,1.2646,1.2866,1.2866,1.332,1.3331,1.2903,1.3099,1.2961,1.2446,1.2425,1.2771,1.322,1.322,1.3484,1.4015,1.4015,1.4015,1.4015,1.4015,1.4015,1.3825,1.2826,1.2473,1.2421,1.1286,1.0949,1.1095,1.0982,0.9252,0.7407,0.7196,0.7158,0.7127,0.7018,0.6981,0.6973,0.6973,0.6973,0.6973,0.6973,0.6973,0.6973,0.6973,0.6973,0.6976,0.6986,0.6989,0.6989,0.6989,0.7,0.6994,0.6963,0.6782,0.6639,0.6618,0.642,0.6181,0.6181,0.6181,0.6181,0.6181,0.6083,0.5985,0.5985,0.5885,0.5787,0.5787,0.5882,0.5889,0.5789,0.4466,0.3761,0.3637,0.2138,0.1333,0.131,0.1229,0.1125,1.1473,1.1856,1.2245,1.2245,1.2245,1.192,1.0673,0.983,0.8894,0.7257,0.6759,0.6468,0.589,0.7384,0.8894,0.9625,1.1135,1.2506,1.3268,1.3569,1.3647,1.3368,1.3375,1.3117,1.2546,1.2514,1.2406,1.2003,1.2248,1.2433,1.2264,1.2417,1.2415,1.2415,1.2646,1.2866,1.2866,1.3151,1.3246,1.3146,1.3009,1.2887,1.2787,1.2499,1.2771,1.322,1.322,1.3484,1.4015,1.4015,1.4015,1.4015,1.4015,1.4015,1.3804,1.2658,1.2372,1.2214,1.0092,0.9525,0.9428,0.851,0.7737,0.7201,0.7267,0.7225,0.7145,0.7119,0.7045,0.6973,0.6973,0.6973,0.6973,0.6973,0.6973,0.6973,0.6973,0.6973,0.7,0.7095,0.7111,0.7111,0.7111,0.719,0.7156,0.6878,0.6793,0.6698,0.6518,0.6267,0.6181,0.6181,0.6181,0.6181,0.6181,0.5099,0.4411,0.4411,0.3234,0.2547,0.2547,0.2558,0.2558,0.2547,0.2204,0.2119,0.2103,0.1638,0.082,-0.0302,-0.0303,-0.1004,1.1178,1.1555,1.1938,1.217,1.2245,1.2007,1.1104,1.0383,0.9559,0.8133,0.7609,0.7272,0.6919,0.8288,0.9764,1.0417,1.1952,1.3159,1.3517,1.3707,1.3764,1.3821,1.3578,1.334,1.3066,1.265,1.2248,1.2181,1.2141,1.2137,1.2021,1.2232,1.2401,1.241,1.2535,1.2598,1.2598,1.2935,1.3051,1.3051,1.304,1.3035,1.303,1.2792,1.294,1.3384,1.3273,1.3484,1.4015,1.4015,1.4015,1.4015,1.4015,1.4015,1.3799,1.2065,1.1537,1.125,0.8848,0.8142,0.7907,0.6388,0.6448,0.7076,0.714,0.7113,0.7066,0.7066,0.7021,0.6973,0.6973,0.6973,0.6973,0.6973,0.6973,0.6973,0.6973,0.6973,0.6992,0.7053,0.7066,0.7066,0.7066,0.7164,0.718,0.6994,0.6917,0.6817,0.6642,0.5052,0.3973,0.3973,0.3943,0.4019,0.4019,0.3234,0.2744,0.2744,0.196,0.1568,0.1568,0.1581,0.1589,0.1589,0.0816,0.041,0.0403,-0.0517,-0.1345,-0.2018,-0.2033,-0.2428,1.087,1.1178,1.1624,1.2088,1.2245,1.2099,1.1478,1.095,1.0315,0.9187,0.8518,0.8164,0.8262,0.9285,1.0463,1.1492,1.2631,1.353,1.3838,1.383,1.3927,1.4129,1.366,1.3438,1.3701,1.2764,1.2256,1.2353,1.1971,1.1767,1.1767,1.2125,1.2269,1.2449,1.2394,1.2415,1.2415,1.2609,1.2824,1.2871,1.3067,1.3183,1.3215,1.3019,1.3141,1.3505,1.3305,1.3463,1.3956,1.3956,1.387,1.3691,1.3691,1.3578,1.3146,1.0983,1.0095,0.9531,0.733,0.6595,0.6325,0.4485,0.4901,0.61,0.61,0.61,0.61,0.61,0.6318,0.6535,0.6535,0.6535,0.6535,0.6535,0.6318,0.61,0.61,0.6318,0.6649,0.7,0.7005,0.7005,0.7005,0.6879,0.6724,0.6704,0.6388,0.607,0.5878,0.3319,0.1522,0.1512,0.159,0.1573,0.1568,0.1274,0.1176,0.1176,0.0882,0.0784,0.0784,0.0895,0.0803,0.0705,-0.052,-0.1253,-0.122,-0.2732,-0.3462,-0.3348,-0.3291,-0.338,1.0742,1.1178,1.1624,1.2088,1.2245,1.2152,1.1742,1.1405,1.0904,0.9926,0.9677,0.9408,0.8803,0.9883,1.1121,1.1551,1.272,1.3793,1.4267,1.4119,1.3745,1.3102,1.2735,1.2604,1.2486,1.2111,1.1885,1.1917,1.1635,1.1519,1.1519,1.1947,1.2295,1.2227,1.2412,1.2415,1.2415,1.2441,1.2562,1.2866,1.2898,1.3025,1.322,1.3188,1.3209,1.3268,1.3236,1.3373,1.3622,1.3622,1.3199,1.2498,1.2498,1.1849,1.0766,0.9465,0.7952,0.6434,0.5119,0.4689,0.4367,0.2617,0.2289,0.2398,0.2398,0.2398,0.2398,0.2398,0.3485,0.468,0.468,0.468,0.468,0.468,0.3485,0.2398,0.2398,0.3594,0.5138,0.6884,0.7127,0.7127,0.7127,0.598,0.4879,0.4698,0.3413,0.2395,0.2282,0.1816,0.1564,0.1516,0.1508,0.1596,0.157,0.0294,-0.0491,-0.0491,-0.1767,-0.2455,-0.2455,-0.2461,-0.2482,-0.2624,-0.288,-0.3028,-0.3166,-0.3337,-0.3417,-0.3302,-0.331,-0.3762,1.0214,1.0534,1.0946,1.163,1.1781,1.1824,1.1924,1.1873,1.157,1.0852,1.0706,1.0489,0.9844,1.0659,1.1432,1.1649,1.2375,1.3055,1.347,1.3297,1.3089,1.3011,1.2799,1.2674,1.2737,1.2234,1.183,1.183,1.1492,1.1344,1.1466,1.1672,1.191,1.2274,1.228,1.2385,1.2415,1.2415,1.2535,1.2866,1.2866,1.2993,1.322,1.322,1.3294,1.3416,1.3278,1.3357,1.3458,1.217,1.2141,1.2758,0.9855,0.9268,0.9567,0.6854,0.533,0.4461,0.3267,0.2287,0.1307,0.0545,0.0981,0.1744,0.1744,0.1744,0.1744,0.1744,0.2288,0.2833,0.2833,0.2833,0.2833,0.2833,0.2288,0.1744,0.1744,0.2288,0.3167,0.396,0.4187,0.4187,0.4187,0.3572,0.315,0.3015,0.2329,0.1104,-0.0995,-0.1296,-0.1267,-0.1248,-0.1234,-0.1121,-0.1214,-0.1805,-0.2195,-0.2195,-0.2766,-0.3143,-0.3143,-0.3175,-0.3218,-0.3275,-0.3301,-0.3342,-0.3507,-0.3468,-0.3627,-0.4181,-0.4138,-0.4582,0.9875,1.0084,1.0334,1.1142,1.1323,1.1473,1.1938,1.2013,1.1964,1.1596,1.1445,1.1287,1.0998,1.1258,1.1586,1.1802,1.2025,1.2299,1.2675,1.2486,1.2576,1.2883,1.2837,1.2739,1.2986,1.2288,1.183,1.183,1.1402,1.113,1.1381,1.1445,1.164,1.1994,1.2157,1.2011,1.1645,1.1554,1.1467,1.1183,1.1733,1.1839,1.1488,1.1642,1.165,1.1785,1.1632,1.1579,1.1538,0.9774,0.9805,1.0699,0.6853,0.6278,0.7131,0.4216,0.282,0.2176,0.0867,-0.0432,-0.1401,-0.1413,-0.0652,0.0434,0.0435,0.0436,0.0436,0.0436,0.0763,0.109,0.109,0.109,0.109,0.109,0.0763,0.0436,0.0436,0.0763,0.109,0.109,0.1417,0.1744,0.1744,0.1431,0.1222,0.1227,0.0778,-0.0444,-0.311,-0.3478,-0.3525,-0.3509,-0.3361,-0.3328,-0.3314,-0.3275,-0.3354,-0.3354,-0.3197,-0.3165,-0.3165,-0.3193,-0.3234,-0.3291,-0.36,-0.3735,-0.3801,-0.4012,-0.4457,-0.5239,-0.5168,-0.5615,0.9969,0.9916,0.9913,1.0684,1.0882,1.1033,1.1398,1.1473,1.1617,1.213,1.19,1.1774,1.2106,1.1517,1.1247,1.2219,1.1902,1.1687,1.2211,1.2227,1.2283,1.2306,1.2279,1.2364,1.2491,1.2095,1.183,1.183,1.1402,1.1062,1.1073,1.136,1.1487,1.1508,1.173,1.1024,0.9333,0.9337,0.8368,0.657,0.877,0.8842,0.6946,0.7171,0.7229,0.6925,0.692,0.6671,0.6241,0.6131,0.5216,0.4023,0.3853,0.3139,0.2127,0.1915,0.086,-0.0761,-0.2568,-0.3158,-0.3236,-0.3345,-0.3342,-0.3202,-0.3255,-0.3271,-0.3271,-0.3271,-0.1962,-0.0654,-0.0654,-0.0654,-0.0654,-0.0654,-0.1962,-0.3271,-0.3271,-0.1853,-0.0654,-0.0654,0.0654,0.1744,0.1744,0.0436,-0.0658,-0.078,-0.2206,-0.3274,-0.3494,-0.3489,-0.3464,-0.3513,-0.3505,-0.3479,-0.3318,-0.331,-0.3308,-0.3308,-0.3257,-0.3327,-0.3327,-0.3176,-0.3175,-0.3335,-0.4243,-0.4788,-0.477,-0.5792,-0.6245,-0.6343,-0.6338,-0.6775,1.1148,1.0641,0.9731,1.0374,1.0499,1.065,1.1027,1.1103,1.1178,1.1335,1.1473,1.1578,1.1686,1.1787,1.1775,1.1805,1.138,1.1118,1.12,1.1192,1.1122,1.1279,1.1672,1.1989,1.2068,1.1661,1.1513,1.1809,1.1402,1.1057,1.1057,1.113,1.0796,0.9764,0.984,0.9056,0.7282,0.7278,0.6875,0.6251,0.6757,0.662,0.5833,0.5735,0.5881,0.6086,0.6086,0.621,0.6143,0.4379,0.4179,0.4613,0.1134,0.0311,0.1044,-0.0836,-0.1888,-0.2528,-0.3142,-0.333,-0.3319,-0.3361,-0.3361,-0.3348,-0.3369,-0.3376,-0.3384,-0.3529,-0.3003,-0.258,-0.25,-0.2508,-0.2508,-0.2508,-0.3053,-0.3489,-0.3489,-0.2944,-0.2508,-0.2508,-0.2071,-0.1635,-0.1635,-0.2071,-0.2512,-0.2638,-0.3064,-0.3489,-0.3489,-0.3489,-0.3481,-0.346,-0.3458,-0.3449,-0.3428,-0.3392,-0.3475,-0.3475,-0.3315,-0.3283,-0.3283,-0.4022,-0.4333,-0.4312,-0.5436,-0.5963,-0.5898,-0.617,-0.6717,-0.7451,-0.7362,-0.7787,1.0959,1.0624,1.0021,0.9781,0.9874,1.0197,1.0574,1.065,1.0725,1.0882,1.1103,1.1247,1.1247,1.1479,1.1479,1.1172,1.0725,1.0491,1.0341,1.0335,1.0404,1.0642,1.1149,1.1572,1.1809,1.1344,1.113,1.1677,1.136,1.1088,1.1162,1.1167,1.0405,0.8697,0.8609,0.7439,0.5031,0.5007,0.5074,0.5141,0.4146,0.3991,0.4603,0.3567,0.3199,0.3318,0.3318,0.3532,0.3652,0.1616,0.1711,0.2918,-0.1115,-0.1735,-0.041,-0.2565,-0.3273,-0.3258,-0.3278,-0.3271,-0.3262,-0.3301,-0.3301,-0.3289,-0.3307,-0.3312,-0.332,-0.336,-0.3476,-0.338,-0.342,-0.343,-0.343,-0.343,-0.343,-0.343,-0.343,-0.343,-0.343,-0.343,-0.343,-0.3436,-0.3456,-0.346,-0.3466,-0.3486,-0.3489,-0.3475,-0.3434,-0.343,-0.3437,-0.3457,-0.346,-0.3467,-0.3487,-0.3542,-0.3516,-0.3536,-0.3755,-0.3807,-0.383,-0.4866,-0.5355,-0.5293,-0.6403,-0.691,-0.6907,-0.7143,-0.7695,-0.8379,-0.8377,-0.8714,0.9356,0.9913,1.0806,0.8993,0.9116,0.9792,1.0169,1.0239,1.0395,1.0801,1.0882,1.0882,1.0882,1.0574,1.0342,1.0342,0.997,0.9754,0.9754,0.9934,1.0155,1.0388,1.0548,1.0957,1.1725,1.1083,1.0874,1.1418,1.1167,1.1141,1.1356,1.1377,1.0399,0.8279,0.8196,0.6424,0.2691,0.2603,0.2748,0.2948,0.0953,0.1058,0.2935,0.0392,-0.109,-0.1513,-0.1613,-0.163,-0.1758,-0.2135,-0.2119,-0.1812,-0.2771,-0.2881,-0.2623,-0.3127,-0.3192,-0.3151,-0.3209,-0.3191,-0.3161,-0.3271,-0.3271,-0.3339,-0.3291,-0.3307,-0.3307,-0.331,-0.331,-0.3311,-0.3312,-0.3312,-0.3312,-0.3312,-0.3312,-0.3312,-0.3312,-0.3312,-0.3312,-0.3312,-0.3312,-0.3331,-0.3494,-0.3505,-0.3525,-0.3475,-0.3592,-0.355,-0.3327,-0.3312,-0.3439,-0.3498,-0.3505,-0.3528,-0.3588,-0.3539,-0.3529,-0.3589,-0.4361,-0.4882,-0.4864,-0.5811,-0.6292,-0.629,-0.7268,-0.7849,-0.7839,-0.8808,-0.9288,-0.9284,-0.9284,-0.9284,1.1833,1.0686,0.9622,0.9327,0.9265,0.9386,0.9704,0.9604,0.9555,0.9942,1.0272,1.0493,1.0493,1.0574,1.065,1.0342,1.0191,1.0046,0.9749,0.9807,0.94,0.8367,0.9638,1.061,1.0889,0.9424,0.9161,1.0773,1.0837,1.0233,0.8999,0.9084,0.7685,0.4359,0.4241,0.3171,0.0809,0.073,0.0825,0.0823,0.0278,0.0094,0.0283,-0.0478,-0.1069,-0.1583,-0.1979,-0.1885,-0.1696,-0.2214,-0.2404,-0.2278,-0.2996,-0.3091,-0.2969,-0.3068,-0.3157,-0.3146,-0.3161,-0.3156,-0.3148,-0.318,-0.318,-0.3169,-0.3185,-0.3189,-0.3199,-0.3241,-0.3356,-0.3263,-0.3302,-0.3312,-0.3312,-0.3312,-0.3312,-0.3312,-0.3312,-0.3312,-0.3312,-0.3312,-0.3312,-0.3318,-0.3334,-0.3338,-0.3343,-0.3359,-0.4619,-0.5337,-0.4561,-0.4452,-0.4461,-0.4482,-0.3859,-0.3658,-0.4411,-0.3765,-0.3658,-0.4411,-0.4768,-0.5151,-0.5999,-0.7157,-0.7747,-0.7654,-0.8766,-0.9154,-0.891,-0.9086,-0.9155,-0.9028,-0.9028,-0.9028,1.1992,1.1034,0.9665,0.9087,0.87,0.8651,0.9626,0.9345,0.9049,0.9585,0.99,1.0046,1.0046,1.0278,1.0354,1.0121,1.0046,0.9976,0.9749,0.9754,0.9365,0.8442,0.8881,0.8953,0.8235,0.7119,0.728,0.9359,0.8978,0.8428,0.8172,0.7562,0.5905,0.2801,0.2701,0.1817,0.0,0.0,0.0,0.0,0.0,-0.0184,-0.0463,-0.0938,-0.1233,-0.163,-0.2322,-0.2339,-0.1965,-0.2485,-0.2479,-0.2064,-0.2882,-0.3074,-0.2848,-0.3045,-0.3143,-0.3143,-0.3143,-0.3143,-0.3143,-0.3143,-0.3143,-0.3143,-0.3143,-0.3143,-0.3151,-0.3184,-0.3195,-0.3201,-0.3233,-0.3241,-0.3241,-0.3241,-0.3241,-0.3241,-0.3241,-0.3241,-0.3241,-0.3241,-0.3241,-0.335,-0.3886,-0.3993,-0.4105,-0.4652,-0.5755,-0.6258,-0.5792,-0.5657,-0.563,-0.563,-0.5014,-0.4823,-0.5482,-0.4934,-0.4944,-0.5646,-0.5987,-0.6492,-0.7209,-0.8385,-0.8955,-0.8802,-0.9512,-0.9679,-0.93,-0.9302,-0.9203,-0.9104,-0.9104,-0.9024,1.0465,1.061,1.0039,0.8425,0.762,0.7705,0.0,0.9114,0.8553,0.9313,0.9463,0.95,0.958,0.9617,0.9659,0.9738,0.9754,0.9754,0.9754,0.9754,0.9673,0.9446,0.8064,0.6533,0.5017,0.4716,0.5419,0.7501,0.6327,0.6231,0.7608,0.6328,0.4559,0.2459,0.2376,0.1616,0.0,0.0,0.0,0.0,0.0,0.0,-0.0092,-0.1015,-0.1478,-0.1664,-0.2641,-0.2789,-0.2447,-0.2944,-0.2554,-0.1866,-0.275,-0.2845,-0.2447,-0.2937,-0.3138,-0.3143,-0.3143,-0.3143,-0.3143,-0.3143,-0.3143,-0.3143,-0.3143,-0.3143,-0.3143,-0.3143,-0.3143,-0.3143,-0.3143,-0.3143,-0.3143,-0.3143,-0.3143,-0.3144,-0.3249,-0.3251,-0.3153,-0.3456,-0.3556,-0.3872,-0.4941,-0.5046,-0.5577,-0.6911,-0.704,-0.7009,-0.702,-0.6834,-0.6767,-0.6666,-0.6666,-0.6608,-0.6507,-0.6421,-0.6654,-0.6975,-0.7713,-0.8295,-0.8533,-0.9374,-0.9846,-0.9768,-0.9764,-0.9576,-0.93,-0.928,-0.9264,-0.9245,-0.9245,-0.9155,0.0,0.0,0.0,0.0,0.0,0.0,0.0,0.7163,0.7009,0.7693,0.8061,0.8384,0.8705,0.9043,0.937,0.9659,0.9754,0.9754,0.9754,0.9754,0.9214,0.7984,0.6385,0.5247,0.4865,0.3728,0.3666,0.5316,0.5337,0.4849,0.3757,0.349,0.2478,0.0607,0.0533,0.0359,0.0,0.0,0.0,0.0,0.0,-0.0264,-0.0618,-0.0808,-0.1357,-0.1992,-0.2218,-0.2546,-0.2979,-0.3025,-0.2946,-0.2848,-0.3045,-0.3016,-0.2975,-0.3071,-0.3102,-0.3143,-0.3143,-0.3143,-0.3143,-0.3143,-0.3143,-0.3143,-0.3143,-0.3143,-0.3143,-0.3143,-0.3143,-0.3143,-0.3143,-0.3143,-0.3143,-0.3143,-0.3143,-0.3352,-0.4401,-0.381,-0.3726,-0.572,-0.6043,-0.6151,-0.6378,-0.6304,-0.6992,-0.8972,-0.9281,-0.8965,-0.8172,-0.805,-0.7722,-0.6895,-0.7514,-0.7629,-0.6825,-0.6703,-0.7123,-0.8007,-0.8269,-0.8619,-0.9462,-0.9767,-0.9846,-0.9768,-0.9764,-0.9576,-0.93,-0.9266,-0.9128,-0.8989,-0.8989,-0.8798,0.0,0.0,0.0,0.0,0.0,0.0,0.0,0.0,0.0,0.0,0.0,0.7738,0.7823,0.0,0.8902,0.8998,0.9447,0.9754,0.9754,0.9754,0.9138,0.7601,0.5171,0.3728,0.3728,0.2209,0.1905,0.3576,0.3003,0.2559,0.2559,0.1765,0.0904,0.0,0.0,0.0,0.0,0.0,0.0,0.0,0.0,-0.0175,-0.0436,-0.0617,-0.1151,-0.1773,-0.1991,-0.248,-0.2971,-0.303,-0.3054,-0.3054,-0.3054,-0.3037,-0.301,-0.301,-0.3029,-0.3054,-0.3054,-0.3054,-0.3054,-0.3054,-0.3054,-0.3059,-0.309,-0.3099,-0.3104,-0.3135,-0.3143,-0.3143,-0.3143,-0.3143,-0.3143,-0.3143,-0.3143,-0.3249,-0.3973,-0.3582,-0.3701,-0.5598,-0.5924,-0.6248,-0.7438,-0.8008,-0.8622,-0.9824,-1.006,-0.9886,-0.9447,-0.9279,-0.8927,-0.8178,-0.8493,-0.855,-0.805,-0.7951,-0.8345,-0.909,-0.9104,-0.9414,-0.9929,-0.9929,-0.9806,-0.9536,-0.9453,-0.9278,-0.8915,-0.8838,-0.8711,-0.8624,-0.8624,-0.8524,0.0,0.0,0.0,0.0,0.0,0.0,0.0,0.0,0.0,0.0,0.0,0.0,0.0,0.0,0.0,0.8397,0.9141,0.9754,0.9754,0.9446,0.8674,0.7067,0.4336,0.2362,0.2057,0.0839,0.0534,0.1905,0.0763,0.061,0.1981,0.0777,0.0,0.0,0.0,0.0,0.0,0.0,0.0,0.0,0.0,0.0,-0.0261,-0.0696,-0.1133,-0.1658,-0.2041,-0.2509,-0.2882,-0.293,-0.2956,-0.2871,-0.285,-0.2841,-0.2842,-0.2945,-0.2957,-0.2874,-0.2874,-0.2874,-0.2874,-0.2874,-0.2874,-0.2975,-0.3024,-0.3038,0.0,-0.3095,-0.3118,-0.3126,-0.3126,-0.3134,-0.3143,-0.3143,-0.3143,-0.3146,-0.3453,-0.3652,-0.4166,-0.5454,-0.5876,-0.6515,-0.8362,-0.9285,-0.9913,-0.992,-0.9995,-1.0183,-1.0294,-1.0243,-0.994,-0.9643,-0.9485,-0.9405,-0.9405,-0.9278,-0.9421,-0.9949,-0.9822,-0.9762,-0.9732,-0.9699,-0.9461,-0.9009,-0.8965,-0.879,-0.8483,-0.8425,-0.8358,-0.8346,-0.7905,-0.779,0.0,0.0,0.0,0.0,0.0,0.0,0.0,0.0,0.0,0.0,0.0,0.0,0.0,0.0,0.0,0.0,0.9207,0.9754,0.9754,0.8523,0.6991,0.532,0.3576,0.1905,0.0458,0.0076,0.0076,0.0305,0.0076,0.0076,0.0305,0.0077,0.0,0.0,0.0,0.0,0.0,0.0,0.0,0.0,0.0,-0.0425,-0.119,-0.1297,-0.1743,-0.2529,-0.2622,-0.2742,-0.2879,-0.2886,-0.2919,-0.2864,-0.2762,-0.2721,-0.2729,-0.2869,-0.2922,-0.2874,-0.2874,0.0,0.0,-0.2874,-0.2874,-0.2875,-0.2975,-0.2976,-0.2977,-0.2892,-0.3024,-0.3065,-0.3065,-0.3103,-0.3143,-0.3143,-0.3143,-0.3453,-0.4608,-0.5525,-0.6563,-0.7713,-0.877,-0.9494,-0.9719,-0.9697,-0.9647,-0.941,-0.9759,-0.9909,-0.9774,-1.0012,-1.0125,-1.033,-1.0322,0.0,-1.0314,-0.9735,-0.9496,-1.0026,-0.9433,-0.8874,-0.8576,-0.8544,-0.8374,-0.7945,-0.7917,-0.8039,-0.8385,-0.8366,-0.8358,-0.8306,-0.6351,-0.5822,0.0,0.0,0.0,0.0,0.0,0.0,0.0,0.0,0.0,0.0,0.0,0.0,0.0,0.0,0.0,0.0,0.8237,0.8945,0.8945,0.7194,0.5624,0.4944,0.2589,0.0763,0.0076,0.0,0.0,0.0,0.0,0.0,0.0,0.0,0.0,0.0,0.0,0.0,0.0,0.0,0.0,0.0,0.0,-0.0166,-0.0581,-0.0837,-0.1261,-0.1934,-0.2187,-0.2468,-0.2776,-0.2776,-0.281,-0.2764,0.0,0.0,0.0,0.0,-0.2813,-0.2774,-0.2774,-0.2774,-0.2774,-0.2774,-0.2774,-0.278,-0.2904,-0.2915,-0.2922,-0.2957,-0.2984,-0.3002,-0.3002,-0.34,-0.3801,-0.3801,-0.4273,-0.4851,-0.537,-0.5857,-0.6468,-0.7672,-0.8289,0.0,-0.9245,-0.9346,-0.9342,-0.9266,-0.9465,-0.9592,-0.9516,-0.9639,-0.9543,-0.9417,-0.9393,-0.9393,-0.9393,-0.9021,0.0,0.0,0.0,-0.9223,-0.8969,-0.906,0.0,0.0,0.0,-0.7226,-0.7143,-0.6635,0.0,0.0,-0.573,-0.5622,0.0,0.0,0.0,0.0,0.0,0.0,0.0,0.0,0.0,0.0,0.0,0.0,0.0,0.0,0.0,0.0,0.7433,0.8237,0.8174,0.6012,0.4528,0.475,0.195,0.0,0.0,0.0,0.0,0.0,0.0,0.0,0.0,0.0,0.0,0.0,0.0,0.0,0.0,0.0,0.0,0.0,-0.0081,-0.0243,-0.0405,-0.0653,-0.1064,-0.1556,-0.1719,-0.1982,-0.2344,-0.2344,-0.2451,-0.2478,-0.2237,-0.2314,-0.2679,-0.2679,-0.2707,-0.266,-0.2675,-0.2689,-0.2703,-0.2703,-0.2703,-0.2711,-0.2841,-0.2854,-0.2862,-0.2906,-0.293,-0.2941,-0.2941,-0.3416,-0.3895,-0.3895,-0.4634,-0.5372,-0.5372,-0.5835,-0.6508,-0.735,-0.7682,-0.7973,-0.8734,-0.8921,-0.8989,-0.8941,-0.912,-0.9239,-0.9096,-0.9174,-0.9107,-0.8778,-0.8742,-0.8742,-0.8742,-0.8569,-0.8679,-0.9202,-0.9227,-0.9171,-0.9088,-0.9124,-0.8874,-0.833,-0.756,-0.6818,0.0,0.0,0.0,0.0,0.0,0.0,0.0,0.0,0.0,0.0,0.0,0.0,0.0,0.0,0.0,0.0,0.0,0.0,0.0,0.0,0.0,0.0,0.0,0.0,0.7644,0.5238,0.38,0.4391,0.1797,0.0,0.0,0.0,0.0,0.0,0.0,0.0,0.0,0.0,0.0,0.0,0.0,0.0,0.0,0.0,0.0,0.0,-0.0392,-0.0792,-0.1347,-0.1297,-0.1556,-0.1883,-0.1556,-0.1392,-0.1393,-0.1393,-0.1639,-0.1969,-0.2375,-0.2539,-0.254,-0.254,-0.2542,-0.255,-0.2686,-0.2741,-0.2703,-0.2703,-0.2703,-0.2703,-0.2705,-0.2706,-0.2706,-0.2707,-0.2837,-0.2881,-0.2881,-0.2924,-0.2967,-0.2967,-0.3617,-0.4358,-0.4358,-0.5924,-0.7306,-0.7405,-0.7896,-0.8346,-0.851,-0.8542,-0.8491,-0.8405,-0.8679,0.0,-0.8577,-0.8945,-0.9215,-0.9261,-0.9276,-0.9276,-0.9276,-0.8754,-0.8592,-0.9128,-0.8283,-0.8039,-0.8534,-0.8,-0.7715,-0.7784,-0.7496,-0.6953,-0.6016,0.0,0.0,0.0,0.0,0.0,0.0,0.0,0.0,0.0,0.0,0.0,0.0,0.0,0.0,0.0,0.0,0.0,0.0,0.0,0.0,0.0,0.0,0.0,0.0,0.4705,0.377,0.4361,0.1823,0.0,0.0,0.0,0.0,0.0,0.0,0.0,0.0,0.0,0.0,0.0,0.0,0.0,0.0,0.0,0.0,0.0,-0.0154,-0.0309,-0.0464,-0.0701,-0.1095,-0.1408,-0.1564,-0.1814,-0.2161,-0.2161,-0.1825,-0.1486,-0.1877,-0.2211,-0.2561,-0.2561,-0.2506,-0.254,-0.2558,-0.2577,-0.2593,-0.2593,-0.2593,-0.2601,-0.272,-0.2732,-0.274,-0.2692,-0.2716,-0.282,-0.282,-0.3718,-0.4714,-0.4714,-0.5872,-0.6937,-0.6937,-0.7558,-0.8001,-0.8001,-0.8172,-0.8064,-0.7572,-0.806,-0.8227,-0.7584,-0.8088,-0.8512,-0.8453,-0.8548,-0.8647,-0.8703,-0.8707,-0.8707,-0.8707,-0.8493,-0.8433,-0.8612,-0.8369,-0.8349,-0.8522,-0.862,-0.854,-0.8275,-0.802,-0.7123,-0.5608,0.0,0.0,0.0,0.0,0.0,0.0,0.0,0.0,0.0,0.0,0.0,0.0,0.0,0.0,0.0,0.0,0.0,0.0,0.0,0.0,0.0,0.0,0.0,0.0,0.0,0.0,0.4228,0.1791,0.0,0.0,0.0,0.0,0.0,0.0,0.0,0.0,0.0,0.0,0.0,0.0,0.0,0.0,0.0,0.0,0.0,-0.0153,-0.0229,-0.0229,-0.0458,-0.0687,-0.0992,-0.1069,-0.1309,-0.1641,-0.2266,-0.2146,-0.1636,-0.1859,-0.2071,-0.2353,-0.2414,-0.2449,-0.2398,-0.248,-0.2508,-0.2511,-0.2531,-0.2482,-0.25,-0.2536,-0.2659,-0.2706,-0.2576,-0.2701,-0.2816,-0.2714,-0.358,-0.4611,-0.4988,-0.6199,-0.7419,-0.7826,-0.8051,-0.825,-0.8187,-0.8139,-0.7947,-0.7312,-0.755,-0.7699,-0.7357,-0.7606,-0.8004,-0.8314,-0.8358,-0.8358,-0.8358,-0.8358,-0.8358,-0.8358,-0.8358,-0.8358,-0.8358,-0.8465,-0.844,-0.844,-0.8691,-0.8584,-0.8163,-0.7915,-0.698,0.0,0.0,0.0,0.0,0.0,0.0,0.0,0.0,0.0,0.0,0.0,0.0,0.0,0.0,0.0,0.0,0.0,0.0,0.0,0.0,0.0,0.0,0.0,0.0,0.0,0.0,0.0,0.3911,0.1638,0.0,0.0,0.0,0.0,0.0,0.0,0.0,0.0,0.0,0.0,0.0,0.0,0.0,0.0,0.0,0.0,0.0,-0.0382,-0.0534,-0.0611,-0.0611,-0.0611,-0.0611,-0.0229,-0.0076,-0.0229,-0.1823,-0.236,-0.2258,-0.2246,-0.214,-0.1954,-0.2184,-0.221,-0.2127,-0.2433,-0.2515,-0.2523,-0.2493,-0.2438,-0.2321,-0.2306,-0.245,0.0,0.0,-0.2649,-0.2974,-0.2636,-0.2524,-0.2868,-0.3858,-0.4803,-0.5757,-0.6746,-0.7614,-0.8032,-0.7822,-0.7909,-0.7967,-0.7512,0.0,-0.7093,-0.7576,-0.7279,-0.7342,-0.8195,-0.8334,-0.8358,-0.8358,-0.8358,-0.8358,-0.8358,-0.8358,-0.8358,-0.8358,-0.835,-0.8346,-0.8346,-0.8159,-0.7891,-0.7362,-0.708,0.0,0.0,0.0,0.0,0.0,0.0,0.0,0.0,0.0,0.0,0.0,0.0,0.0,0.0,0.0,0.0,0.0,0.0,0.0,0.0,0.0,0.0,0.0,0.0,0.0,0.0,0.206,0.1814,0.2551,0.1089,0.0,0.0,0.0,0.0,0.0,0.0,0.0,0.0,0.0,0.0,0.0,0.0,0.0,0.0,0.0,0.0,0.0,-0.0076,-0.0305,-0.0611,-0.0611,-0.0916,-0.1451,-0.1375,-0.1527,-0.1823,-0.1269,-0.1084,-0.1061,-0.1582,-0.1735,-0.1652,-0.1852,-0.1874,-0.1893,-0.212,-0.227,-0.2187,-0.212,-0.2058,-0.2034,-0.1814,0.0,0.0,0.0,0.0,-0.2272,-0.2384,-0.2913,-0.3536,-0.3986,-0.5188,-0.6348,-0.6634,-0.736,-0.7703,-0.7291,-0.7151,-0.6825,-0.5756,-0.6039,0.0,-0.581,-0.6614,-0.7397,-0.7598,-0.8036,-0.8358,-0.8358,-0.8358,-0.8358,-0.8358,-0.8358,-0.8358,-0.8358,-0.8243,-0.8175,-0.8175,-0.7623,-0.7135,-0.6816,0.0,0.0,0.0,0.0,0.0,0.0,0.0,0.0,0.0,0.0,0.0,0.0,0.0,0.0,0.0,0.0,0.0,0.0,0.0,0.0,0.0,0.0,0.0,0.0,0.0,0.0,0.0,0.187,0.1668,0.2097,0.0859,0.0,0.0,0.0,0.0,0.0,0.0,0.0,0.0,0.0,0.0,0.0,0.0,0.0,0.0,0.0,0.0,0.0,0.0,-0.0153,-0.0305,-0.0305,-0.0534,-0.0992,-0.0992,-0.149,-0.2279,-0.1544,-0.1181,-0.1021,0.0,0.0,0.0,0.0,-0.1575,-0.1634,-0.1839,-0.1912,-0.1841,-0.1779,0.0,0.0,0.0,0.0,0.0,0.0,0.0,-0.2776,-0.2303,-0.3195,-0.4317,-0.4852,-0.571,-0.6613,-0.701,-0.7026,-0.6833,-0.6368,-0.618,-0.5774,-0.4997,-0.5188,0.0,0.0,0.0,-0.6868,-0.7436,-0.7928,-0.8247,-0.8247,-0.8314,-0.8326,-0.8254,-0.8247,-0.8215,-0.8135,-0.8044,-0.7858,-0.7552,-0.7004,-0.6294,0.0,0.0,0.0,0.0,0.0,0.0,0.0,0.0,0.0,0.0,0.0,0.0,0.0,0.0,0.0,0.0,0.0,0.0,0.0,0.0,0.0,0.0,0.0,0.0,0.0,0.0,0.0,0.0,0.0,0.1839,0.1873,0.0,0.0,0.0,0.0,0.0,0.0,0.0,0.0,0.0,0.0,0.0,0.0,0.0,0.0,0.0,0.0,0.0,0.0,0.0,0.0,-0.0073,-0.0147,-0.0148,-0.0224,-0.0074,0.0,-0.189,-0.1891,0.0,0.0,0.0,0.0,0.0,0.0,0.0,0.0,0.0,0.0,0.0,0.0,0.0,0.0,0.0,0.0,0.0,0.0,0.0,0.0,0.0,0.0,-0.4867,-0.5569,-0.6032,-0.6486,-0.7302,-0.6632,-0.5751,-0.5427,-0.5146,-0.4914,0.0,0.0,0.0,0.0,0.0,0.0,-0.7341,-0.7877,-0.8076,-0.8076,-0.8203,-0.8231,-0.8088,-0.8076,-0.8012,-0.7772,-0.7715,-0.7354,-0.6723,-0.6506,0.0,0.0,0.0,0.0,0.0,0.0,0.0,0.0,0.0,0.0,0.0,0.0,0.0,0.0,0.0,0.0,0.0,0.0,0.0,0.0,0.0,0.0,0.0,0.0,0.0,0.0,0.0,0.0,0.0,0.0,0.0,0.0,0.0,0.0,0.0,0.0,0.0,0.0,0.0,0.0,0.0,0.0,0.0,0.0,0.0,0.0,0.0,0.0,0.0,0.0,0.0,-0.0227,-0.0641,-0.0875,-0.1108,-0.1404,-0.0415,-0.0179,-0.0516,-0.0406,0.0,0.0,0.0,0.0,0.0,0.0,0.0,0.0,0.0,0.0,0.0,0.0,0.0,0.0,0.0,0.0,0.0,0.0,0.0,0.0,0.0,0.0,-0.4078,-0.4101,-0.4807,-0.5517,-0.5794,0.0,0.0,0.0,0.0,0.0,0.0,0.0,0.0,0.0,0.0,0.0,-0.6703,-0.7374,-0.7811,-0.7811,-0.7835,-0.7839,-0.7811,-0.7811,-0.7796,-0.7764,-0.7251,-0.6762,0.0,0.0,0.0,0.0,0.0,0.0,0.0,0.0,0.0,0.0,0.0,0.0,0.0,0.0,0.0,0.0,0.0,0.0,0.0,0.0,0.0,0.0,0.0,0.0,0.0,0.0,0.0,0.0,0.0,0.0,0.0,0.0,0.0,0.0,0.0,0.0,0.0,0.0,0.0,0.0,0.0,0.0,0.0,0.0,0.0,0.0,0.0,0.0,0.0,0.0,0.0,0.0,0.0,0.0,0.0,0.0,0.0,0.0,-0.0676,-0.0661,0.0,0.0,0.0,0.0,0.0,0.0,0.0,0.0,0.0,0.0,0.0,0.0,0.0,0.0,0.0,0.0,0.0,0.0,0.0,0.0,0.0,0.0,0.0,0.0,0.0,0.0,0.0,0.0,0.0,0.0,0.0,0.0,0.0,0.0,0.0,0.0,0.0,0.0,0.0,0.0,-0.6591,-0.7275,-0.7707,-0.7707,-0.7709,-0.7725,-0.7715,-0.7707,-0.755,-0.7212,-0.6658,0.0,0.0,0.0,0.0,0.0,0.0,0.0,0.0,0.0,0.0,0.0,0.0,0.0,0.0,0.0,0.0,0.0,0.0,0.0,0.0,0.0,0.0,0.0,0.0,0.0,0.0,0.0,0.0,0.0,0.0,0.0,0.0,0.0,0.0,0.0,0.0,0.0,0.0,0.0,0.0,0.0,0.0,0.0,0.0,0.0,0.0,0.0,0.0,0.0,0.0,0.0,0.0,0.0,0.0,0.0,0.0,0.0,0.0,0.0,-0.0706,-0.1045,0.0,0.0,0.0,0.0,0.0,0.0,0.0,0.0,0.0,0.0,0.0,0.0,0.0,0.0,0.0,0.0,0.0,0.0,0.0,0.0,0.0,0.0,0.0,0.0,0.0,0.0,0.0,0.0,0.0,0.0,0.0,0.0,0.0,0.0,0.0,0.0,0.0,0.0,0.0,0.0,-0.7029,-0.7793,-0.83,-0.83,-0.8357,-0.8387,-0.8313,-0.83,-0.7896,-0.7016,-0.649,0.0,0.0,0.0,0.0,0.0,0.0,0.0,0.0,0.0,0.0,0.0,0.0,0.0,0.0,0.0,0.0,0.0,0.0,0.0,0.0,0.0,0.0,0.0,0.0,0.0,0.0,0.0,0.0,0.0,0.0,0.0,0.0,0.0,0.0,0.0,0.0,0.0,0.0,0.0,0.0,0.0,0.0,0.0,0.0,0.0,0.0,0.0,0.0,0.0,0.0,0.0,0.0,0.0,0.0,0.0,0.0,0.0,0.0,0.0,0.0,0.0,0.0,0.0,0.0,0.0,0.0,0.0,0.0,0.0,0.0,0.0,0.0,0.0,0.0,0.0,0.0,0.0,0.0,0.0,0.0,0.0,0.0,0.0,0.0,0.0,0.0,0.0,0.0,0.0,0.0,0.0,0.0,0.0,0.0,0.0,0.0,0.0,0.0,0.0,0.0,0.0,-0.8239,-0.9657,-1.0586,-1.0586,-1.0609,-1.0615,-1.0592,-1.0586,-0.9898,-0.8313,0.0,0.0,0.0,0.0,0.0,0.0,0.0,0.0,0.0,0.0,0.0,0.0,0.0,0.0,0.0,0.0,0.0,0.0,0.0,0.0,0.0,0.0,0.0,0.0,0.0,0.0,0.0,0.0,0.0,0.0,0.0,0.0,0.0,0.0,0.0,0.0,0.0,0.0,0.0,0.0,0.0,0.0,0.0,0.0,0.0,0.0,0.0,0.0,0.0,0.0,0.0,0.0,0.0,0.0,0.0,0.0,0.0,0.0,0.0,0.0,0.0,0.0,0.0,0.0,0.0,0.0,0.0,0.0,0.0,0.0,0.0,0.0,0.0,0.0,0.0,0.0,0.0,0.0,0.0,0.0,0.0,0.0,0.0,0.0,0.0,0.0,0.0,0.0,0.0,0.0,0.0,0.0,0.0,0.0,0.0,0.0,0.0,0.0,0.0,0.0,0.0,0.0,-0.8398,-0.9899,-1.0853,-1.0853,-1.0853,-1.0853,-1.0853,-1.0853,-1.0097,-0.8267,0.0,0.0,0.0,0.0,0.0,0.0,0.0,0.0,0.0,0.0,0.0,0.0,0.0,0.0,0.0,0.0,0.0,0.0,0.0,0.0,0.0,0.0,0.0,0.0,0.0,0.0,0.0,0.0,0.0,0.0,0.0,0.0,0.0,0.0,0.0,0.0,0.0,0.0,0.0,0.0,0.0,0.0,0.0,0.0,0.0,0.0,0.0,0.0,0.0,0.0,0.0,0.0,0.0,0.0,0.0,0.0,0.0,0.0,0.0,0.0,0.0,0.0,0.0,0.0,0.0,0.0,0.0,0.0,0.0,0.0,0.0,0.0,0.0,0.0,0.0,0.0,0.0,0.0,0.0,0.0,0.0,0.0,0.0,0.0,0.0,0.0,0.0,0.0,0.0,0.0,0.0,0.0,0.0,0.0,0.0,0.0,0.0,0.0,0.0,0.0,0.0,0.0,-0.8928,-1.0766,-1.198,-1.198,-1.198,-1.198,-1.198,-1.198,-1.1016,-0.8704,0.0,0.0,0.0,0.0,0.0,0.0,0.0,0.0,0.0,0.0,0.0,0.0,0.0,0.0,0.0,0.0,0.0,0.0,0.0,0.0,0.0,0.0,0.0,0.0,0.0,0.0,0.0,0.0,0.0,0.0,0.0,0.0,0.0,0.0,0.0,0.0,0.0,0.0,0.0,0.0,0.0,0.0,0.0,0.0,0.0,0.0,0.0,0.0,0.0,0.0,0.0,0.0,0.0,0.0,0.0,0.0,0.0,0.0,0.0,0.0,0.0,0.0,0.0,0.0,0.0,0.0,0.0,0.0,0.0,0.0,0.0,0.0,0.0,0.0,0.0,0.0,0.0,0.0,0.0,0.0,0.0,0.0,0.0,0.0,0.0,0.0,0.0,0.0,0.0,0.0,0.0,0.0,0.0,0.0,0.0,0.0,0.0,0.0,0.0,0.0,0.0,0.0,-1.0164,-1.2761,-1.454,-1.454,-1.454,-1.454,-1.454,-1.454,-1.3206,0.0,0.0,0.0,0.0,0.0,0.0,0.0,0.0,0.0,0.0,0.0,0.0,0.0,0.0,0.0,0.0,0.0,0.0,0.0,0.0,0.0,0.0,0.0,0.0,0.0,0.0,0.0,0.0,0.0,0.0,0.0,0.0,0.0,0.0,0.0,0.0,0.0,0.0,0.0,0.0,0.0,0.0,0.0,0.0,0.0,0.0,0.0,0.0,0.0,0.0,0.0,0.0,0.0,0.0,0.0,0.0,0.0,0.0,0.0,0.0,0.0,0.0,0.0,0.0,0.0,0.0,0.0,0.0,0.0,0.0,0.0,0.0,0.0,0.0,0.0,0.0,0.0,0.0,0.0,0.0,0.0,0.0,0.0,0.0,0.0,0.0,0.0,0.0,0.0,0.0,0.0,0.0,0.0,0.0,0.0,0.0,0.0,0.0,0.0,0.0,0.0,0.0,0.0,-1.0047,-1.1944,-1.3498,-1.4445,-1.4548,-1.4453,-1.4224,-1.4414,-1.3341,-1.0366,0.0,0.0,0.0,0.0,0.0,0.0,0.0,0.0,0.0,0.0,0.0,0.0,0.0,0.0,0.0,0.0,0.0,0.0,0.0,0.0,0.0,0.0,0.0,0.0,0.0,0.0,0.0,0.0,0.0,0.0,0.0,0.0,0.0,0.0,0.0,0.0,0.0,0.0,0.0,0.0,0.0,0.0,0.0,0.0,0.0,0.0,0.0,0.0,0.0,0.0,0.0,0.0,0.0,0.0,0.0,0.0,0.0,0.0,0.0,0.0,0.0,0.0,0.0,0.0,0.0,0.0,0.0,0.0,0.0,0.0,0.0,0.0,0.0,0.0,0.0,0.0,0.0,0.0,0.0,0.0,0.0,0.0,0.0,0.0,0.0,0.0,0.0,0.0,0.0,0.0,0.0,0.0,0.0,0.0,0.0,0.0,0.0,0.0,0.0,0.0,0.0,0.0,0.0,-1.199,-1.3585,-1.4453,-1.4429,-1.4474,-1.4605,-1.4629,-1.3517,-1.0964,0.0,0.0,0.0,0.0,0.0,0.0,0.0,0.0,0.0,0.0,0.0,0.0,0.0,0.0,0.0,0.0,0.0,0.0,0.0,0.0,0.0,0.0,0.0,0.0,0.0,0.0,0.0,0.0,0.0,0.0,0.0,0.0,0.0,0.0,0.0,0.0,0.0,0.0,0.0,0.0,0.0,0.0,0.0,0.0,0.0,0.0,0.0,0.0,0.0,0.0,0.0,0.0,0.0,0.0,0.0,0.0,0.0,0.0,0.0,0.0,0.0,0.0,0.0,0.0,0.0,0.0,0.0,0.0,0.0,0.0,0.0,0.0,0.0,0.0,0.0,0.0,0.0,0.0,0.0,0.0,0.0,0.0,0.0,0.0,0.0,0.0,0.0,0.0,0.0,0.0,0.0,0.0,0.0,0.0,0.0,0.0,0.0,0.0,0.0,0.0,0.0,0.0,0.0,-1.2663,-1.4503,-1.4649,-1.4305,-1.4516,-1.5612,-1.5085,-1.3759,-1.1797,-1.0547,0.0,0.0,0.0,0.0,0.0,0.0,0.0,0.0,0.0,0.0,0.0,0.0,0.0,0.0,0.0,0.0,0.0,0.0,0.0,0.0,0.0,0.0,0.0,0.0,0.0,0.0,0.0,0.0,0.0,0.0,0.0,0.0,0.0,0.0,0.0,0.0,0.0,0.0,0.0,0.0,0.0,0.0,0.0,0.0,0.0,0.0,0.0,0.0,0.0,0.0,0.0,0.0,0.0,0.0,0.0,0.0,0.0,0.0,0.0,0.0,0.0,0.0,0.0,0.0,0.0,0.0,0.0,0.0,0.0,0.0,0.0,0.0,0.0,0.0,0.0,0.0,0.0,0.0,0.0,0.0,0.0,0.0,0.0,0.0,0.0,0.0,0.0,0.0,0.0,0.0,0.0,0.0,0.0,0.0,0.0,0.0,0.0,0.0,0.0,0.0,0.0,0.0,-1.288,-1.3677,-1.5722,-1.5228,-1.483,-1.5109,-1.5231,-1.4222,-1.1659,-1.0608,0.0,0.0,0.0,0.0,0.0,0.0,0.0,0.0,0.0,0.0,0.0,0.0,0.0,0.0,0.0,0.0,0.0,0.0,0.0,0.0,0.0,0.0,0.0,0.0,0.0,0.0,0.0,0.0,0.0,0.0,0.0,0.0,0.0,0.0,0.0,0.0,0.0,0.0,0.0,0.0,0.0,0.0,0.0,0.0,0.0,0.0,0.0,0.0,0.0,0.0,0.0,0.0,0.0,0.0,0.0,0.0,0.0,0.0,0.0,0.0,0.0,0.0,0.0,0.0,0.0,0.0,0.0,0.0,0.0,0.0,0.0,0.0,0.0,0.0,0.0,0.0,0.0,0.0,0.0,0.0,0.0,0.0,0.0,0.0,0.0,0.0,0.0,0.0,0.0,0.0,0.0,0.0,0.0,0.0,0.0,0.0,0.0,0.0,0.0,0.0,0.0,0.0,-1.1032,-1.2241,-1.4954,-1.4739,-1.447,-1.4822,-1.4721,-1.3709,-1.1681,-1.0935,0.0,0.0,0.0,0.0,0.0,0.0,0.0,0.0,0.0,0.0,0.0,0.0,0.0,0.0,0.0,0.0,0.0,0.0,0.0,0.0,0.0,0.0,0.0,0.0,0.0,0.0,0.0,0.0,0.0,0.0,0.0,0.0,0.0,0.0,0.0,0.0,0.0,0.0,0.0,0.0,0.0,0.0,0.0,0.0,0.0,0.0,0.0,0.0,0.0,0.0,0.0,0.0,0.0,0.0,0.0,0.0,0.0,0.0,0.0,0.0,0.0,0.0,0.0,0.0,0.0,0.0,0.0,0.0,0.0,0.0,0.0,0.0,0.0,0.0,0.0,0.0,0.0,0.0,0.0,0.0,0.0,0.0,0.0,0.0,0.0,0.0,0.0,0.0,0.0,0.0,0.0,0.0,0.0,0.0,0.0,0.0,0.0,0.0,0.0,0.0,0.0,0.0,0.0,-1.1399,-1.3799,-1.4052,-1.4372,-1.4954,-1.4328,-1.3272,-1.1898,0.0,0.0,0.0,0.0,0.0,0.0,0.0,0.0,0.0,0.0,0.0,0.0,0.0,0.0,0.0,0.0,0.0,0.0,0.0,0.0,0.0,0.0,0.0,0.0,0.0,0.0,0.0,0.0,0.0,0.0,0.0,0.0,0.0,0.0,0.0,0.0,0.0,0.0,0.0,0.0,0.0,0.0,0.0,0.0,0.0,0.0,0.0,0.0,0.0,0.0,0.0,0.0,0.0,0.0,0.0,0.0,0.0,0.0,0.0,0.0,0.0,0.0,0.0,0.0,0.0,0.0,0.0,0.0,0.0,0.0,0.0,0.0,0.0,0.0,0.0,0.0,0.0,0.0,0.0,0.0,0.0,0.0,0.0,0.0,0.0,0.0,0.0,0.0,0.0,0.0,0.0,0.0,0.0,0.0,0.0,0.0,0.0,0.0,0.0,0.0,0.0,0.0,0.0,0.0,-1.3907,-1.4125,-1.5415,-1.6249,-1.625,-1.6122,-1.4993,-1.2462,0.0,0.0,0.0,0.0,0.0,0.0,0.0,0.0,0.0,0.0,0.0,0.0,0.0,0.0]}]]]